[[{"header":{"parameterUnit":"m.s-1","parameterCategory":1,"la1":30.6,"la2":28.766,"lo1":-90.7593,"lo2":-88.6598,"dy":0.0162,"dx":0.0183,"nx":116,"ny":114,"refTime":"2024-03-08T06:00:00:Z","depth":0,"parameterNumber":2,"parameterNumberName":"U-component_of_WINDS"},"data":[0.0,0.0,0.0,0.0,0.0,0.0,0.0,0.0,0.0,0.0,0.0,0.0,0.0,0.0,0.0,0.0,0.0,0.0,0.0,0.0,0.0,0.0,0.0,0.0,0.0,0.0,0.0,0.0,0.0,0.0,0.0,0.0,0.0,0.0,0.0,0.0,0.0,0.0,0.0,0.0,0.0,0.0,0.0,0.0,0.0,0.0,0.0,0.0,0.0,0.0,0.0,0.0,0.0,0.0,0.0,0.0,0.0,0.0,0.0,0.0,0.0,0.0,0.0,0.0,0.0,0.0,0.0,0.0,0.0,0.0,0.0,0.0,0.0,0.0,0.0,0.0,0.0,0.0,0.0,0.0,0.0,0.0,0.0,0.0,0.0,0.0,0.0,0.0,0.0,0.0,0.0,0.0,0.0,0.0,0.0,0.0,0.0,0.0,0.0,0.0,0.0,0.0,0.0,0.0,0.0,0.0,0.0,0.0,0.0,0.0,0.0,0.0,0.0,0.0,0.0,0.0,0.0,0.0,0.0,0.0,0.0,0.0,0.0,0.0,0.0,0.0,0.0,0.0,0.0,0.0,0.0,0.0,0.0,0.0,0.0,0.0,0.0,0.0,0.0,0.0,0.0,0.0,0.0,0.0,0.0,0.0,0.0,0.0,0.0,0.0,0.0,0.0,0.0,0.0,0.0,0.0,0.0,0.0,0.0,0.0,0.0,0.0,0.0,0.0,0.0,0.0,0.0,0.0,0.0,0.0,0.0,0.0,0.0,0.0,0.0,0.0,0.0,0.0,0.0,0.0,0.0,0.0,0.0,0.0,0.0,0.0,0.0,0.0,0.0,0.0,0.0,0.0,0.0,0.0,0.0,0.0,0.0,0.0,0.0,0.0,0.0,0.0,0.0,0.0,0.0,0.0,0.0,0.0,0.0,0.0,0.0,0.0,0.0,0.0,0.0,0.0,0.0,0.0,0.0,0.0,0.0,0.0,0.0,0.0,0.0,0.0,0.0,0.0,0.0,0.0,0.0,0.0,0.0,0.0,0.0,0.0,0.0,0.0,0.0,0.0,0.0,0.0,0.0,0.0,0.0,0.0,0.0,0.0,0.0,0.0,0.0,0.0,0.0,0.0,0.0,0.0,0.0,0.0,0.0,0.0,0.0,0.0,0.0,0.0,0.0,0.0,0.0,0.0,0.0,0.0,0.0,0.0,0.0,0.0,0.0,0.0,0.0,0.0,0.0,0.0,0.0,0.0,0.0,0.0,0.0,0.0,0.0,0.0,0.0,0.0,0.0,0.0,0.0,0.0,0.0,0.0,0.0,0.0,0.0,0.0,0.0,0.0,0.0,0.0,0.0,0.0,0.0,0.0,0.0,0.0,0.0,0.0,0.0,0.0,0.0,0.0,0.0,0.0,0.0,0.0,0.0,0.0,0.0,0.0,0.0,0.0,0.0,0.0,0.0,0.0,0.0,0.0,0.0,0.0,0.0,0.0,0.0,0.0,0.0,0.0,0.0,0.0,0.0,0.0,0.0,0.0,0.0,0.0,0.0,0.0,0.0,0.0,0.0,0.0,0.0,0.0,0.0,0.0,0.0,0.0,0.0,0.0,0.0,0.0,0.0,0.0,0.0,0.0,0.0,0.0,0.0,0.0,0.0,0.0,0.0,0.0,0.0,0.0,0.0,0.0,0.0,0.0,0.0,0.0,0.0,0.0,0.0,0.0,0.0,0.0,0.0,0.0,0.0,0.0,0.0,0.0,0.0,0.0,0.0,0.0,0.0,0.0,0.0,0.0,0.0,0.0,0.0,0.0,0.0,0.0,0.0,0.0,0.0,0.0,0.0,0.0,0.0,0.0,0.0,0.0,0.0,0.0,0.0,0.0,0.0,0.0,0.0,0.0,0.0,0.0,0.0,0.0,0.0,0.0,0.0,0.0,0.0,0.0,0.0,0.0,0.0,0.0,0.0,0.0,0.0,0.0,0.0,0.0,0.0,0.0,0.0,0.0,0.0,0.0,0.0,0.0,0.0,0.0,0.0,0.0,0.0,0.0,0.0,0.0,0.0,0.0,0.0,0.0,0.0,0.0,0.0,0.0,0.0,0.0,0.0,0.0,0.0,0.0,0.0,0.0,0.0,0.0,0.0,0.0,0.0,0.0,0.0,0.0,0.0,0.0,0.0,0.0,0.0,0.0,0.0,0.0,0.0,0.0,0.0,0.0,0.0,0.0,0.0,0.0,0.0,0.0,0.0,0.0,0.0,0.0,0.0,0.0,0.0,0.0,0.0,0.0,0.0,0.0,0.0,0.0,0.0,0.0,0.0,0.0,0.0,0.0,0.0,0.0,0.0,0.0,0.0,0.0,0.0,0.0,0.0,0.0,0.0,0.0,0.0,0.0,0.0,0.0,0.0,0.0,0.0,0.0,0.0,0.0,0.0,0.0,0.0,0.0,0.0,0.0,0.0,0.0,0.0,0.0,0.0,0.0,0.0,0.0,0.0,0.0,0.0,0.0,0.0,0.0,0.0,0.0,0.0,0.0,0.0,0.0,0.0,0.0,0.0,0.0,0.0,0.0,0.0,0.0,0.0,0.0,0.0,0.0,0.0,0.0,0.0,0.0,0.0,0.0,0.0,0.0,0.0,0.0,0.0,0.0,0.0,0.0,0.0,0.0,0.0,0.0,0.0,0.0,0.0,0.0,0.0,0.0,0.0,0.0,0.0,0.0,0.0,0.0,0.0,0.0,0.0,0.0,0.0,0.0,0.0,0.0,0.0,0.0,0.0,0.0,0.0,0.0,0.0,0.0,0.0,0.0,0.0,0.0,0.0,0.0,0.0,0.0,0.0,0.0,0.0,0.0,0.0,0.0,0.0,0.0,0.0,0.0,0.0,0.0,0.0,0.0,0.0,0.0,0.0,0.0,0.0,0.0,0.0,0.0,0.0,0.0,0.0,0.0,0.0,0.0,0.0,0.0,0.0,0.0,0.0,0.0,0.0,0.0,0.0,0.0,0.0,0.0,0.0,0.0,0.0,0.0,0.0,0.0,0.0,0.0,0.0,0.0,0.0,0.0,0.0,0.0,0.0,0.0,0.0,0.0,0.0,0.0,0.0,0.0,0.0,0.0,0.0,0.0,0.0,0.0,0.0,0.0,0.0,0.0,0.0,0.0,0.0,0.0,0.0,0.0,0.0,0.0,0.0,0.0,0.0,0.0,0.0,0.0,0.0,0.0,0.0,0.0,0.0,0.0,0.0,0.0,0.0,0.0,0.0,0.0,0.0,0.0,0.0,0.0,0.0,0.0,0.0,0.0,0.0,0.0,0.0,0.0,0.0,0.0,0.0,0.0,0.0,0.0,0.0,0.0,0.0,0.0,0.0,0.0,0.0,0.0,0.0,0.0,0.0,0.0,0.0,0.0,0.0,0.0,0.0,0.0,0.0,0.0,0.0,0.0,0.0,0.0,0.0,0.0,0.0,0.0,0.0,0.0,0.0,0.0,0.0,0.0,0.0,0.0,0.0,0.0,0.0,0.0,0.0,0.0,0.0,0.0,0.0,0.0,0.0,0.0,0.0,0.0,0.0,0.0,0.0,0.0,0.0,0.0,0.0,0.0,0.0,0.0,0.0,0.0,0.0,0.0,0.0,0.0,0.0,0.0,0.0,0.0,0.0,0.0,0.0,0.0,0.0,0.0,0.0,0.0,0.0,0.0,0.0,0.0,0.0,0.0,0.0,0.0,0.0,0.0,0.0,0.0,0.0,0.0,0.0,0.0,0.0,0.0,0.0,0.0,0.0,0.0,0.0,0.0,0.0,0.0,0.0,0.0,0.0,0.0,0.0,0.0,0.0,0.0,0.0,0.0,0.0,0.0,0.0,0.0,0.0,0.0,0.0,0.0,0.0,0.0,0.0,0.0,0.0,0.0,0.0,0.0,0.0,0.0,0.0,0.0,0.0,0.0,0.0,0.0,0.0,0.0,0.0,0.0,0.0,0.0,0.0,0.0,0.0,0.0,0.0,0.0,0.0,0.0,0.0,0.0,0.0,0.0,0.0,0.0,0.0,0.0,0.0,0.0,0.0,0.0,0.0,0.0,0.0,0.0,0.0,0.0,0.0,0.0,0.0,0.0,0.0,0.0,0.0,0.0,0.0,0.0,0.0,0.0,0.0,0.0,0.0,0.0,0.0,0.0,0.0,0.0,0.0,0.0,0.0,0.0,0.0,0.0,0.0,0.0,0.0,0.0,0.0,0.0,0.0,0.0,0.0,0.0,0.0,0.0,0.0,0.0,0.0,0.0,0.0,0.0,0.0,0.0,0.0,0.0,0.0,0.0,0.0,0.0,0.0,0.0,0.0,0.0,0.0,0.0,0.0,0.0,0.0,0.0,0.0,0.0,0.0,0.0,0.0,0.0,0.0,0.0,0.0,0.0,0.0,0.0,0.0,0.0,0.0,0.0,0.0,0.0,0.0,0.0,0.0,0.0,0.0,0.0,0.0,0.0,0.0,0.0,0.0,0.0,0.0,0.0,0.0,0.0,0.0,0.0,0.0,0.0,0.0,0.0,0.0,0.0,0.0,0.0,0.0,0.0,0.0,0.0,0.0,0.0,0.0,0.0,0.0,0.0,0.0,0.0,0.0,0.0,0.0,0.0,0.0,0.0,0.0,0.0,0.0,0.0,0.0,0.0,0.0,0.0,0.0,0.0,0.0,0.0,0.0,0.0,0.0,0.0,0.0,0.0,0.0,0.0,0.0,0.0,0.0,0.0,0.0,0.0,0.0,0.0,0.0,0.0,0.0,0.0,0.0,0.0,0.0,0.0,0.0,0.0,0.0,0.0,0.0,0.0,0.0,0.0,0.0,0.0,0.0,0.0,0.0,0.0,0.0,0.0,0.0,0.0,0.0,0.0,0.0,0.0,0.0,0.0,0.0,0.0,0.0,0.0,0.0,0.0,0.0,0.0,0.0,0.0,0.0,0.0,0.0,0.0,0.0,0.0,0.0,0.0,0.0,0.0,0.0,0.0,0.0,0.0,0.0,0.0,0.0,0.0,0.0,0.0,0.0,0.0,0.0,0.0,0.0,0.0,0.0,0.0,0.0,0.0,0.0,0.0,0.0,0.0,0.0,0.0,0.0,0.0,0.0,0.0,0.0,0.0,0.0,0.0,0.0,0.0,0.0,0.0,0.0,0.0,0.0,0.0,0.0,0.0,0.0,0.0,0.0,0.0,0.0,0.0,0.0,0.0,0.0,0.0,0.0,0.0,0.0,0.0,0.0,0.0,0.0,0.0,0.0,0.0,0.0,0.0,0.0,0.0,0.0,0.0,0.0,0.0,0.0,0.0,0.0,0.0,0.0,0.0,0.0,0.0,0.0,0.0,0.0,0.0,0.0,0.0,0.0,0.0,0.0,0.0,0.0,0.0,0.0,0.0,0.0,0.0,0.0,0.0,0.0,0.0,0.0,0.0,0.0,0.0,0.0,0.0,0.0,0.0,0.0,0.0,0.0,0.0,0.0,0.0,0.0,0.0,0.0,0.0,0.0,0.0,0.0,0.0,0.0,0.0,0.0,0.0,0.0,0.0,0.0,0.0,0.0,0.0,0.0,0.0,0.0,0.0,0.0,0.0,0.0,0.0,0.0,0.0,0.0,0.0,0.0,0.0,0.0,0.0,0.0,0.0,0.0,0.0,0.0,0.0,0.0,0.0,0.0,0.0,0.0,0.0,0.0,0.0,0.0,0.0,0.0,0.0,0.0,0.0,0.0,0.0,0.0,0.0,0.0,0.0,0.0,0.0,0.0,0.0,0.0,0.0,0.0,0.0,0.0,0.0,0.0,0.0,0.0,0.0,0.0,0.0,0.0,0.0,0.0,0.0,0.0,0.0,0.0,0.0,0.0,0.0,0.0,0.0,0.0,0.0,0.0,0.0,0.0,0.0,0.0,0.0,0.0,0.0,0.0,0.0,0.0,0.0,0.0,0.0,0.0,0.0,0.0,0.0,0.0,0.0,0.0,0.0,0.0,0.0,0.0,0.0,0.0,0.0,0.0,0.0,0.0,0.0,0.0,0.0,0.0,0.0,0.0,0.0,0.0,0.0,0.0,0.0,0.0,0.0,0.0,0.0,-0.0726,0.0,0.0,0.0,0.0,0.0,0.0,0.0,0.0,0.0,0.0,0.0,0.0,0.0,0.0,0.0,0.0,0.0,0.0,0.0,0.0,0.0,0.0,0.0,0.0,0.0,0.0,0.0,-0.0897,-0.0819,-0.1257,-0.1292,-0.1314,-0.1314,-0.1299,-0.1309,-0.1309,-0.1309,-0.1309,-0.1309,-0.084,-0.0404,0.0,0.0,0.0,0.0,0.0,0.0,0.0,0.0,0.0,0.0,0.0,0.0,0.0,0.0,0.0,0.0,0.0,0.0,0.0,0.0,0.0,0.0,0.0,0.0,0.0,0.0,0.0,0.0,0.0,0.0,0.0,0.0,0.0,0.0,0.0,0.0,0.0,0.0,0.0,0.0,0.0,0.0,0.0,0.0,0.0,0.0,0.0,0.0,0.0,0.0,0.0,0.0,0.0,0.0,0.0,0.0,0.0,0.0,0.0,0.0,0.0,0.0,0.0,0.0,0.0,0.0,0.0,0.0,0.0,0.0,0.0,0.0,0.0,0.0,0.0,-0.0672,0.0,0.0,0.0,0.0,0.0,0.0,0.0,0.0,0.0,0.0,0.0,0.0,0.0,0.0,0.0,0.0,0.0,0.0,0.0,0.0,0.0,0.0,0.0,-0.0914,-0.1086,-0.2571,-0.1975,-0.1878,-0.2648,-0.2708,-0.2711,-0.2711,-0.2711,-0.2711,-0.2711,-0.2711,-0.2711,-0.2711,-0.1775,-0.0839,0.0,0.0,0.0,0.0,0.0,0.0,0.0,0.0,0.0,0.0,0.0,0.0,0.0,0.0,0.0,0.0,0.0,0.0,0.0,0.0,0.0,0.0,0.0,0.0,0.0,0.0,0.0,0.0,0.0,0.0,0.0,0.0,0.0,0.0,0.0,0.0,0.0,0.0,0.0,0.0,0.0,0.0,0.0,0.0,0.0,0.0,0.0,0.0,0.0,0.0,0.0,0.0,0.0,0.0,0.0,0.0,0.0,0.0,0.0,0.0,0.0,0.0,0.0,0.0,0.0,0.0,0.0,0.0,-0.236,-0.2739,-0.2785,-0.2785,-0.3157,-0.3736,-0.1498,-0.0611,-0.0706,-0.0706,0.0,0.0,0.0,0.0,0.0,0.0,0.0,0.0,0.0,0.0,0.0,0.0,0.0,0.0,0.0,0.0,0.0,0.0,0.0,0.0,0.0,-0.2415,-0.2455,-0.2677,-0.2587,-0.2564,-0.2696,-0.2706,-0.2711,-0.2711,-0.2711,-0.2711,-0.2711,-0.2711,-0.2711,-0.2711,-0.1775,-0.0839,0.0,0.0,0.0,0.0,0.0,0.0,0.0,0.0,0.0,0.0,0.0,0.0,0.0,0.0,0.0,0.0,0.0,0.0,0.0,0.0,0.0,0.0,0.0,0.0,0.0,0.0,0.0,0.0,0.0,0.0,0.0,0.0,0.0,0.0,0.0,0.0,0.0,0.0,0.0,0.0,0.0,0.0,0.0,0.0,0.0,0.0,0.0,0.0,0.0,0.0,0.0,0.0,0.0,0.0,0.0,0.0,0.0,0.0,0.0,0.0,0.0,0.0,0.0,-0.2344,-0.2344,-0.2444,-0.2575,-0.2707,-0.2811,-0.2951,-0.3056,-0.3056,-0.3126,-0.3199,-0.2841,0.0,-0.348,-0.348,0.0,0.0,0.0,0.0,0.0,0.0,0.0,0.0,0.0,0.0,0.0,0.0,0.0,0.0,0.0,0.0,0.0,0.0,0.0,0.0,0.0,-0.3003,-0.3119,-0.4137,-0.372,-0.3647,-0.4184,-0.4217,-0.4217,-0.4217,-0.4217,-0.4217,-0.4217,-0.4217,-0.3949,-0.3445,-0.3011,-0.211,-0.0739,-0.0739,-0.0471,0.0,0.0,0.0,0.0,0.0,0.0,0.0,0.0,0.0,0.0,0.0,0.0,0.0,0.0,0.0,0.0,0.0,0.0,0.0,0.0,0.0,0.0,0.0,0.0,0.0,0.0,0.0,0.0,0.0,0.0,0.0,0.0,0.0,0.0,0.0,0.0,0.0,0.0,0.0,0.0,0.0,0.0,0.0,0.0,0.0,0.0,0.0,0.0,0.0,0.0,0.0,0.0,0.0,0.0,0.0,0.0,0.0,0.0,-0.2809,-0.2887,-0.291,-0.291,-0.3432,-0.3734,-0.3812,-0.4311,-0.4553,-0.4607,-0.4607,-0.4607,-0.4607,-0.4607,-0.4761,-0.4934,-0.3826,-0.3187,-0.2976,0.0,0.0,0.0,0.0,-0.4553,-0.4317,0.0,0.0,0.0,0.0,0.0,0.0,0.0,0.0,0.0,0.0,0.0,0.0,-0.4277,-0.3767,-0.3949,-0.5292,-0.4755,-0.4652,-0.5359,-0.5395,-0.5395,-0.5395,-0.5395,-0.5395,-0.5395,-0.5395,-0.4954,-0.4015,-0.4015,-0.3211,-0.1675,-0.1675,-0.1174,-0.0337,-0.0337,-0.0202,0.0,0.0,0.0,0.0,0.0,0.0,0.0,0.0,0.0,0.0,0.0,0.0,0.0,0.0,0.0,0.0,0.0,0.0,0.0,0.0,0.0,0.0,0.0,0.0,0.0,0.0,0.0,0.0,0.0,0.0,0.0,0.0,0.0,0.0,0.0,0.0,0.0,0.0,0.0,0.0,0.0,-0.0202,-0.0236,-0.0034,-0.0404,-0.0605,0.0,0.0,0.0,0.0,0.0,0.0,-0.3145,-0.324,-0.3416,-0.3629,-0.3737,-0.3824,-0.3848,-0.4541,-0.4936,-0.5035,-0.5673,-0.5993,-0.603,-0.603,-0.603,-0.603,-0.603,-0.603,-0.5898,-0.4308,-0.3911,-0.4289,-0.4409,-0.4617,-0.4857,-0.5338,-0.5369,-0.5196,0.0,0.0,0.0,0.0,0.0,0.0,0.0,0.0,0.0,0.0,0.0,-0.5054,-0.5299,-0.5289,-0.5292,-0.5395,-0.5359,-0.5359,-0.5395,-0.5395,-0.5395,-0.5395,-0.5395,-0.5395,-0.5395,-0.5395,-0.4954,-0.4015,-0.4015,-0.3513,-0.2644,-0.2644,-0.2143,-0.124,-0.124,-0.0772,0.0,0.0,0.0,0.0,0.0,0.0,0.0,0.0,0.0,0.0,0.0,0.0,0.0,0.0,0.0,0.0,0.0,0.0,0.0,0.0,0.0,0.0,0.0,0.0,0.0,0.0,0.0,0.0,0.0,0.0,0.0,0.0,0.0,0.0,0.0,0.0,0.0,0.0,0.0,0.0,0.0,0.0,0.0,-0.0101,-0.1509,0.0,0.0,0.0,0.0,-0.2821,-0.2995,-0.3469,-0.4367,-0.4408,-0.4809,-0.5643,-0.5653,-0.5722,-0.5864,-0.5905,-0.6083,-0.6397,-0.6437,-0.6515,-0.6654,-0.6654,-0.6654,-0.6654,-0.6654,-0.6654,-0.661,-0.5915,-0.5209,-0.4555,-0.5382,-0.4695,-0.3437,-0.5129,-0.5269,-0.4654,0.0,0.0,0.0,0.0,0.0,0.0,0.0,0.0,-0.4891,-0.5005,-0.5186,-0.533,-0.5388,-0.5395,-0.5395,-0.5395,-0.5395,-0.5395,-0.5395,-0.5395,-0.5395,-0.5395,-0.5395,-0.5395,-0.5395,-0.5395,-0.5226,-0.4891,-0.4891,-0.4462,-0.3678,-0.3678,-0.3228,-0.247,-0.2358,-0.1859,-0.1,-0.0305,0.0,0.0,0.0,0.0,0.0,0.0,0.0,0.0,0.0,0.0,0.0,0.0,0.0,0.0,0.0,0.0,0.0,0.0,0.0,0.0,0.0,0.0,0.0,0.0,0.0,0.0,0.0,0.0,0.0,0.0,0.0,0.0,0.0,0.0,0.0,0.0,0.0,0.0,0.0,0.0,0.0,-0.189,-0.2444,0.0,-0.2467,-0.3343,-0.3932,-0.3932,-0.4508,-0.5005,-0.5457,-0.5585,-0.5831,-0.623,-0.6329,-0.6407,-0.6461,-0.6461,-0.6515,-0.662,-0.662,-0.6647,-0.6702,-0.6702,-0.6702,-0.6702,-0.6702,-0.6702,-0.6685,-0.6468,-0.6162,-0.5793,-0.6015,-0.5657,-0.5055,-0.5688,-0.5666,-0.5362,0.0,0.0,0.0,0.0,0.0,0.0,0.0,0.0,-0.4938,-0.5079,-0.5267,-0.5395,-0.5395,-0.5395,-0.5395,-0.5395,-0.5395,-0.5395,-0.5395,-0.5395,-0.5395,-0.5395,-0.5395,-0.5395,-0.5395,-0.5446,-0.5474,-0.5474,-0.5521,-0.5246,-0.4737,-0.4737,-0.4318,-0.3553,-0.3491,-0.2935,-0.2051,-0.0975,-0.0343,0.0,0.0,0.0,0.0,0.0,0.0,0.0,0.0,0.0,0.0,0.0,0.0,0.0,0.0,0.0,0.0,0.0,0.0,0.0,0.0,0.0,0.0,0.0,0.0,0.0,0.0,0.0,0.0,0.0,0.0,0.0,0.0,0.0,0.0,0.0,0.0,0.0,0.0,0.0,-0.3156,-0.2996,-0.3499,-0.3807,-0.3585,-0.4494,-0.5095,-0.5095,-0.5744,-0.6149,-0.6251,-0.6352,-0.6494,-0.6546,-0.6647,-0.6725,-0.6776,-0.6824,-0.6875,-0.6929,-0.698,-0.7004,-0.7004,-0.7004,-0.7004,-0.7004,-0.7004,-0.7004,-0.7004,-0.7004,-0.6915,-0.6791,-0.6545,-0.6346,-0.6215,-0.6215,-0.6193,-0.6105,0.0,0.0,0.0,0.0,0.0,0.0,0.0,-0.4826,-0.4945,-0.5086,-0.527,-0.5395,-0.5395,-0.5395,-0.5395,-0.5395,-0.5395,-0.5428,-0.5428,-0.5428,-0.5428,-0.5428,-0.5428,-0.5395,-0.5402,-0.5549,-0.5593,-0.5596,-0.5735,-0.5803,-0.581,-0.581,-0.5372,-0.454,-0.4535,-0.4029,-0.309,-0.2108,-0.106,-0.0101,-0.0034,0.0,0.0,0.0,0.0,0.0,0.0,0.0,0.0,0.0,0.0,0.0,0.0,0.0,0.0,0.0,0.0,0.0,0.0,0.0,0.0,0.0,0.0,0.0,0.0,0.0,0.0,0.0,0.0,0.0,0.0,0.0,0.0,0.0,0.0,0.0,-0.307,-0.37,-0.3989,-0.3266,-0.4762,-0.5489,-0.4656,-0.5639,-0.6313,-0.6313,-0.6539,-0.6705,-0.6715,-0.6715,-0.6719,-0.6729,-0.6729,-0.68,-0.6906,-0.7041,-0.7231,-0.7426,-0.7572,-0.7647,-0.76,-0.7647,-0.7647,-0.76,-0.76,-0.76,-0.76,-0.76,-0.7512,-0.7381,-0.6892,-0.6715,-0.6709,-0.6709,-0.6705,-0.6702,0.0,0.0,0.0,0.0,0.0,0.0,0.0,-0.4948,-0.5096,-0.5277,-0.5368,-0.5395,-0.5395,-0.5395,-0.5395,-0.5395,-0.5395,-0.5653,-0.6301,-0.633,-0.633,-0.633,-0.5752,-0.5446,-0.5559,-0.5569,-0.564,-0.5742,-0.5783,-0.5857,-0.5929,-0.5929,-0.5912,-0.5784,-0.5638,-0.5106,-0.4244,-0.3871,-0.313,-0.2132,-0.0594,0.0,0.0,0.0,0.0,0.0,0.0,0.0,0.0,0.0,0.0,0.0,0.0,0.0,0.0,0.0,0.0,0.0,0.0,0.0,0.0,0.0,0.0,0.0,0.0,0.0,0.0,0.0,0.0,0.0,0.0,0.0,0.0,0.0,-0.5259,-0.4992,-0.3988,-0.4716,-0.5364,-0.5418,-0.5866,-0.614,-0.6109,-0.6408,-0.658,-0.658,-0.6654,-0.6793,-0.6964,-0.6974,-0.7122,-0.7346,-0.7353,-0.7373,-0.7414,-0.7455,-0.7495,-0.7536,-0.854,-0.8516,-0.7647,-0.8563,-0.8469,-0.76,-0.76,-0.76,-0.76,-0.76,-0.7577,-0.7512,-0.7278,-0.7054,-0.6865,-0.6865,-0.6797,-0.6702,0.0,0.0,0.0,0.0,0.0,0.0,0.0,-0.5009,-0.5186,-0.5375,-0.5395,-0.5395,-0.5395,-0.5395,-0.5395,-0.5395,-0.5719,-0.6174,-0.6654,-0.6687,-0.6527,-0.617,0.0,-0.5532,-0.5589,-0.5711,-0.5817,-0.5895,-0.5962,-0.6071,-0.6217,-0.6217,-0.6298,-0.6477,-0.6285,-0.5941,-0.5425,-0.4841,-0.4276,-0.3609,-0.1964,-0.1062,-0.0684,-0.0684,-0.0408,0.0,0.0,0.0,0.0,0.0,0.0,0.0,0.0,0.0,0.0,0.0,0.0,0.0,0.0,0.0,0.0,0.0,0.0,0.0,0.0,0.0,0.0,0.0,0.0,0.0,0.0,0.0,0.0,0.0,-0.5857,-0.5778,-0.518,-0.5604,-0.6108,-0.645,-0.6484,-0.6512,-0.6685,-0.6814,-0.6885,-0.6885,-0.7004,-0.7153,-0.7277,-0.7287,-0.7414,-0.7594,-0.76,-0.76,-0.76,-0.8219,-0.8532,-0.8532,-0.9867,-1.0143,-0.9442,-1.019,-1.0096,-0.9395,-0.9395,-0.9395,-0.9347,-0.8829,-0.8548,0.0,0.0,0.0,0.0,0.0,-0.7153,-0.7078,0.0,0.0,0.0,0.0,0.0,0.0,0.0,-0.5032,-0.5206,-0.5378,-0.5395,-0.5395,-0.5395,-0.5395,-0.5428,-0.5524,-0.6268,-0.6752,-0.685,-0.685,-0.6494,-0.5719,-0.5743,-0.5838,-0.5922,-0.6208,-0.6369,-0.6387,-0.6587,-0.6659,-0.6671,-0.6689,-0.6688,-0.6695,-0.6559,-0.6528,-0.6424,-0.5339,-0.4911,-0.4804,-0.386,-0.2793,-0.1754,-0.1748,-0.1172,-0.0338,-0.0303,-0.0303,-0.0303,-0.0303,0.0,0.0,0.0,0.0,0.0,0.0,0.0,0.0,0.0,0.0,0.0,0.0,0.0,0.0,0.0,0.0,0.0,0.0,0.0,0.0,0.0,0.0,0.0,0.0,-0.6149,-0.6358,-0.6371,-0.6388,-0.6491,-0.6698,-0.6742,-0.6756,-0.6773,-0.7027,-0.7146,-0.7146,-0.7444,-0.7651,-0.7856,0.0,0.0,0.0,0.0,-0.7939,-0.8142,-0.9415,-1.0123,-1.0149,-1.1536,-1.2168,-1.2021,-1.2168,-1.2119,-1.2021,-1.2021,-1.2021,-1.1923,-1.077,-1.0161,-0.9871,-0.8222,-0.76,-0.76,-0.76,-0.76,-0.76,0.0,0.0,0.0,0.0,0.0,0.0,0.0,-0.522,-0.5361,-0.5392,-0.5395,-0.5395,-0.5395,-0.5395,-0.5686,-0.6396,-0.6588,-0.7013,-0.7697,0.0,-0.767,-0.7507,-0.7046,-0.719,-0.7999,-0.8322,-0.8569,-0.8666,-0.8913,-0.8601,-0.7736,-0.7914,-0.7562,-0.6698,-0.6668,-0.6586,-0.6471,-0.6241,-0.6107,-0.5983,-0.5748,-0.4525,-0.2805,-0.2675,-0.2505,-0.2315,-0.223,-0.2178,-0.2178,-0.2178,-0.1676,-0.104,-0.104,0.0,0.0,0.0,0.0,0.0,0.0,0.0,0.0,0.0,0.0,0.0,0.0,0.0,0.0,0.0,0.0,0.0,0.0,0.0,0.0,-0.6211,-0.642,-0.6658,-0.6783,-0.6898,-0.6906,-0.6849,-0.6943,-0.7105,-0.7231,-0.7404,-0.7512,-0.7512,-0.7567,-0.8117,-0.9326,-0.8339,-0.8779,-1.0994,-1.0087,-1.016,-1.1446,-1.1737,-1.1989,-1.2264,0.0,0.0,-1.2679,-1.3741,-1.364,-1.2633,-1.2633,-1.2633,-1.2567,-1.2139,-1.1737,-1.1216,-0.8642,-0.76,-0.76,-0.76,-0.76,-0.76,0.0,0.0,0.0,0.0,0.0,0.0,0.0,-0.5553,-0.5557,-0.5976,-0.5686,-0.5557,-0.6009,-0.6042,-0.64,-0.7274,-0.7767,-0.7994,0.0,-0.842,-0.8253,-0.7372,-0.7677,-0.8096,-0.8589,-0.8994,-0.9222,-0.9296,-0.9446,-0.9296,-0.8943,-0.908,-0.8669,-0.7808,-0.772,-0.7303,-0.658,-0.6545,-0.6429,-0.63,-0.63,-0.5666,-0.4624,-0.4031,-0.3426,-0.2891,-0.2818,-0.2744,-0.2711,-0.2711,-0.2377,-0.2009,-0.2009,-0.2009,-0.2009,0.0,0.0,0.0,0.0,0.0,0.0,0.0,0.0,0.0,0.0,0.0,0.0,0.0,0.0,-0.5962,-0.6112,0.0,-0.6627,-0.7251,-0.7032,-0.7077,-0.7786,-0.7514,-0.7231,-0.716,-0.7282,-0.74,-0.7478,-0.8226,-0.8693,-0.8693,-0.9339,-1.0136,-1.1058,-1.0485,-1.0766,-1.2324,-1.1728,-1.1776,-1.2597,-1.3249,-1.3662,-1.3835,-1.5109,-1.5418,-1.4755,-1.5469,-1.5368,-1.4755,-1.4755,-1.4755,-1.4692,-1.3903,-1.3129,-1.2204,-1.0757,-1.0029,-0.9675,-0.906,-0.92,-0.9675,0.0,0.0,0.0,0.0,0.0,0.0,0.0,-0.599,-0.5914,-0.6621,-0.6075,-0.5914,-0.6621,-0.6687,-0.7111,-0.8156,-0.9037,-0.9166,0.0,-0.8909,-0.8678,-0.7274,-0.8284,-0.8974,-0.9149,-0.9616,-0.99,-0.99,-0.9943,-1.0043,-1.0119,-1.016,-0.9681,-0.8776,-0.8662,-0.7871,-0.6647,-0.6566,-0.6429,-0.63,-0.63,-0.63,-0.6205,-0.5287,-0.432,-0.3478,-0.3426,-0.3325,-0.3211,-0.3211,-0.3111,-0.2945,-0.2945,-0.2945,-0.2945,-0.2945,-0.358,0.0,0.0,0.0,0.0,0.0,0.0,0.0,0.0,0.0,-0.5881,-0.5969,-0.6037,-0.6263,-0.6741,-0.6878,-0.7282,-0.8308,-0.8024,-0.8001,-0.888,-0.8554,-0.823,-0.823,-0.812,-0.8015,-0.8015,-0.9335,-1.0263,-1.0303,-1.1376,-1.2255,-1.283,-1.2646,-1.2829,-1.3523,-1.3324,-1.3346,-1.365,-1.4724,-1.5314,-1.5362,-1.6354,-1.6874,-1.6874,-1.6874,-1.6874,-1.6874,-1.6874,-1.6847,-1.6737,-1.5701,-1.4593,-1.358,-1.358,-1.3245,-1.266,-1.109,-1.1166,-1.1864,0.0,0.0,0.0,0.0,0.0,0.0,0.0,0.0,-0.6588,-0.6687,-0.6621,-0.6588,-0.6687,-0.6687,-0.7372,-0.9011,-0.9945,0.0,-0.9204,-0.9236,-0.9204,-0.9011,-0.9586,-1.0274,-1.1073,-1.1667,-1.1966,-1.1966,-1.2257,-1.187,-1.0868,-1.1175,-1.0217,-0.8267,-0.8247,-0.7609,-0.6538,-0.6518,-0.6429,-0.63,-0.63,-0.63,-0.6282,-0.5975,-0.5702,-0.547,-0.5351,-0.5216,-0.509,-0.509,-0.4553,-0.3849,-0.3849,-0.3849,-0.3849,-0.3849,0.0,-0.5259,-0.5259,-0.5393,-0.5599,-0.5742,-0.5779,-0.5783,0.0,0.0,-0.5973,-0.599,-0.6237,-0.6748,-0.7811,-0.8242,-0.851,-0.8653,-0.9778,-1.0306,-0.9396,-1.0398,-1.1207,-1.1207,-1.0238,-0.9542,-0.9542,-1.0817,-1.1795,-1.2088,-1.2278,-1.2986,-1.4437,-1.3383,-1.3807,-1.6192,-1.516,-1.5275,-1.6671,-1.6831,-1.7066,-1.7272,-1.7429,-1.7482,-1.7482,-1.7482,-1.7482,-1.7482,-1.7482,-1.7341,-1.7152,-1.6992,-1.668,-1.6242,-1.6242,-1.6203,-1.5845,-1.3397,-1.241,-1.2343,0.0,0.0,0.0,0.0,0.0,0.0,0.0,0.0,0.0,-0.6687,-0.6687,-0.6687,-0.6687,-0.76,-0.871,-0.9945,-1.0396,0.0,-0.937,-0.9786,-0.9817,-0.9338,-1.0151,-1.0878,-1.1389,-1.1837,-1.2131,-1.2305,-1.2425,-1.2339,-1.2043,-1.2195,-1.1502,-1.011,-0.9457,-0.8501,-0.7338,-0.6748,-0.6429,-0.63,-0.63,-0.6245,-0.6118,-0.6016,-0.5884,-0.5671,-0.561,-0.5525,0.0,0.0,-0.5126,-0.4821,-0.4821,-0.4821,-0.4821,-0.4821,-0.509,0.0,-0.5504,-0.5599,-0.5749,0.0,-0.5899,-0.5959,-0.6047,-0.6602,-0.7091,-0.7231,-0.7869,-0.8396,-0.8459,-0.9165,-0.9771,0.0,-1.0647,-1.126,-1.1609,-1.1677,-1.1752,-1.1793,-1.2157,-1.2137,-1.1413,-1.2518,-1.3462,-1.3763,-1.4495,-1.5274,-1.6158,-1.5659,-1.5939,-1.7156,-1.6736,-1.6743,-1.7454,-1.7454,-1.7514,-1.7582,-1.7582,-1.7582,-1.7582,-1.7582,-1.7582,-1.7582,-1.7582,-1.7515,-1.7454,-1.7454,-1.7328,-1.7215,-1.7215,-1.7215,-1.6962,-1.4759,-1.4375,-1.4801,0.0,0.0,0.0,0.0,0.0,0.0,0.0,0.0,0.0,0.0,-0.7046,-0.6981,-0.6719,-0.8253,-0.9562,-1.0174,0.0,0.0,0.0,-1.0238,-1.0333,-0.969,-1.0503,-1.1089,-1.1303,-1.1597,-1.1891,-1.2184,-1.2184,-1.2331,-1.2663,-1.2663,-1.2037,-1.0841,-1.0079,-0.8925,-0.7466,-0.6767,-0.6368,-0.6235,-0.6235,-0.6105,-0.5925,-0.5922,-0.5776,-0.5589,-0.5589,-0.5525,0.0,0.0,-0.5395,-0.5395,-0.5395,-0.5557,-0.5752,-0.5752,-0.5981,-0.6228,-0.6139,0.0,0.0,-0.6458,-0.6502,-0.6606,-0.703,-0.7744,-0.8396,-0.8575,-0.9285,-0.9822,-0.9684,-1.0327,-1.1086,-1.1497,-1.1893,-1.2485,-1.3339,-1.3133,-1.2883,-1.3083,-1.4148,-1.4566,-1.3814,-1.4463,-1.5083,-1.5454,-1.6309,-1.6954,-1.7306,-1.732,-1.742,-1.7575,-1.7582,-1.7582,-1.7582,-1.7582,-1.7582,-1.7582,-1.7582,-1.7582,-1.7582,-1.7582,-1.7582,-1.7582,-1.7582,-1.7582,-1.7582,-1.7582,-1.7582,-1.7582,-1.7582,-1.7582,-1.7423,-1.6047,-1.6113,-1.6726,0.0,0.0,0.0,0.0,0.0,0.0,0.0,0.0,0.0,0.0,0.0,0.0,0.0,-0.8253,-0.9306,0.0,0.0,0.0,0.0,-1.0593,-1.0593,-1.0561,-1.0842,-1.0995,-1.1009,-1.1289,-1.1583,-1.1919,-1.1919,-1.2067,-1.2318,-1.2318,-1.1267,-0.9354,-0.9316,-0.8212,-0.6342,-0.6306,-0.6176,-0.6,-0.6,-0.5945,-0.5793,-0.5654,-0.5596,-0.5589,-0.5589,0.0,0.0,0.0,-0.5395,-0.5395,-0.5395,-0.5976,0.0,-0.6654,-0.7446,-0.8167,0.0,0.0,-0.7496,-0.7685,-0.7736,-0.8003,-0.8993,-0.9425,-0.9654,-0.9664,-1.004,-1.0721,-1.1786,-1.2115,-1.2361,-1.2668,-1.3932,-1.4592,-1.3805,-1.4826,-1.5782,-1.6122,-1.6217,-1.6444,0.0,-1.681,-1.6763,-1.7114,-1.7134,-1.7313,-1.7555,-1.7569,-1.7569,-1.7582,-1.7582,-1.7582,-1.7582,-1.7582,-1.7582,-1.7582,-1.7582,-1.7582,-1.7582,-1.7582,-1.7582,-1.7582,-1.7582,-1.7582,-1.7582,-1.7582,-1.7582,-1.7582,-1.7582,-1.7582,-1.7582,-1.7562,-1.7375,-1.7186,0.0,0.0,0.0,0.0,0.0,0.0,0.0,0.0,0.0,0.0,0.0,0.0,0.0,0.0,0.0,0.0,0.0,0.0,0.0,-1.0593,-1.0593,-1.0593,-1.0687,-1.0827,-1.0989,-1.1089,-1.1283,-1.1577,-1.1577,-1.1623,-1.1688,-1.1688,-1.133,-1.0645,-0.9391,-0.8454,-0.7734,-0.65,-0.5925,-0.5878,-0.5878,-0.5789,-0.5724,-0.6253,-0.6395,-0.6389,0.0,0.0,0.0,-0.692,-0.712,-0.712,-0.712,0.0,-0.7596,-0.7769,-0.8339,-0.8837,-0.8626,0.0,-0.8712,-0.8789,-0.8803,-0.8918,-0.9445,-1.0158,-1.0819,-1.1226,-1.1963,-1.2522,-1.257,-1.3089,-1.3466,-1.3423,-1.4282,-1.504,-1.5089,-1.5481,-1.5939,-1.6239,-1.644,0.0,0.0,0.0,0.0,-1.7415,-1.7494,-1.7475,-1.7582,-1.7582,-1.7582,-1.7582,-1.7582,-1.7582,-1.7582,-1.7582,-1.7582,-1.7582,-1.7582,-1.7582,-1.7582,-1.7582,-1.7582,-1.7582,-1.7582,-1.7582,-1.7582,-1.7582,-1.7582,-1.7582,-1.7582,-1.7582,-1.7582,-1.7582,-1.7522,-1.7494,0.0,0.0,0.0,0.0,0.0,0.0,0.0,0.0,0.0,0.0,0.0,0.0,0.0,0.0,0.0,0.0,0.0,0.0,0.0,0.0,-1.0593,-1.0593,-1.0593,-1.068,-1.0835,-1.0868,-1.0982,-1.1269,-1.1269,-1.1323,-1.1389,-1.1389,-1.1211,-1.0792,-0.9289,-0.8413,-0.796,-0.6437,-0.5947,-0.6209,-0.6209,-0.6287,-0.6511,-0.7075,-0.7224,0.0,0.0,0.0,0.0,-0.7929,-0.7994,-0.7994,-0.7994,-0.8278,-0.8717,-0.9293,-0.9764,-1.0033,-0.9789,-0.9776,-0.982,-0.982,-0.9927,-1.0105,-1.0684,-1.1453,-1.2169,-1.2562,-1.3261,-1.3658,-1.3318,-1.372,-1.412,-1.4143,-1.4624,-1.5209,-1.5698,-1.5784,-1.5979,-1.638,-1.6593,-1.686,0.0,0.0,0.0,-1.7569,-1.7582,-1.7582,-1.7582,-1.7582,-1.7582,-1.7582,-1.7582,-1.7582,-1.7582,-1.7582,-1.7582,-1.7582,-1.7582,-1.7582,-1.7582,-1.7582,-1.7582,-1.7582,-1.7582,-1.7582,-1.7582,-1.7582,-1.7582,-1.7582,-1.7582,-1.7582,-1.7582,-1.7582,-1.7582,-1.7582,0.0,0.0,0.0,0.0,0.0,0.0,0.0,0.0,0.0,0.0,0.0,0.0,0.0,0.0,0.0,0.0,0.0,0.0,0.0,0.0,0.0,-1.0593,-1.0593,-1.0593,-1.0593,-1.0593,-1.0727,-1.0969,-1.0969,-1.1109,-1.1349,-1.1349,-1.085,-0.9909,-0.9007,-0.8103,-0.7155,-0.6272,-0.6324,-0.6958,-0.6958,-0.7383,-0.7994,-0.8059,0.0,0.0,0.0,0.0,0.0,0.0,0.0,0.0,0.0,-0.8881,-0.9989,-1.107,-1.165,-1.1765,-1.1058,-1.0901,-1.0901,-1.0901,-1.1065,-1.1548,-1.2574,-1.322,-1.3606,-1.362,-1.3895,-1.4088,0.0,0.0,-1.4282,-1.4934,-1.5022,-1.5209,-1.5698,-1.5784,-1.5997,0.0,0.0,0.0,0.0,0.0,0.0,-1.7582,0.0,-1.7582,-1.7582,-1.7582,-1.7582,-1.7582,-1.7582,-1.7582,-1.7582,-1.7582,-1.7582,-1.7582,-1.7582,-1.7582,-1.7582,-1.7582,-1.7582,-1.7582,-1.7582,-1.7582,-1.7582,-1.7582,-1.7582,-1.7582,-1.7582,-1.7582,-1.7582,-1.7582,-1.7582,-1.7582,0.0,0.0,0.0,0.0,0.0,0.0,0.0,0.0,0.0,0.0,0.0,0.0,0.0,0.0,0.0,0.0,0.0,0.0,0.0,0.0,0.0,0.0,0.0,0.0,0.0,0.0,0.0,0.0,0.0,-1.074,-1.0814,-1.0814,-1.0678,-1.038,-0.9527,-0.8969,-0.8667,-0.7797,-0.7536,-0.7715,0.0,-0.7849,-0.8059,0.0,0.0,0.0,0.0,0.0,0.0,0.0,0.0,0.0,0.0,-1.0404,-1.1017,-1.13,-1.179,-1.2168,-1.1977,-1.1922,-1.1922,-1.1922,-1.2143,-1.2537,-1.3,-1.338,-1.3666,-1.3928,-1.4035,-1.4155,0.0,0.0,0.0,-1.5157,-1.5149,0.0,-1.5698,-1.5784,0.0,-1.6633,0.0,-1.6934,-1.7522,-1.7582,0.0,0.0,-1.7582,-1.7582,-1.7582,-1.7582,-1.7582,-1.7582,-1.7582,-1.7582,-1.7582,-1.7582,-1.7582,-1.7582,-1.7582,-1.7582,-1.7582,-1.7582,-1.7582,-1.7582,-1.7582,-1.7582,-1.7582,-1.7582,-1.7582,-1.7582,-1.7582,-1.7582,-1.7582,-1.7582,-1.7582,-1.7582,0.0,0.0,0.0,0.0,0.0,0.0,0.0,0.0,0.0,0.0,0.0,0.0,0.0,0.0,0.0,0.0,0.0,0.0,0.0,0.0,0.0,0.0,0.0,0.0,0.0,0.0,0.0,0.0,0.0,0.0,0.0,-1.0593,-1.0593,-1.0561,-0.969,-0.9306,-0.9236,-0.8382,0.0,0.0,0.0,0.0,0.0,0.0,0.0,0.0,0.0,0.0,0.0,0.0,0.0,-1.0593,-1.0593,-1.0955,-1.1389,-1.1389,0.0,-1.2305,-1.2305,-1.2305,-1.2305,-1.2305,-1.2563,-1.2864,-1.314,-1.3393,-1.3686,-1.4021,-1.4088,0.0,0.0,0.0,0.0,0.0,0.0,0.0,-1.5578,-1.5752,-1.5997,0.0,-1.6707,0.0,-1.7522,-1.7582,-1.7582,0.0,-1.7582,-1.7582,-1.7582,-1.7582,-1.7582,-1.7582,-1.7582,-1.7582,-1.7582,-1.7582,-1.7582,-1.7582,-1.7582,-1.7582,-1.7582,-1.7582,-1.7582,-1.7582,0.0,-1.7582,-1.7582,-1.7582,-1.7582,-1.7582,-1.7582,-1.7582,-1.7582,-1.7582,-1.7582,-1.7582,0.0,0.0,0.0,0.0,0.0,0.0,0.0,0.0,0.0,0.0,0.0,0.0,0.0,0.0,0.0,0.0,0.0,0.0,0.0,0.0,0.0,0.0,0.0,0.0,0.0,0.0,0.0,0.0,0.0,0.0,0.0,0.0,0.0,0.0,0.0,0.0,0.0,0.0,0.0,0.0,0.0,0.0,0.0,0.0,0.0,0.0,0.0,0.0,0.0,0.0,-1.0593,-1.06,-1.064,-1.0989,-1.1395,-1.1435,-1.187,-1.2305,-1.2305,-1.2305,-1.2305,-1.2305,-1.2563,-1.2857,-1.3086,-1.3333,-1.362,-1.3921,0.0,-1.3981,-1.4021,-1.4028,-1.4135,-1.4469,0.0,-1.5109,-1.5357,-1.5645,-1.5997,-1.6633,-1.6707,-1.6934,-1.7522,-1.7582,-1.7582,-1.7582,-1.7582,-1.7582,-1.7582,-1.7582,-1.7582,-1.7582,-1.7582,-1.7582,-1.7582,-1.7582,-1.7582,-1.7582,-1.7582,-1.7582,-1.7582,-1.7582,-1.7582,-1.7582,-1.7582,-1.7582,-1.7582,-1.7582,-1.7582,-1.7582,-1.7582,-1.7582,-1.7582,-1.7582,-1.7582,-1.7582,0.0,0.0,0.0,0.0,0.0,0.0,0.0,0.0,0.0,0.0,-0.64,-0.6883,0.0,0.0,0.0,0.0,0.0,0.0,0.0,0.0,0.0,0.0,0.0,0.0,0.0,0.0,0.0,0.0,0.0,0.0,0.0,0.0,0.0,0.0,0.0,0.0,0.0,0.0,0.0,0.0,0.0,0.0,0.0,0.0,0.0,0.0,0.0,0.0,0.0,0.0,-1.0593,-1.0633,-1.0874,-1.1149,-1.1435,-1.1724,-1.2031,-1.2305,-1.2305,-1.2305,-1.2305,-1.2305,-1.2563,-1.2797,-1.2851,-1.3066,0.0,0.0,-1.3367,-1.3434,-1.364,-1.368,-1.3853,-1.4386,0.0,0.0,0.0,0.0,-1.5997,0.0,0.0,0.0,0.0,0.0,0.0,0.0,-1.7582,-1.7582,-1.7582,-1.7582,-1.7582,-1.7582,-1.7582,-1.7582,-1.7582,-1.7582,-1.7582,-1.7582,-1.7582,-1.7582,-1.7582,-1.7582,-1.7582,-1.7582,-1.7582,0.0,-1.7582,-1.7582,-1.7582,-1.7582,-1.7582,-1.7582,-1.7582,-1.7582,-1.7582,-1.7582,0.0,0.0,0.0,0.0,0.0,0.0,0.0,-0.5395,-0.5395,-0.5395,-0.5752,-0.6009,-0.6009,-0.6429,-0.6527,0.0,0.0,0.0,0.0,0.0,0.0,0.0,0.0,0.0,0.0,0.0,0.0,0.0,0.0,0.0,0.0,0.0,0.0,0.0,0.0,0.0,0.0,0.0,0.0,0.0,0.0,0.0,0.0,0.0,0.0,0.0,0.0,0.0,0.0,0.0,-1.0593,-1.064,-1.0935,-1.1189,-1.1483,-1.1819,-1.2078,-1.2305,-1.2305,-1.2305,-1.2305,-1.2305,-1.2412,-1.2596,-1.275,0.0,0.0,0.0,-1.3213,-1.326,-1.3547,0.0,0.0,0.0,0.0,0.0,0.0,0.0,0.0,0.0,0.0,0.0,0.0,0.0,0.0,0.0,-1.7582,-1.7582,-1.7582,-1.7582,-1.7582,-1.7582,-1.7582,-1.7582,-1.7582,-1.7582,-1.7582,-1.7582,-1.7582,-1.7582,-1.7582,-1.7582,-1.7582,-1.7582,-1.7582,-1.7582,-1.7582,-1.7582,-1.7582,-1.7582,-1.7582,-1.7582,-1.7582,-1.7582,-1.7582,-1.7582,0.0,0.0,0.0,0.0,0.0,0.0,0.0,-0.5395,-0.5395,-0.5395,-0.5395,-0.5395,-0.5395,-0.6009,-0.6137,0.0,0.0,0.0,0.0,0.0,0.0,0.0,0.0,0.0,0.0,0.0,0.0,0.0,0.0,0.0,0.0,0.0,0.0,0.0,0.0,0.0,0.0,0.0,0.0,0.0,0.0,0.0,0.0,0.0,0.0,0.0,0.0,0.0,0.0,0.0,-1.0593,-1.0653,-1.0975,-1.1243,-1.1496,-1.1857,-1.2124,-1.2305,-1.2305,-1.2305,-1.2305,-1.2305,-1.2305,-1.2365,-1.2636,-1.269,0.0,0.0,-1.3013,-1.3126,-1.3447,0.0,0.0,0.0,0.0,0.0,0.0,0.0,0.0,0.0,0.0,0.0,0.0,0.0,0.0,0.0,-1.7582,-1.7582,-1.7582,-1.7582,-1.7582,-1.7582,-1.7582,-1.7582,-1.7582,-1.7582,-1.7582,-1.7582,-1.7582,-1.7582,-1.7582,-1.7582,-1.7582,-1.7582,-1.7582,-1.7582,-1.7582,-1.7582,-1.7582,-1.7582,-1.7582,-1.7582,-1.7582,-1.7582,-1.7582,-1.7582,0.0,0.0,0.0,0.0,0.0,0.0,0.0,-0.5395,-0.5395,-0.5395,-0.5395,-0.5395,-0.5395,-0.5458,-0.5491,0.0,0.0,0.0,0.0,0.0,0.0,0.0,0.0,0.0,0.0,0.0,0.0,0.0,0.0,0.0,0.0,0.0,0.0,0.0,0.0,0.0,0.0,0.0,0.0,0.0,0.0,0.0,0.0,0.0,0.0,0.0,0.0,0.0,0.0,0.0,0.0,-1.0687,-1.1209,-1.1369,-1.1502,-1.2098,0.0,0.0,-1.2305,-1.2305,-1.2305,-1.2305,-1.2305,-1.2311,-1.2338,0.0,0.0,-1.2378,-1.2385,-1.2565,-1.3146,-1.3253,0.0,0.0,0.0,0.0,0.0,0.0,0.0,0.0,0.0,0.0,0.0,0.0,0.0,-1.7582,-1.7582,-1.7582,-1.7582,-1.7582,-1.7582,-1.7582,-1.7582,-1.7582,-1.7582,-1.7582,-1.7582,-1.7582,-1.7582,-1.7582,-1.7582,-1.7582,-1.7582,-1.7582,-1.7582,-1.7582,0.0,-1.7582,-1.7582,-1.7582,-1.7582,-1.7582,-1.7582,-1.7582,-1.7582,-1.7582,0.0,0.0,0.0,0.0,0.0,0.0,-0.5395,-0.5395,-0.5395,-0.5395,-0.5395,-0.5395,-0.5395,-0.5395,-0.5395,-0.5395,0.0,0.0,0.0,0.0,0.0,0.0,0.0,0.0,0.0,0.0,0.0,0.0,0.0,0.0,0.0,0.0,0.0,0.0,0.0,0.0,0.0,0.0,0.0,0.0,0.0,0.0,0.0,0.0,0.0,0.0,0.0,0.0,0.0,0.0,0.0,0.0,-1.1243,-1.1389,0.0,0.0,-1.2305,-1.2305,-1.2305,-1.2305,-1.2305,-1.2305,-1.2305,-1.2305,-1.2305,0.0,-1.2305,-1.2305,-1.2305,-1.2485,-1.31,-1.3213,-1.3407,0.0,0.0,0.0,0.0,0.0,0.0,0.0,0.0,0.0,0.0,0.0,0.0,-1.7582,-1.7582,-1.7582,-1.7582,-1.7582,-1.7582,-1.7582,-1.7582,-1.7582,-1.7582,-1.7582,-1.7582,-1.7582,-1.7582,-1.7582,-1.7582,-1.7582,-1.7582,-1.7582,-1.7582,-1.7582,0.0,-1.7582,-1.7582,-1.7582,-1.7582,-1.7582,-1.7582,-1.7582,-1.7582,-1.7582,0.0,0.0,0.0,0.0,0.0,-0.5395,-0.5395,-0.5395,-0.5395,-0.5395,-0.5395,-0.5395,-0.5395,-0.5395,-0.5395,-0.5395,-0.5395,0.0,0.0,0.0,0.0,0.0,0.0,0.0,0.0,0.0,0.0,0.0,0.0,0.0,0.0,0.0,0.0,0.0,0.0,0.0,0.0,0.0,0.0,0.0,0.0,0.0,0.0,0.0,0.0,0.0,0.0,0.0,0.0,0.0,0.0,0.0,0.0,0.0,0.0,0.0,-1.2305,-1.2305,-1.2305,-1.2305,-1.2305,-1.2305,-1.2305,-1.2305,0.0,0.0,-1.2305,-1.2305,-1.2305,-1.2485,-1.31,-1.3213,-1.3407,0.0,0.0,0.0,0.0,0.0,0.0,0.0,0.0,0.0,0.0,0.0,-1.7582,-1.7582,-1.7582,-1.7582,-1.7582,-1.7582,-1.7582,-1.7582,-1.7582,-1.7582,-1.7582,-1.7582,-1.7582,-1.7582,-1.7582,-1.7582,-1.7582,-1.7582,-1.7582,-1.7582,-1.7582,-1.7582,0.0,-1.7582,-1.7582,-1.7582,-1.7582,-1.7582,-1.7582,-1.7582,-1.7582,-1.7582,0.0,0.0,0.0,0.0,0.0,0.0,-0.5395,-0.5395,-0.5395,-0.5395,-0.5395,-0.5395,-0.5395,-0.5395,-0.5395,-0.5395,-0.5395,0.0,0.0,0.0,0.0,0.0,0.0,0.0,0.0,0.0,0.0,0.0,0.0,0.0,0.0,0.0,0.0,0.0,0.0,0.0,0.0,0.0,0.0,0.0,0.0,0.0,0.0,0.0,0.0,0.0,0.0,0.0,0.0,0.0,0.0,0.0,0.0,0.0,0.0,0.0,-1.2305,-1.2305,-1.2305,-1.2305,-1.2305,-1.2305,-1.2305,-1.2305,0.0,0.0,-1.2305,-1.2305,-1.2305,-1.2485,-1.31,-1.3213,-1.3407,-1.3995,0.0,0.0,0.0,0.0,0.0,0.0,0.0,0.0,0.0,0.0,-1.7582,-1.7582,-1.7582,0.0,-1.7582,-1.7582,-1.7582,-1.7582,-1.7582,-1.7582,-1.7582,-1.7582,-1.7582,-1.7582,-1.7582,-1.7582,-1.7582,-1.7582,-1.7582,-1.7582,-1.7582,-1.7582,0.0,-1.7582,-1.7582,-1.7582,-1.7582,-1.7582,-1.7582,-1.7582,-1.7582,-1.7582,0.0,0.0,0.0,0.0,0.0,0.0,0.0,-0.5395,-0.5395,-0.5395,-0.5395,-0.5395,-0.5395,-0.5395,-0.5395,-0.5395,-0.5395,0.0,0.0,0.0,0.0,0.0,0.0,0.0,0.0,0.0,0.0,-0.5395,-0.5395,0.0,0.0,0.0,0.0,0.0,0.0,0.0,0.0,0.0,0.0,0.0,0.0,0.0,0.0,0.0,0.0,0.0,0.0,0.0,0.0,0.0,0.0,0.0,0.0,0.0,0.0,-1.2131,-1.2305,-1.2305,-1.2305,-1.2305,-1.2305,-1.2305,-1.2305,-1.2305,-1.2305,0.0,-1.2305,-1.2305,-1.2305,-1.2485,-1.31,-1.3213,-1.3407,-1.3995,-1.4088,0.0,0.0,0.0,0.0,0.0,0.0,0.0,0.0,0.0,-1.7582,-1.7582,-1.7582,-1.7582,-1.7582,-1.7582,-1.7582,-1.7582,-1.7582,-1.7582,-1.7582,-1.7582,-1.7582,-1.7582,-1.7582,-1.7582,-1.7582,-1.7582,-1.7582,-1.7582,-1.7582,-1.7582,-1.7582,-1.7582,-1.7582,-1.7582,-1.7582,-1.7582,-1.7582,-1.7582,-1.7582,-1.7582,0.0,0.0,0.0,0.0,0.0,0.0,0.0,-0.5395,-0.5395,-0.5395,-0.5395,-0.5395,-0.5395,-0.5395,-0.5395,-0.5395,-0.5395,0.0,0.0,0.0,0.0,0.0,0.0,0.0,0.0,-0.5395,-0.5395,-0.5395,-0.5395,-0.5395,-0.5395,-0.5395,0.0,0.0,0.0,0.0,0.0,0.0,0.0,0.0,0.0,0.0,-0.8748,0.0,0.0,0.0,0.0,0.0,0.0,0.0,0.0,0.0,0.0,0.0,0.0,0.0,-1.2305,-1.2305,0.0,-1.2305,-1.2305,-1.2305,-1.2305,0.0,0.0,0.0,-1.2305,-1.2305,-1.2305,-1.2452,-1.2946,-1.3133,-1.3367,-1.3841,-1.4015,0.0,0.0,0.0,0.0,0.0,0.0,0.0,0.0,-1.7582,-1.7582,-1.7582,-1.7582,-1.7582,-1.7582,-1.7582,-1.7582,-1.7582,-1.7582,-1.7582,-1.7582,-1.7582,-1.7582,-1.7582,-1.7582,-1.7582,-1.7582,-1.7582,-1.7582,-1.7582,-1.7582,-1.7582,0.0,-1.7582,-1.7582,-1.7582,-1.7582,-1.7582,-1.7582,-1.7582,-1.7582,-1.7582,0.0,0.0,0.0,0.0,0.0,0.0,0.0,-0.5395,-0.5395,-0.5395,-0.5395,-0.5395,-0.5395,-0.5395,-0.5395,-0.5395,0.0,0.0,0.0,0.0,0.0,0.0,0.0,0.0,0.0,-0.5395,-0.5395,-0.5395,-0.5395,-0.5395,-0.5395,-0.5395,-0.5395,0.0,0.0,0.0,0.0,0.0,0.0,0.0,-0.7474,-0.7864,0.0,0.0,0.0,0.0,0.0,0.0,0.0,0.0,0.0,0.0,0.0,0.0,0.0,0.0,0.0,0.0,0.0,-1.2305,-1.2305,-1.2305,-1.2305,-1.2305,0.0,0.0,0.0,0.0,-1.2305,-1.2392,-1.273,-1.3038,-1.3307,-1.3553,-1.3895,0.0,0.0,0.0,0.0,0.0,0.0,0.0,-1.7522,-1.7582,-1.7582,-1.7582,-1.7582,-1.7582,-1.7582,-1.7582,-1.7582,-1.7582,-1.7582,-1.7582,-1.7582,-1.7582,-1.7582,-1.7582,-1.7582,-1.7582,-1.7582,-1.7582,-1.7582,0.0,-1.7582,-1.7582,0.0,-1.7582,-1.7582,-1.7582,-1.7582,-1.7582,-1.7582,-1.7582,-1.7582,-1.7582,0.0,0.0,0.0,0.0,0.0,0.0,0.0,0.0,0.0,0.0,-0.5395,-0.5395,-0.5395,-0.5395,-0.5395,0.0,0.0,0.0,0.0,0.0,0.0,0.0,0.0,0.0,0.0,-0.5395,-0.5395,-0.5395,-0.5395,-0.5395,-0.5395,-0.5395,-0.5395,-0.5395,-0.5395,0.0,0.0,0.0,0.0,0.0,-0.5914,-0.64,0.0,0.0,0.0,0.0,-0.7013,-0.7013,0.0,0.0,0.0,0.0,0.0,0.0,0.0,0.0,-1.2305,-1.2305,-1.2305,0.0,-1.2305,-1.2305,-1.2305,-1.2305,0.0,0.0,0.0,0.0,0.0,-1.2392,-1.273,-1.3038,-1.3307,-1.3553,-1.3895,-1.4289,0.0,0.0,0.0,0.0,0.0,-1.6934,-1.7522,-1.7582,-1.7582,-1.7582,-1.7582,-1.7582,-1.7582,-1.7582,-1.7582,-1.7582,-1.7582,-1.7582,-1.7582,-1.7582,-1.7582,-1.7582,-1.7582,-1.7582,-1.7582,-1.7582,-1.7582,-1.7582,-1.7582,-1.7582,-1.7582,-1.7582,-1.7582,-1.7582,-1.7582,-1.7582,-1.7582,-1.7582,-1.7582,-1.7582,0.0,0.0,0.0,0.0,0.0,0.0,0.0,0.0,0.0,0.0,0.0,0.0,0.0,0.0,0.0,0.0,0.0,0.0,0.0,0.0,0.0,0.0,0.0,0.0,-0.5395,-0.5395,-0.5395,-0.5395,-0.5395,-0.5395,-0.5395,-0.5395,-0.5395,-0.5395,-0.5395,0.0,0.0,0.0,0.0,0.0,-0.5395,0.0,0.0,0.0,0.0,0.0,-0.6108,-0.6108,0.0,-0.7116,-0.7941,-0.8777,0.0,0.0,0.0,0.0,-1.2305,-1.2305,-1.2305,-1.2305,-1.2305,-1.2305,-1.2305,-1.2305,-1.2305,0.0,0.0,0.0,0.0,0.0,-1.2549,-1.2906,0.0,-1.338,-1.3915,0.0,0.0,0.0,0.0,0.0,0.0,-1.7088,0.0,-1.7582,-1.7582,-1.7582,-1.7582,-1.7582,-1.7582,-1.7582,-1.7582,-1.7582,-1.7582,-1.7582,-1.7582,-1.7582,-1.7582,-1.7582,-1.7582,-1.7582,-1.7582,-1.7582,-1.7582,-1.7582,-1.7582,-1.7582,-1.7582,-1.7582,-1.7582,-1.7582,-1.7582,-1.7582,-1.7582,-1.7582,-1.7582,-1.7582,0.0,0.0,0.0,0.0,0.0,0.0,0.0,0.0,0.0,0.0,0.0,0.0,0.0,0.0,0.0,0.0,0.0,0.0,0.0,0.0,0.0,0.0,0.0,-0.5395,-0.5395,-0.5395,-0.5395,-0.5395,-0.5395,-0.5395,-0.5395,-0.5395,-0.5395,-0.5395,-0.5395,0.0,0.0,0.0,0.0,0.0,-0.5395,0.0,0.0,0.0,0.0,0.0,0.0,0.0,0.0,-0.6267,-0.686,-0.7566,-0.9192,0.0,0.0,0.0,0.0,0.0,-1.2033,-1.207,-1.2114,-1.2261,-1.2305,-1.2305,-1.2305,0.0,0.0,0.0,0.0,0.0,0.0,0.0,0.0,0.0,0.0,0.0,0.0,0.0,0.0,0.0,0.0,0.0,-1.7549,-1.7582,-1.7582,-1.7582,-1.7582,-1.7582,-1.7582,-1.7582,-1.7582,-1.7582,-1.7582,-1.7582,-1.7582,-1.7582,-1.7582,-1.7582,-1.7582,-1.7582,-1.7582,-1.7582,-1.7582,-1.7582,0.0,0.0,-1.7582,-1.7582,-1.7582,-1.7582,-1.7582,-1.7582,-1.7582,-1.7582,-1.7582,-1.7582,0.0,0.0,0.0,0.0,0.0,0.0,0.0,0.0,0.0,0.0,0.0,0.0,0.0,0.0,0.0,0.0,0.0,0.0,0.0,0.0,0.0,0.0,-0.5395,-0.5395,-0.5395,-0.5395,-0.5395,-0.5395,-0.5395,-0.5395,-0.5395,-0.5395,-0.5395,-0.5395,-0.5395,-0.5395,-0.5395,0.0,0.0,-0.5395,-0.5395,0.0,0.0,0.0,0.0,0.0,0.0,0.0,0.0,-0.5678,-0.6456,-0.738,-0.7761,0.0,0.0,0.0,0.0,0.0,-1.0789,-1.1013,-1.1236,-1.2077,-1.2305,-1.2305,0.0,0.0,0.0,0.0,0.0,0.0,0.0,0.0,0.0,0.0,0.0,0.0,0.0,0.0,0.0,0.0,0.0,-1.6987,-1.7528,-1.7582,-1.7582,-1.7582,-1.7582,-1.7582,-1.7582,-1.7582,-1.7582,-1.7582,-1.7582,-1.7582,-1.7582,-1.7582,-1.7582,-1.7582,-1.7582,-1.7582,-1.7582,-1.7582,-1.7582,-1.7582,0.0,-1.7582,-1.7582,-1.7582,-1.7582,-1.7582,-1.7582,-1.7582,-1.7582,-1.7582,-1.7582,-1.7582,0.0,0.0,0.0,0.0,0.0,0.0,0.0,0.0,0.0,0.0,0.0,0.0,0.0,0.0,0.0,0.0,0.0,0.0,0.0,0.0,0.0,-0.5395,-0.5395,-0.5395,-0.5395,-0.5395,-0.5395,-0.5395,-0.5395,-0.5395,-0.5395,-0.5395,-0.5395,-0.5395,-0.5395,-0.5395,-0.5395,0.0,-0.5395,-0.5395,0.0,0.0,0.0,0.0,0.0,0.0,0.0,0.0,0.0,0.0,-0.6054,-0.6693,-0.7323,0.0,0.0,0.0,0.0,0.0,-0.9857,-1.0378,-1.0901,-1.1354,-1.1885,-1.2305,0.0,0.0,0.0,0.0,0.0,0.0,0.0,0.0,0.0,0.0,0.0,0.0,0.0,-1.5885,-1.6226,0.0,0.0,-1.7166,-1.7542,-1.7582,-1.7582,-1.7582,-1.7582,-1.7582,-1.7582,-1.7582,-1.7582,-1.7582,-1.7582,-1.7582,-1.7582,-1.7582,-1.7582,-1.7582,-1.7582,-1.7582,-1.7582,-1.7582,-1.7582,-1.7582,0.0,-1.7582,-1.7582,-1.7582,-1.7582,-1.7582,-1.7582,-1.7582,-1.7582,-1.7582,-1.7582,-1.7582,0.0,0.0,0.0,0.0,0.0,0.0,0.0,0.0,0.0,0.0,0.0,0.0,0.0,0.0,0.0,0.0,0.0,0.0,0.0,0.0,-0.5395,-0.5395,-0.5395,-0.5395,-0.5395,-0.5395,-0.5395,-0.5395,-0.5395,-0.5395,-0.5395,-0.5395,-0.5395,-0.5395,-0.5395,-0.5395,-0.5395,-0.5395,-0.5395,-0.5395,0.0,0.0,0.0,0.0,0.0,0.0,0.0,0.0,0.0,0.0,0.0,0.0,0.0,0.0,0.0,-0.8389,-0.858,-0.8651,-0.8879,-0.9518,-1.0147,-1.0372,0.0,0.0,-1.2305,0.0,0.0,0.0,0.0,0.0,0.0,0.0,0.0,0.0,0.0,-1.5244,-1.5711,-1.6025,-1.6306,-1.666,-1.6907,-1.7239,-1.7549,-1.7582,-1.7582,-1.7582,-1.7582,-1.7582,-1.7582,-1.7582,-1.7582,-1.7582,-1.7582,-1.7582,-1.7582,-1.7582,-1.7582,-1.7582,-1.7582,-1.7582,-1.7582,-1.7582,-1.7582,-1.7582,-1.7582,-1.7582,-1.7582,-1.7582,-1.7582,-1.7582,-1.7582,-1.7786,-1.8048,-1.774,-1.7786,-1.8042,0.0,0.0,0.0,0.0,0.0,0.0,0.0,0.0,0.0,0.0,0.0,0.0,0.0,0.0,0.0,0.0,0.0,0.0,0.0,0.0,-0.5395,-0.5395,-0.5395,-0.5395,-0.5395,-0.5395,-0.5395,-0.5395,-0.5395,-0.5395,-0.5395,-0.5395,-0.5395,-0.5395,-0.5395,-0.5395,-0.5395,-0.5395,-0.5395,-0.5395,-0.5395,0.0,0.0,0.0,0.0,0.0,0.0,0.0,0.0,0.0,0.0,0.0,0.0,0.0,-0.6416,-0.649,-0.6528,-0.6718,-0.7668,-0.797,-0.8237,-0.9183,0.0,0.0,-1.2305,0.0,0.0,0.0,0.0,0.0,0.0,0.0,0.0,0.0,0.0,-1.5471,-1.5738,0.0,-1.6072,-1.664,-1.6727,-1.6961,-1.7528,-1.7582,-1.7582,-1.7582,-1.7582,-1.7582,-1.7582,-1.7582,-1.7582,-1.7582,-1.7582,-1.7582,-1.7582,-1.7582,-1.7582,-1.7582,-1.7582,-1.7582,-1.7582,-1.7582,-1.7582,-1.7582,-1.7582,-1.7582,-1.7582,-1.7582,-1.7582,-1.7582,-1.7582,-1.8349,-1.9324,-1.8042,-1.8401,-1.9272,0.0,0.0,0.0,0.0,0.0,0.0,0.0,0.0,0.0,0.0,0.0,0.0,0.0,0.0,0.0,0.0,0.0,0.0,0.0,0.0,-0.4788,-0.5362,-0.5395,-0.5395,-0.5395,-0.5395,-0.5395,-0.5395,-0.5395,-0.5395,-0.5395,-0.5395,-0.5395,-0.5395,-0.5395,-0.5395,-0.5395,-0.5395,-0.5395,-0.5395,-0.5395,-0.545,0.0,0.0,0.0,0.0,0.0,0.0,0.0,0.0,-0.6095,-0.6183,0.0,-0.63,-0.63,-0.63,-0.63,-0.6377,-0.6756,-0.7783,-0.8694,-0.8428,0.0,0.0,0.0,0.0,0.0,0.0,0.0,0.0,0.0,0.0,0.0,0.0,-1.5324,-1.5498,-1.5744,-1.5784,-1.5997,-1.6633,-1.6707,-1.6934,-1.7522,-1.7582,-1.7582,-1.7582,-1.7582,-1.7582,-1.7582,-1.7582,-1.7582,-1.7582,-1.7582,-1.7582,-1.7582,-1.7582,-1.7582,-1.7582,-1.7582,-1.7582,-1.7582,-1.7582,-1.7582,-1.7582,-1.7582,-1.7582,-1.7582,-1.7582,-1.7582,-1.7582,-1.7582,-1.8401,-1.942,-1.8094,-1.8454,-1.9524,0.0,0.0,0.0,0.0,0.0,0.0,0.0,0.0,0.0,0.0,0.0,0.0,0.0,0.0,0.0,0.0,0.0,0.0,0.0,-0.3846,-0.4417,-0.5359,-0.5395,-0.5259,-0.4957,-0.4957,-0.509,-0.5395,-0.5395,-0.5395,-0.5395,-0.5395,-0.5395,-0.5395,-0.5395,-0.5395,-0.5399,-0.5446,-0.5467,-0.547,-0.5518,-0.5597,0.0,0.0,0.0,0.0,0.0,0.0,0.0,0.0,-0.6173,0.0,0.0,0.0,-0.63,-0.63,-0.6528,-0.6756,-0.6756,-0.7783,-0.8732,0.0,0.0,0.0,0.0,0.0,0.0,0.0,0.0,0.0,0.0,0.0,0.0,0.0,-1.5471,-1.5605,-1.5751,-1.5784,-1.5997,-1.6633,-1.6707,-1.6934,-1.7522,-1.7582,-1.7582,-1.7582,-1.7582,-1.7582,-1.7582,-1.7582,-1.7582,-1.7582,-1.7582,-1.7582,-1.7582,-1.7582,-1.7582,-1.7582,-1.7582,-1.7582,-1.7582,-1.7582,-1.7582,-1.7582,-1.7582,-1.7582,-1.7582,-1.7582,-1.7838,-1.8251,-1.8251,-1.9317,-2.0743,-1.9369,-1.9723,-2.0845,0.0,0.0,0.0,0.0,0.0,0.0,0.0,0.0,0.0,0.0,0.0,0.0,0.0,0.0,0.0,0.0,0.0,0.0,-0.2644,-0.3513,-0.4417,-0.5359,-0.5395,-0.4957,-0.4015,-0.4015,-0.4453,-0.5395,-0.5395,-0.5395,-0.5395,-0.5395,-0.5395,-0.5395,-0.5395,-0.5395,-0.5405,-0.5562,-0.5593,-0.5603,-0.5745,-0.58,-0.5803,0.0,0.0,0.0,0.0,0.0,0.0,0.0,-0.63,-0.63,0.0,0.0,0.0,-0.63,-0.7022,-0.7783,-0.7783,-0.7783,0.0,0.0,0.0,0.0,0.0,0.0,0.0,0.0,0.0,0.0,0.0,0.0,0.0,-1.5398,-1.5645,-1.5784,-1.5784,-1.5784,-1.5997,-1.6633,-1.6707,-1.6934,-1.7522,-1.7582,-1.7582,-1.7582,-1.7582,-1.7582,-1.7582,-1.7582,-1.7582,-1.7582,-1.7582,-1.7582,-1.7582,-1.7582,-1.7582,-1.7582,-1.7582,-1.7582,-1.7582,-1.7582,-1.7582,-1.7582,-1.7582,-1.7582,-1.7582,-1.7635,-1.8401,-1.9627,-1.9627,-2.1304,-2.3534,-2.2206,-2.2567,-2.3484,0.0,0.0,0.0,0.0,0.0,0.0,0.0,0.0,0.0,0.0,0.0,0.0,0.0,0.0,0.0,0.0,0.0,0.0,-0.2644,-0.3513,-0.4417,-0.5359,-0.4755,-0.4284,-0.4015,-0.4015,-0.4148,-0.4417,-0.509,-0.5395,-0.5395,-0.5395,-0.5395,-0.5399,-0.5508,-0.5556,-0.5532,-0.5677,-0.5739,-0.5742,-0.5783,-0.5867,-0.5925,0.0,0.0,0.0,0.0,0.0,0.0,0.0,0.0,0.0,0.0,0.0,0.0,-0.63,-0.6528,-0.6756,-0.6756,-0.7783,0.0,0.0,0.0,0.0,0.0,0.0,0.0,0.0,0.0,0.0,0.0,0.0,0.0,-1.5665,-1.5772,-1.5784,-1.5784,-1.5784,-1.5997,-1.6633,-1.6707,-1.6934,-1.7522,-1.7582,-1.7582,-1.7582,-1.7582,-1.7582,-1.7582,-1.7582,-1.7582,-1.7582,-1.7582,-1.7582,-1.7582,-1.7582,-1.7582,-1.7582,-1.7582,-1.7582,-1.7582,-1.7582,-1.7582,-1.7582,-1.7582,-1.7582,-1.7687,-1.8603,-1.9826,-2.1092,-2.1092,-2.2165,-2.3534,-2.2206,-2.2567,-2.3642,0.0,0.0,0.0,0.0,0.0,0.0,0.0,0.0,0.0,0.0,0.0,0.0,0.0,0.0,0.0,0.0,0.0,0.0,-0.2644,-0.3513,-0.4251,-0.4821,-0.4317,-0.3846,-0.348,-0.348,-0.3647,-0.4015,-0.4954,-0.5395,-0.5395,-0.5395,-0.5426,-0.5491,0.0,-0.5623,-0.5684,-0.583,-0.5891,-0.5898,-0.5959,-0.604,-0.6122,0.0,0.0,0.0,0.0,0.0,0.0,0.0,0.0,0.0,0.0,0.0,0.0,-0.63,-0.6567,-0.6911,-0.6911,0.0,0.0,0.0,0.0,0.0,0.0,0.0,0.0,0.0,0.0,0.0,0.0,0.0,0.0,-1.5751,-1.5784,-1.5784,-1.5784,-1.5784,-1.5957,-1.648,-1.6533,-1.6767,-1.7407,-1.746,-1.7514,-1.7575,-1.7582,-1.7582,-1.7582,-1.7582,-1.7582,-1.7582,-1.7582,-1.7582,-1.7582,-1.7582,-1.7582,-1.7582,-1.7582,-1.7582,-1.7582,-1.7582,-1.7582,-1.7582,-1.7582,-1.7891,-1.8454,-1.9272,-2.0743,-2.2508,-2.2508,-2.3326,-2.4402,-2.3583,-2.3791,-2.4501,0.0,0.0,0.0,0.0,0.0,0.0,0.0,0.0,0.0,0.0,0.0,0.0,0.0,0.0,0.0,0.0,-0.0873,-0.1742,-0.2511,-0.348,-0.3982,-0.3882,-0.3813,-0.338,-0.2577,-0.2644,-0.3111,-0.4015,-0.4954,-0.5395,-0.5395,-0.5409,-0.5491,-0.5593,0.0,-0.5701,-0.5833,-0.5986,-0.6013,-0.6027,-0.6242,-0.63,-0.63,-0.63,0.0,0.0,0.0,0.0,0.0,0.0,0.0,0.0,-0.63,-0.63,-0.63,-0.63,-0.6949,-0.7668,0.0,0.0,0.0,0.0,0.0,0.0,0.0,0.0,0.0,0.0,0.0,0.0,0.0,-1.5438,-1.5784,-1.5784,-1.5784,-1.5784,-1.5784,-1.5784,-1.5939,-1.6239,-1.6321,-1.6543,-1.7105,-1.7159,-1.7266,-1.7482,-1.7502,-1.7502,-1.7502,-1.7502,-1.7515,-1.7542,-1.7542,-1.7555,-1.7582,-1.7582,-1.7582,-1.7582,-1.7582,-1.7582,-1.7582,-1.7582,-1.7582,-1.7635,-1.7733,-1.8558,-1.9775,-1.993,-2.1507,-2.389,-2.389,-2.4609,-2.5693,-2.5693,-2.5693,-2.5693,0.0,0.0,0.0,0.0,0.0,0.0,0.0,0.0,0.0,0.0,0.0,0.0,0.0,0.0,0.0,0.0,-0.1476,-0.2177,-0.1641,-0.3111,-0.368,-0.3011,-0.2277,-0.1808,-0.1608,-0.231,-0.3111,-0.4015,-0.4954,-0.5395,0.0,0.0,0.0,-0.5599,0.0,-0.5915,-0.5952,-0.6146,-0.6248,-0.6252,-0.6286,-0.63,-0.63,-0.63,-0.63,0.0,0.0,0.0,0.0,0.0,0.0,0.0,-0.63,-0.63,-0.63,-0.63,-0.6451,-0.6641,0.0,0.0,0.0,0.0,0.0,0.0,0.0,0.0,0.0,0.0,0.0,0.0,0.0,-1.5438,-1.5784,-1.5784,-1.5784,-1.5784,-1.5784,-1.5784,-1.5939,-1.6239,-1.6321,-1.6413,-1.6767,-1.68,-1.6827,-1.6887,-1.6894,-1.6894,-1.6894,-1.6894,-1.7001,-1.7286,-1.7293,-1.7407,-1.7582,-1.7582,-1.7582,-1.7582,-1.7582,-1.7582,-1.7582,-1.7582,-1.7582,-1.7687,-1.8708,-1.9981,-2.1347,-2.2366,-2.3791,-2.5274,-2.5274,-2.543,-2.5693,-2.5693,-2.5693,-2.5693,0.0,0.0,0.0,0.0,0.0,0.0,0.0,0.0,0.0,0.0,0.0,0.0,0.0,0.0,0.0,0.0,-0.1242,-0.1809,-0.134,-0.2609,-0.2978,-0.2075,-0.1574,-0.1507,-0.1975,-0.2845,-0.378,-0.4686,-0.5231,0.0,0.0,0.0,0.0,-0.5806,0.0,-0.6071,-0.6146,-0.6265,-0.63,-0.63,-0.63,-0.63,-0.63,-0.63,-0.63,0.0,0.0,0.0,0.0,0.0,0.0,0.0,0.0,0.0,-0.63,-0.63,-0.63,-0.63,0.0,0.0,0.0,0.0,0.0,0.0,0.0,0.0,0.0,0.0,0.0,0.0,-1.5008,-1.5438,-1.5784,-1.5784,-1.5784,-1.5784,-1.5784,-1.5784,-1.5838,-1.6046,-1.6059,-1.6172,-1.6473,-1.65,-1.656,-1.6693,-1.6707,-1.6707,-1.6707,-1.6707,-1.6774,-1.6985,-1.6941,-1.7014,-1.7161,-1.7353,-1.7427,-1.7427,-1.7515,-1.7582,-1.7582,-1.7582,-1.7582,-1.7687,-1.9013,-2.0385,-2.1803,-2.3126,-2.4501,-2.5693,-2.5693,-2.5693,-2.5693,-2.5693,-2.5693,-2.5693,0.0,0.0,0.0,0.0,0.0,0.0,0.0,0.0,0.0,0.0,0.0,0.0,0.0,0.0,0.0,0.0,0.0,0.0,-0.1073,-0.181,-0.1942,-0.134,-0.1307,-0.1809,-0.2911,-0.3647,-0.4453,-0.5395,0.0,0.0,0.0,0.0,0.0,-0.5993,0.0,-0.6139,-0.63,-0.63,-0.63,-0.63,-0.63,-0.63,-0.63,-0.63,0.0,0.0,0.0,-0.63,-0.63,-0.63,0.0,0.0,0.0,0.0,-0.63,-0.63,-0.63,-0.63,0.0,0.0,0.0,0.0,0.0,0.0,0.0,0.0,0.0,0.0,0.0,-1.5008,-1.5008,-1.5438,-1.5784,-1.5784,-1.5784,-1.5784,-1.5784,-1.5784,-1.5784,-1.5784,-1.5784,-1.5925,-1.6172,-1.6192,-1.6299,-1.654,-1.6553,-1.6553,-1.6553,-1.6553,-1.658,-1.6627,-1.6627,-1.6653,-1.6707,-1.6998,-1.7146,-1.7206,-1.7442,-1.7582,-1.7635,-1.7838,-1.7943,-1.8042,-1.9369,-2.0735,-2.2156,-2.3484,-2.4716,-2.5693,-2.5693,-2.5693,-2.5693,-2.5693,-2.5693,-2.5693,0.0,0.0,0.0,0.0,0.0,0.0,0.0,0.0,0.0,0.0,0.0,0.0,0.0,0.0,0.0,0.0,-0.0806,-0.0973,-0.0236,0.0,0.0,-0.1273,-0.1307,-0.2108,-0.3782,-0.3949,-0.4453,0.0,0.0,0.0,0.0,0.0,0.0,-0.5996,0.0,0.0,-0.63,-0.63,-0.63,-0.63,-0.63,-0.63,-0.63,0.0,0.0,0.0,0.0,0.0,0.0,-0.63,-0.63,0.0,0.0,0.0,-0.63,-0.63,-0.63,-0.63,0.0,0.0,0.0,0.0,0.0,0.0,0.0,0.0,0.0,0.0,-1.3736,-1.5008,-1.5008,-1.5438,-1.5784,-1.5784,-1.5784,-1.5784,-1.5784,-1.5784,-1.5784,-1.5784,-1.5784,-1.5798,-1.5838,-1.5885,-1.5905,-1.5945,-1.5898,-1.5898,-1.5898,-1.5898,-1.6066,-1.6319,-1.6333,-1.6446,-1.67,-1.6747,-1.6894,-1.7206,-1.7442,-1.7582,-1.7635,-1.8812,-1.9324,-1.942,-2.0786,-2.2215,-2.3534,-2.4864,-2.5538,-2.5693,-2.5693,-2.5693,-2.5693,-2.5693,-2.5693,-2.5693,0.0,0.0,0.0,0.0,0.0,0.0,0.0,0.0,0.0,0.0,0.0,0.0,0.0,0.0,0.0,0.0,-0.0337,-0.0404,-0.0034,-0.0471,-0.0906,-0.1273,-0.2277,-0.3178,-0.3982,-0.4519,-0.5028,0.0,0.0,0.0,0.0,-0.6088,-0.6159,0.0,0.0,0.0,0.0,0.0,-0.63,-0.6306,-0.6385,-0.6371,0.0,0.0,0.0,0.0,0.0,0.0,0.0,0.0,-0.6508,-0.6508,-0.6508,0.0,0.0,0.0,0.0,0.0,0.0,0.0,0.0,0.0,0.0,0.0,0.0,0.0,0.0,0.0,-1.219,-1.4027,-1.484,-1.5304,-1.5645,-1.5758,-1.5784,-1.5784,-1.5784,-1.5784,-1.5784,-1.5784,-1.5784,-1.5784,-1.5784,-1.5784,-1.5784,-1.5784,-1.5784,-1.5784,-1.5784,-1.5784,-1.5885,-1.6019,-1.6025,-1.6086,-1.6213,-1.638,-1.6693,-1.7199,-1.7333,-1.7474,-1.7635,-1.8968,-1.9576,-1.9731,-2.1853,-2.3176,-2.3791,-2.5177,-2.5693,-2.5693,-2.5693,-2.5693,-2.5693,-2.5693,-2.5693,-2.5693,0.0,0.0,0.0,0.0,0.0,0.0,0.0,0.0,0.0,0.0,0.0,0.0,0.0,0.0,0.0,0.0,0.0,0.0,0.0,-0.0806,-0.1407,-0.1641,-0.3145,-0.4115,-0.435,-0.5059,0.0,0.0,0.0,0.0,-0.5996,-0.6186,-0.63,0.0,-0.63,0.0,0.0,0.0,0.0,0.0,0.0,0.0,0.0,0.0,0.0,0.0,0.0,0.0,0.0,0.0,0.0,0.0,0.0,0.0,0.0,0.0,0.0,0.0,0.0,0.0,0.0,0.0,0.0,0.0,0.0,0.0,0.0,0.0,-1.044,-1.2346,-1.4104,-1.4962,-1.5471,-1.5685,-1.5785,-1.5784,-1.5784,-1.5784,-1.5784,-1.5784,-1.5784,-1.5784,-1.5784,-1.5784,-1.5784,-1.5784,-1.5784,-1.5784,-1.5784,-1.5784,-1.5784,-1.5784,-1.5784,-1.5784,-1.5784,-1.6126,-1.6543,-1.6978,-1.7125,-1.7313,-1.758,-1.9332,-2.0135,-2.0282,-2.2676,-2.389,-2.4304,-2.5284,-2.5693,-2.5693,-2.5693,-2.5693,-2.5693,-2.5693,-2.5693,-2.5693,0.0,0.0,0.0,0.0,0.0,0.0,0.0,0.0,0.0,0.0,0.0,0.0,0.0,0.0,0.0,0.0,0.0,0.0,0.0,-0.0806,-0.1708,-0.2577,-0.3513,0.0,-0.5296,-0.5504,0.0,0.0,0.0,0.0,-0.5996,-0.6186,-0.63,-0.63,-0.63,-0.63,-0.63,0.0,0.0,0.0,0.0,-0.6474,0.0,0.0,0.0,0.0,0.0,0.0,0.0,0.0,0.0,0.0,0.0,0.0,0.0,0.0,0.0,0.0,0.0,0.0,0.0,0.0,0.0,0.0,0.0,0.0,0.0,0.0,-0.903,-0.9876,-1.2422,-1.4263,-1.5398,-1.5418,-1.5651,-1.5784,-1.5784,-1.5784,-1.5784,-1.5784,-1.5784,-1.5784,-1.5784,-1.5784,-1.5784,-1.5784,-1.5784,-1.5784,-1.5784,-1.5784,-1.5784,-1.5784,-1.5784,-1.5784,-1.5784,-1.6126,-1.6335,-1.6375,-1.6931,-1.7206,-1.7336,-2.0237,-2.16,-2.1651,-2.3076,-2.4402,-2.5586,-2.5684,-2.5693,-2.5693,-2.5693,-2.5693,-2.5693,-2.5693,-2.5693,-2.5693,0.0,0.0,0.0,0.0,0.0,0.0,0.0,0.0,0.0,0.0,0.0,0.0,0.0,0.0,-0.0236,-0.0772,-0.1375,-0.1744,-0.1744,-0.2544,-0.3178,-0.3513,-0.4495,-0.5195,-0.5508,0.0,0.0,0.0,0.0,-0.6081,-0.6179,-0.6272,-0.63,-0.63,-0.63,-0.63,-0.6306,-0.6399,0.0,0.0,-0.663,-0.6695,0.0,0.0,0.0,0.0,0.0,0.0,0.0,0.0,0.0,0.0,0.0,0.0,0.0,0.0,0.0,0.0,0.0,0.0,0.0,0.0,0.0,0.0,0.0,0.0,-0.7166,-0.7654,-0.8364,-0.917,-1.0105,-1.2181,-1.4115,-1.5239,-1.5484,-1.5618,-1.5758,-1.5784,-1.5784,-1.5784,-1.5784,-1.5784,-1.5784,-1.5784,-1.5784,-1.5784,-1.5784,-1.5784,-1.5784,-1.5784,-1.5784,-1.5784,-1.5784,-1.5784,-1.5784,-1.5939,-1.6086,-1.6279,-1.6536,-1.7275,-1.855,-2.0498,-2.1978,-2.3076,-2.4402,-2.5274,-2.5693,-2.5693,-2.5693,-2.5693,-2.5693,-2.5693,-2.5693,-2.5693,-2.5693,-2.5693,0.0,0.0,0.0,0.0,0.0,0.0,0.0,0.0,0.0,0.0,0.0,0.0,0.0,0.0,-0.0889,-0.1825,-0.2479,-0.2823,-0.2823,-0.368,-0.4162,-0.4162,-0.5149,-0.5661,-0.5661,0.0,0.0,0.0,0.0,0.0,0.0,-0.63,-0.63,-0.6303,-0.6351,-0.6371,0.0,0.0,0.0,-0.6637,0.0,-0.6851,-0.6865,0.0,0.0,0.0,0.0,0.0,0.0,0.0,0.0,0.0,0.0,0.0,0.0,0.0,0.0,0.0,0.0,0.0,0.0,0.0,0.0,0.0,0.0,0.0,-0.7038,-0.7085,-0.7753,-0.8408,-0.8803,-1.0338,-1.2153,-1.4185,-1.4949,-1.5317,-1.5511,-1.5625,-1.5685,-1.5685,-1.5772,-1.5784,-1.5784,-1.5784,-1.5784,-1.5784,-1.5784,0.0,-1.5784,-1.5784,-1.5784,-1.5784,-1.5784,-1.5784,-1.5784,-1.5784,-1.5925,-1.6126,-1.6274,-1.7253,-1.9077,-2.0555,-2.2098,-2.3791,-2.5118,-2.5693,-2.5693,-2.5693,-2.5693,-2.5693,-2.5693,-2.5693,-2.5693,-2.5693,-2.5693,-2.5693,0.0,0.0,0.0,0.0,0.0,0.0,0.0,0.0,0.0,0.0,0.0,0.0,0.0,0.0,0.0,-0.3043,-0.3159,-0.3195,-0.3195,-0.4025,-0.4529,-0.4529,-0.5369,-0.581,-0.581,0.0,0.0,0.0,0.0,0.0,0.0,0.0,-0.6303,-0.6313,-0.645,-0.6518,-0.6525,0.0,-0.6658,-0.6873,0.0,-0.6885,-0.7082,0.0,0.0,0.0,-0.7095,-0.7095,0.0,0.0,0.0,0.0,0.0,0.0,0.0,0.0,0.0,0.0,0.0,0.0,0.0,0.0,0.0,0.0,-0.6852,0.0,-0.693,-0.7068,-0.7095,-0.7445,-0.8627,-0.889,-0.9731,-1.2262,-1.397,-1.495,-1.5008,-1.5204,-1.5384,-1.5384,-1.5631,-1.5758,-1.5758,-1.5764,-1.5764,-1.5764,-1.5778,-1.5784,-1.5784,-1.5784,-1.5784,-1.5784,-1.5784,-1.5784,-1.5784,-1.5784,-1.5784,-1.5784,-1.6119,-1.7135,-1.8803,-2.0442,-2.2139,-2.384,-2.5118,-2.5693,-2.5693,-2.5693,-2.5693,-2.5693,-2.5693,-2.5693,-2.5693,-2.5693,-2.5693,-2.5693,0.0,0.0,0.0,0.0,0.0,0.0,0.0,0.0,0.0,0.0,0.0,0.0,0.0,0.0,0.0,-0.4094,-0.4676,-0.5039,-0.5039,-0.5294,-0.5437,-0.5437,-0.5759,-0.5929,-0.5929,0.0,0.0,0.0,0.0,0.0,0.0,0.0,0.0,0.0,-0.6494,-0.6597,-0.6803,-0.6803,0.0,0.0,-0.695,-0.7024,0.0,0.0,0.0,0.0,0.0,-0.7095,-0.7095,0.0,-0.7095,-0.7095,0.0,0.0,0.0,0.0,0.0,0.0,-0.7038,0.0,0.0,0.0,0.0,0.0,-0.69,-0.6964,-0.7048,-0.7088,-0.7095,-0.7183,-0.7533,-0.8321,-0.9122,-0.9872,-1.191,-1.3799,-1.484,-1.5075,-1.5129,-1.5129,-1.5202,-1.5204,-1.5204,-1.5391,-1.5518,0.0,-1.5712,-1.5784,-1.5784,-1.5784,-1.5784,-1.5784,-1.5784,-1.5784,-1.5784,-1.5784,-1.5784,-1.5784,-1.5912,-1.744,-2.024,-2.0717,-2.2443,-2.5177,-2.5538,-2.5693,-2.5693,-2.5693,-2.5693,-2.5693,-2.5693,-2.5693,-2.5693,-2.5693,-2.5693,-2.5693,0.0,0.0,0.0,0.0,0.0,0.0,0.0,0.0,0.0,0.0,0.0,0.0,0.0,0.0,0.0,-0.5235,-0.573,-0.5993,-0.5993,-0.5993,-0.5993,-0.5993,-0.6078,-0.6125,-0.6125,0.0,0.0,0.0,0.0,0.0,0.0,0.0,0.0,0.0,0.0,0.0,0.0,0.0,0.0,0.0,-0.7061,0.0,0.0,-0.7095,-0.7095,0.0,0.0,0.0,-0.7095,-0.7095,-0.7095,0.0,0.0,0.0,0.0,0.0,0.0,0.0,0.0,0.0,0.0,0.0,0.0,0.0,-0.6994,-0.7038,-0.7095,0.0,-0.7095,-0.7095,-0.7095,-0.7665,-0.8321,-0.8803,-1.0591,-1.2348,-1.3705,-1.4381,-1.4776,-1.4776,-1.489,-1.5008,-1.5008,-1.5162,-1.5217,-1.5217,-1.5484,-1.5705,-1.5771,-1.5784,-1.5784,-1.5784,-1.5784,-1.5784,-1.5784,-1.5784,-1.5784,-1.5784,-1.5784,-1.7465,-2.0489,-2.0119,-2.1961,-2.5421,-2.5042,-2.5177,-2.5693,-2.5693,-2.5693,-2.5693,-2.5693,-2.5693,-2.5693,-2.5693,-2.5693,-2.5693,0.0,0.0,-0.2044,-0.2954,-0.3107,0.0,0.0,0.0,0.0,0.0,0.0,0.0,0.0,0.0,0.0,0.0,-0.63,-0.63,-0.63,-0.63,-0.63,-0.63,-0.63,-0.63,-0.63,0.0,0.0,0.0,0.0,0.0,0.0,0.0,0.0,0.0,-0.6868,-0.6896,0.0,0.0,0.0,-0.7095,-0.7095,-0.7095,0.0,0.0,-0.7095,0.0,-0.7095,-0.7095,-0.7095,-0.7095,-0.7095,0.0,0.0,0.0,0.0,0.0,-0.7095,0.0,0.0,0.0,0.0,0.0,0.0,0.0,-0.7095,-0.7095,-0.7095,-0.7095,-0.7095,-0.7092,-0.7075,-0.7071,-0.7423,-0.8511,-0.963,-1.0838,-1.2109,-1.3546,-1.4476,-1.4476,-1.471,-1.4908,-1.4908,-1.4941,-1.4961,-1.4961,-1.5211,-1.5504,-1.5718,-1.5764,-1.5784,-1.5784,-1.5784,-1.5784,-1.5784,-1.5784,-1.5784,-1.5784,-1.5784,-1.7229,-1.9854,-1.9074,-2.0962,-2.4841,-2.407,-2.4461,-2.5693,-2.5693,-2.5693,-2.5693,-2.5693,-2.5693,-2.5693,-2.5693,-2.5693,-2.5693,-0.2761,-0.2806,-0.2884,-0.3072,0.0,0.0,0.0,0.0,0.0,0.0,0.0,0.0,0.0,0.0,0.0,0.0,0.0,-0.63,-0.63,-0.63,-0.63,-0.63,-0.63,-0.63,-0.63,-0.6269,0.0,0.0,0.0,0.0,0.0,0.0,0.0,0.0,-0.6873,-0.695,0.0,0.0,0.0,-0.7095,-0.7095,0.0,-0.7095,-0.7095,-0.7095,-0.7095,-0.7095,-0.7095,-0.7095,0.0,-0.7095,-0.7095,0.0,0.0,0.0,0.0,0.0,0.0,0.0,0.0,0.0,0.0,0.0,0.0,-0.7095,-0.7095,-0.7095,-0.7095,-0.7095,-0.7061,-0.6947,-0.6927,-0.7013,-0.7268,-0.8282,-0.9814,-1.2,-1.3381,-1.4168,-1.4168,-1.4222,-1.4262,-1.4262,-1.4469,-1.4603,-1.4603,-1.5097,-1.5424,-1.5478,-1.5705,-1.5784,-1.5784,-1.5784,-1.5784,-1.5784,-1.5784,-1.5784,-1.5784,-1.5784,-1.6816,-1.8647,-1.8694,-2.0476,-2.3558,-2.3668,-2.4461,-2.5693,-2.5693,-2.5693,-2.5693,-2.5693,-2.5693,-2.5693,-2.5693,-2.5693,-2.5693,-0.3805,-0.3882,-0.407,-0.4607,0.0,0.0,0.0,0.0,0.0,0.0,0.0,0.0,0.0,0.0,0.0,0.0,0.0,0.0,0.0,0.0,-0.6481,-0.6481,-0.6481,-0.6481,-0.6481,-0.6481,-0.6515,0.0,0.0,0.0,0.0,0.0,0.0,0.0,0.0,0.0,0.0,0.0,-0.7095,-0.7095,-0.7095,0.0,-0.7095,-0.7095,-0.7095,-0.7095,-0.7095,-0.7095,-0.7095,-0.7095,-0.7095,0.0,0.0,-0.7095,-0.7095,0.0,-0.7095,-0.7095,0.0,0.0,0.0,-0.7095,0.0,0.0,0.0,-0.7095,-0.7095,-0.7095,-0.7095,-0.7075,-0.7004,-0.6991,-0.6967,-0.69,-0.7967,-0.9179,-1.0203,-1.2001,-1.3428,-1.4046,-1.4088,-1.4088,-1.4088,-1.4215,-1.4362,-1.4509,-1.4796,-1.5084,-1.5384,-1.5531,-1.5678,-1.5778,-1.5784,-1.5784,-1.5784,-1.5784,-1.5784,-1.5784,-1.5784,-1.6557,-1.7993,-1.7806,-1.9607,-2.2883,-2.2772,-2.384,-2.5693,-2.5693,-2.5693,-2.5693,-2.5693,-2.5693,-2.5693,-2.5693,-2.5693,-2.5693,-0.4844,-0.5002,-0.5276,-0.6141,0.0,0.0,0.0,0.0,0.0,0.0,0.0,0.0,0.0,0.0,0.0,0.0,0.0,0.0,0.0,0.0,0.0,-0.6702,-0.6702,-0.6702,-0.6702,-0.6702,-0.6715,0.0,0.0,0.0,0.0,0.0,0.0,0.0,0.0,0.0,0.0,0.0,0.0,-0.7095,0.0,-0.7095,-0.7095,-0.7095,-0.7095,-0.7095,-0.7095,-0.7095,-0.7095,-0.7095,0.0,-0.7095,-0.7095,-0.7095,0.0,0.0,0.0,0.0,0.0,0.0,0.0,0.0,0.0,-0.7095,0.0,0.0,0.0,0.0,0.0,0.0,0.0,0.0,0.0,0.0,0.0,0.0,0.0,-1.024,0.0,-1.3568,-1.3922,-1.4088,-1.4088,-1.4088,-1.4182,-1.4422,-1.4489,-1.473,-1.5204,-1.5337,-1.5504,-1.5738,-1.5751,-1.5784,-1.5784,-1.5784,-1.5784,-1.5784,-1.5784,-1.6339,-1.734,-1.6875,-1.8739,-2.2215,-2.1885,-2.3226,-2.5693,-2.5693,-2.5693,-2.5693,-2.5693,-2.5693,-2.5693,-2.5693,-2.5693,-2.5693,-0.6103,-0.6103,-0.6141,-0.6261,0.0,0.0,0.0,0.0,0.0,0.0,0.0,0.0,0.0,0.0,0.0,0.0,0.0,0.0,-0.6702,0.0,0.0,0.0,-0.6702,-0.6702,-0.6702,-0.6702,-0.6766,-0.6859,0.0,0.0,0.0,0.0,0.0,0.0,-0.7095,0.0,0.0,0.0,-0.7095,0.0,-0.7095,-0.7095,0.0,-0.7095,-0.7095,-0.7095,-0.7095,-0.7095,-0.7095,0.0,-0.7095,-0.7095,0.0,-0.7095,-0.7095,0.0,0.0,0.0,0.0,0.0,0.0,0.0,-0.7095,0.0,0.0,0.0,-0.7095,-0.7095,0.0,0.0,0.0,0.0,0.0,0.0,0.0,0.0,-0.8267,-0.8794,-0.9897,-1.2088,-1.3365,-1.4088,-1.4088,-1.4088,-1.4102,-1.4135,-1.4376,-1.4549,-1.4616,-1.5117,-1.5411,-1.5444,-1.5698,-1.5784,-1.5784,-1.5784,-1.5784,-1.5784,-1.5784,-1.5879,-1.6035,-1.6489,-1.8255,-2.1044,-2.1479,-2.3226,-2.5693,-2.5693,-2.5693,-2.5693,-2.5693,-2.5693,-2.5693,-2.5693,-2.5693,-2.5693,-0.6443,-0.6422,-0.6453,-0.6502,0.0,0.0,0.0,0.0,0.0,0.0,0.0,0.0,0.0,0.0,0.0,0.0,0.0,-0.6913,0.0,0.0,0.0,0.0,0.0,0.0,-0.6913,-0.6913,-0.6943,-0.7007,-0.7007,0.0,0.0,0.0,0.0,0.0,-0.7095,0.0,-0.7095,0.0,-0.7095,0.0,0.0,0.0,0.0,-0.7095,-0.7095,-0.7095,-0.7095,-0.7095,-0.7095,0.0,-0.7095,0.0,0.0,0.0,0.0,0.0,0.0,0.0,0.0,0.0,0.0,0.0,0.0,0.0,-0.7095,0.0,-0.7095,0.0,0.0,0.0,0.0,0.0,0.0,0.0,-0.6913,0.0,0.0,0.0,-0.937,0.0,0.0,0.0,-1.3725,-1.3988,-1.4088,-1.4088,-1.4202,-1.4342,-1.4466,-1.4756,-1.5044,-1.5384,-1.5518,-1.5658,-1.5784,-1.5784,-1.5784,-1.5784,-1.5784,-1.5784,-1.5798,-1.644,-1.8205,-2.0852,-2.1437,-2.3226,-2.5693,-2.5693,-2.5693,-2.5693,-2.5693,-2.5693,-2.5693,-2.5693,-2.5693,-2.5693,-0.661,0.0,0.0,0.0,0.0,0.0,0.0,0.0,0.0,0.0,0.0,0.0,-0.6943,-0.7034,0.0,0.0,-0.7095,-0.7095,0.0,0.0,-0.7095,0.0,0.0,0.0,0.0,0.0,-0.7095,-0.7095,0.0,0.0,0.0,0.0,0.0,0.0,0.0,-0.7095,-0.7095,0.0,0.0,-0.7095,-0.7095,-0.7122,-0.7156,-0.7112,-0.7095,-0.7095,-0.7095,-0.7095,-0.7095,-0.7095,-0.7095,0.0,-0.7095,0.0,0.0,0.0,0.0,0.0,-0.7095,0.0,0.0,0.0,0.0,0.0,0.0,0.0,0.0,0.0,0.0,0.0,0.0,0.0,0.0,0.0,0.0,-0.6994,0.0,0.0,0.0,0.0,0.0,0.0,0.0,-1.3841,-1.4001,-1.4082,0.0,-1.4175,-1.4389,-1.4476,-1.4756,-1.5264,-1.5357,-1.5538,-1.5778,-1.5784,-1.5784,-1.5784,-1.5784,-1.5784,-1.5845,-1.6819,-1.8543,-2.0852,-2.1835,-2.3583,-2.5693,-2.5693,-2.5693,-2.5693,-2.5693,-2.5693,-2.5693,-2.5693,-2.5693,-2.5693,-0.6846,-0.6797,0.0,0.0,0.0,0.0,0.0,0.0,0.0,0.0,0.0,0.0,0.0,0.0,0.0,0.0,0.0,-0.7095,-0.7095,0.0,-0.7095,0.0,0.0,-0.7095,0.0,0.0,0.0,0.0,0.0,0.0,0.0,0.0,0.0,0.0,0.0,-0.7095,-0.7095,-0.7095,-0.7095,-0.7095,-0.7095,-0.7231,-0.735,0.0,-0.7095,-0.7095,-0.7095,0.0,0.0,-0.7095,-0.7095,0.0,0.0,0.0,0.0,0.0,0.0,0.0,0.0,0.0,0.0,-0.7095,0.0,0.0,0.0,0.0,-0.7095,0.0,0.0,0.0,0.0,0.0,0.0,0.0,0.0,0.0,0.0,0.0,0.0,0.0,0.0,0.0,0.0,-1.3613,-1.3733,0.0,-1.4088,0.0,-1.4102,-1.4369,-1.4663,-1.5015,-1.5251,-1.5538,-1.5778,-1.5784,-1.5784,-1.5784,-1.5784,-1.5784,-1.5845,-1.7775,-1.9416,-2.09,-2.2791,-2.4402,-2.5693,-2.5693,-2.5693,-2.5693,-2.5693,-2.5693,-2.5693,-2.5693,-2.5693,-2.5693,0.0,0.0,0.0,0.0,0.0,0.0,0.0,-0.7065,0.0,0.0,0.0,0.0,0.0,-0.7095,-0.7095,0.0,0.0,-0.7095,-0.7095,-0.7095,0.0,0.0,0.0,-0.7095,0.0,0.0,0.0,0.0,0.0,0.0,0.0,0.0,0.0,0.0,0.0,-0.7444,0.0,0.0,0.0,0.0,0.0,-0.7475,-0.7516,0.0,0.0,-0.7444,-0.7444,-0.7444,0.0,-0.7444,-0.7444,-0.7444,-0.7444,-0.7373,-0.7292,-0.7292,-0.7221,0.0,0.0,0.0,-0.7095,-0.7095,0.0,0.0,0.0,0.0,0.0,0.0,0.0,0.0,0.0,0.0,0.0,0.0,0.0,0.0,0.0,0.0,0.0,0.0,0.0,0.0,0.0,0.0,0.0,0.0,0.0,0.0,0.0,-1.4182,-1.4456,-1.4995,-1.5102,-1.5344,-1.5778,-1.5784,-1.5784,-1.5784,-1.5784,-1.5784,-1.5845,-1.7824,-1.9464,-2.09,-2.2841,-2.4461,-2.5693,-2.5693,-2.5693,-2.5693,-2.5693,-2.5693,-2.5693,-2.5693,-2.5693,-2.5693,-0.8356,0.0,0.0,0.0,0.0,0.0,0.0,0.0,0.0,0.0,-0.8456,0.0,-0.8541,0.0,-0.8454,0.0,-0.7964,-0.7743,-0.7302,-0.7257,0.0,-0.7224,-0.7221,0.0,0.0,0.0,0.0,0.0,0.0,-0.7257,0.0,0.0,0.0,0.0,0.0,0.0,-0.76,0.0,-0.76,0.0,0.0,-0.7675,0.0,0.0,-0.7692,-0.76,0.0,-0.76,-0.76,-0.76,-0.76,-0.76,-0.76,-0.7533,-0.7451,-0.7451,-0.738,-0.7257,-0.7257,-0.7265,0.0,-0.7221,-0.7136,0.0,-0.7095,0.0,0.0,0.0,0.0,0.0,0.0,0.0,0.0,0.0,0.0,0.0,0.0,-0.7018,0.0,0.0,0.0,0.0,0.0,0.0,0.0,0.0,0.0,0.0,0.0,-1.4088,-1.4309,-1.479,-1.4955,-1.5197,-1.5671,-1.5731,-1.5784,-1.5784,-1.5784,-1.6062,-1.6548,-1.8542,-2.0184,-2.1531,-2.3544,-2.4913,-2.5693,-2.5693,-2.5693,-2.5693,-2.5693,-2.5693,-2.5693,-2.5693,-2.5693,-2.5693,-1.0611,-1.0664,0.0,0.0,-0.9069,0.0,0.0,0.0,-0.9379,0.0,-1.0916,-1.1093,-1.1049,-1.1237,-1.0854,-0.952,-0.9427,-0.8881,-0.7691,-0.76,0.0,0.0,-0.7517,-0.7448,-0.734,0.0,0.0,0.0,0.0,0.0,0.0,0.0,0.0,0.0,-0.7617,0.0,-0.7715,-0.7668,-0.7621,-0.7634,-0.777,-0.7821,-0.7838,-0.7934,-0.7865,-0.7621,-0.7621,-0.7621,-0.7621,-0.7621,-0.7621,-0.7621,-0.7621,-0.7614,-0.7611,-0.7611,-0.7604,-0.76,-0.76,-0.7495,-0.7429,-0.7429,-0.7265,0.0,0.0,0.0,-0.7095,0.0,0.0,0.0,0.0,0.0,0.0,0.0,0.0,0.0,0.0,0.0,0.0,0.0,0.0,0.0,0.0,0.0,0.0,0.0,0.0,0.0,0.0,0.0,-1.4222,-1.4509,-1.481,-1.5149,-1.5391,-1.5685,-1.5784,-1.5784,-1.5872,-1.6527,-1.7753,-1.9916,-2.1488,-2.2697,-2.4804,-2.5693,-2.5693,-2.5693,-2.5693,-2.5693,-2.5693,-2.5693,-2.5693,-2.5693,-2.5693,-2.5693,-1.0611,-1.1484,-1.2397,0.0,-1.1467,-1.0362,0.0,0.0,0.0,0.0,-1.1333,-1.1005,-0.9998,-0.9951,-0.9478,-0.8196,-0.8106,0.0,0.0,0.0,0.0,-0.8902,-0.8948,-0.9384,-1.0331,-0.9426,0.0,-0.8948,0.0,0.0,-0.76,0.0,0.0,0.0,0.0,0.0,-0.9328,-0.8311,-0.7877,-0.788,-0.7917,-0.7931,0.0,0.0,-0.7941,-0.7877,-0.7877,-0.7877,-0.7877,-0.7877,-0.7877,-0.7877,-0.7877,-0.7848,-0.7756,-0.7756,-0.7682,-0.76,-0.76,-0.757,-0.7543,-0.7543,-0.7424,-0.7312,0.0,0.0,0.0,0.0,0.0,0.0,0.0,0.0,0.0,0.0,0.0,0.0,0.0,0.0,0.0,0.0,0.0,0.0,0.0,0.0,0.0,0.0,0.0,0.0,0.0,0.0,0.0,-1.4509,-1.481,-1.5149,-1.5391,-1.5685,-1.5784,-1.5832,-1.6763,-1.7365,-1.7807,-2.0776,-2.2312,-2.2697,-2.4804,-2.5693,-2.5693,-2.5693,-2.5693,-2.5693,-2.5693,-2.5693,-2.5693,-2.5693,-2.5693,-2.5693,-1.2505,-1.3195,0.0,-1.4621,0.0,0.0,-1.2785,-1.2355,0.0,-1.2955,-1.3117,0.0,-1.2156,-1.2201,-1.1749,-1.0484,-1.0342,0.0,-0.9498,0.0,0.0,-0.9652,-0.9648,-0.9703,-0.9811,-0.9094,0.0,-0.8757,0.0,0.0,-0.7794,0.0,0.0,0.0,0.0,-0.8432,0.0,-0.897,-0.8871,-0.8871,-0.8871,0.0,0.0,-0.8233,-0.7988,-0.7988,-0.7988,-0.7988,-0.7988,-0.7988,-0.7988,-0.7988,-0.7988,-0.7931,-0.7913,-0.7913,-0.7855,-0.779,-0.779,-0.7743,-0.7692,-0.7692,-0.758,-0.7472,-0.7472,-0.735,-0.7241,0.0,0.0,0.0,0.0,0.0,0.0,0.0,0.0,0.0,0.0,0.0,0.0,0.0,0.0,0.0,0.0,0.0,0.0,0.0,0.0,0.0,0.0,0.0,0.0,-1.4322,-1.4743,-1.5089,-1.5204,-1.5618,-1.5784,-1.5825,-1.7084,-1.7963,-1.8573,-2.1348,-2.2896,-2.3458,-2.5006,-2.5693,-2.5693,-2.5693,-2.5693,-2.5693,-2.5693,-2.5693,-2.5693,-2.5693,-2.5693,-2.5693,-1.5008,0.0,0.0,0.0,0.0,0.0,0.0,-1.4165,0.0,-1.498,0.0,-1.5465,-1.5272,-1.5481,-1.5159,-1.3881,0.0,-1.3245,-1.208,-1.2006,-1.1468,-1.0464,-1.038,-0.9819,-0.8683,-0.8438,0.0,0.0,0.0,0.0,0.0,0.0,0.0,0.0,0.0,0.0,0.0,-0.9948,-1.0386,-1.0243,-1.0243,-1.0243,-1.0096,-0.897,-0.8382,-0.8283,-0.8283,-0.8137,-0.7988,-0.7988,-0.7988,-0.7988,-0.7988,-0.7988,-0.7988,-0.7988,-0.7988,-0.7988,-0.7988,-0.7894,-0.7841,-0.7841,-0.7733,-0.7628,-0.7628,-0.7509,-0.7443,-0.7419,-0.7265,-0.7122,0.0,0.0,0.0,0.0,0.0,0.0,0.0,0.0,0.0,0.0,0.0,0.0,0.0,0.0,0.0,0.0,0.0,0.0,0.0,0.0,0.0,-1.4142,-1.4676,-1.5028,-1.5068,-1.5558,-1.5872,-1.6062,-1.7311,-1.8619,-1.9916,-2.1926,-2.3448,-2.4551,-2.5333,-2.5693,-2.5693,-2.5693,-2.5693,-2.5693,-2.5693,-2.5693,-2.5693,-2.5693,-2.5693,-2.5693,0.0,0.0,0.0,0.0,0.0,-1.5678,-1.5678,-1.5285,-1.5167,-1.5598,-1.5932,-1.5719,-1.4619,-1.4757,-1.4462,-1.31,-1.2994,0.0,0.0,0.0,0.0,-1.3483,-1.3286,-1.3546,-1.4325,-1.225,-1.1162,0.0,0.0,0.0,0.0,0.0,0.0,0.0,0.0,0.0,-1.1312,-1.2668,0.0,-1.156,-1.156,-1.156,-1.1556,-1.1312,-1.0583,-0.9657,-0.9657,-0.8924,-0.7988,-0.7988,-0.7988,-0.7988,-0.7988,-0.7988,-0.7988,-0.7988,-0.7988,-0.7988,-0.7988,-0.7971,-0.7948,-0.7948,-0.7885,-0.7773,-0.7773,-0.7662,-0.7522,-0.7443,-0.735,-0.7292,-0.7119,0.0,0.0,0.0,0.0,0.0,0.0,0.0,0.0,0.0,0.0,0.0,0.0,0.0,0.0,0.0,0.0,0.0,0.0,0.0,0.0,0.0,-1.4783,0.0,0.0,0.0,-1.6339,-1.7365,-1.8588,-2.0029,-2.1605,-2.3288,-2.4423,-2.498,-2.5508,-2.5693,-2.5693,-2.5693,-2.5693,-2.5693,-2.5693,-2.5693,-2.5693,-2.5693,-2.5693,-2.5693,0.0,0.0,0.0,0.0,0.0,0.0,0.0,-1.6072,-1.6072,-1.6059,-1.6313,-1.6239,-1.5625,-1.5695,-1.5519,-1.4856,-1.4806,-1.4806,-1.4806,-1.4693,-1.4616,-1.456,-1.4262,0.0,-1.4035,-1.264,-1.1896,-1.1896,0.0,0.0,0.0,0.0,0.0,0.0,0.0,-1.1312,0.0,0.0,0.0,-1.2958,-1.2958,-1.2958,-1.2861,-1.2139,-1.1507,-1.0974,-1.0974,-1.0145,-0.8924,-0.8233,-0.7988,-0.7988,-0.7988,-0.7988,-0.7988,-0.7988,-0.7988,-0.7988,-0.7988,-0.7988,-0.7988,-0.7988,-0.7934,-0.788,-0.788,-0.7814,-0.7689,-0.7614,-0.7539,-0.7444,-0.7288,-0.7149,0.0,0.0,0.0,0.0,0.0,0.0,0.0,0.0,0.0,0.0,0.0,0.0,0.0,0.0,0.0,0.0,0.0,0.0,0.0,0.0,0.0,0.0,0.0,0.0,0.0,-1.7738,-1.9534,-2.0966,-2.2034,-2.3658,-2.4658,-2.5135,-2.5547,-2.5693,-2.5693,-2.5693,-2.5693,-2.5693,-2.5693,-2.5693,-2.5693,-2.5693,-2.5693,-2.5693,0.0,-1.5925,0.0,0.0,-1.6206,0.0,-1.6366,-1.6613,-1.6693,-1.64,-1.662,-1.68,-1.68,-1.6854,-1.6894,-1.6894,-1.6894,-1.6894,-1.6894,-1.6834,-1.6384,-1.5346,-1.4983,-1.4348,-1.3352,-1.2718,-1.2407,0.0,0.0,0.0,0.0,0.0,0.0,0.0,0.0,0.0,0.0,0.0,-1.431,-1.4322,-1.4376,-1.4401,-1.431,-1.329,-1.2774,-1.2529,-1.2529,-1.1693,-1.041,-0.9372,-0.8585,-0.7988,-0.7988,-0.7988,-0.7988,-0.7988,-0.7988,-0.7988,-0.7988,-0.7988,-0.7988,-0.7988,-0.7988,-0.7988,-0.7988,-0.7897,-0.7848,-0.7818,-0.7699,-0.7553,-0.7446,-0.7448,0.0,0.0,0.0,0.0,0.0,0.0,0.0,0.0,0.0,0.0,0.0,0.0,0.0,0.0,0.0,0.0,-1.4088,0.0,0.0,0.0,0.0,-1.5182,-1.5484,0.0,-1.7412,-1.7738,-1.9973,-2.1417,-2.2161,-2.3792,-2.4795,-2.5234,-2.5586,-2.5693,-2.5693,-2.5693,-2.5693,-2.5693,-2.5693,-2.5693,-2.5693,-2.5693,-2.5693,-2.5693,0.0,0.0,0.0,0.0,0.0,0.0,-1.6667,-1.6914,-1.7052,-1.67,-1.6978,-1.7159,-1.7159,-1.7393,-1.7502,-1.7502,-1.7502,-1.7502,-1.7502,-1.7306,-1.7108,-1.6998,-1.6662,-1.641,-1.6304,-1.4862,-1.4071,0.0,0.0,-1.3102,0.0,0.0,0.0,0.0,0.0,0.0,0.0,-1.5581,-1.5635,-1.5655,-1.5974,-1.608,-1.6106,-1.6222,-1.5545,-1.4521,-1.4521,-1.3661,-1.2496,-1.2393,-1.0424,-0.7988,-0.7988,-0.7988,-0.7988,-0.7988,-0.7988,-0.7988,-0.7988,-0.7988,-0.7988,-0.7988,-0.7988,-0.7988,-0.7988,-0.7978,-0.7928,-0.7838,-0.7699,-0.7553,-0.7446,-0.8249,-0.8539,0.0,0.0,0.0,0.0,0.0,0.0,0.0,0.0,0.0,0.0,-1.4088,0.0,0.0,-1.4088,0.0,0.0,0.0,0.0,-1.4948,0.0,-1.5231,-1.5785,-1.5906,-1.6574,-1.7738,-1.9408,-2.1019,-2.2615,-2.4278,-2.5254,-2.5625,-2.5674,-2.5693,-2.5693,-2.5693,-2.5693,-2.5693,-2.5693,-2.5693,-2.5693,-2.5693,-2.5693,-2.5693,0.0,0.0,0.0,0.0,0.0,0.0,0.0,-1.7273,-1.7361,-1.7248,-1.7335,-1.746,-1.746,-1.7515,-1.7582,-1.7582,-1.7582,-1.7582,-1.7582,-1.7475,-1.746,-1.746,-1.7179,-1.7025,-1.7025,-1.6166,-1.5762,0.0,0.0,0.0,0.0,0.0,0.0,0.0,0.0,-1.5434,-1.6092,-1.6092,-1.6199,-1.6366,-1.6486,-1.6533,-1.6547,-1.666,-1.6393,-1.5928,-1.5928,-1.5109,-1.3982,-1.3982,-1.2069,-0.9615,-0.9615,-0.9013,-0.8306,-0.8306,-0.8245,-0.8177,-0.8177,-0.8109,-0.7988,-0.7988,-0.7988,-0.7988,-0.7988,-0.7988,-0.7971,-0.7911,-0.8453,-0.9115,-0.9834,-1.0172,-1.033,0.0,0.0,0.0,0.0,0.0,0.0,0.0,0.0,0.0,0.0,0.0,0.0,0.0,0.0,0.0,0.0,0.0,0.0,-1.4995,0.0,-1.5418,-1.5778,-1.6574,-1.7537,-1.8818,-2.0424,-2.2122,-2.3719,-2.4675,-2.5312,-2.5693,-2.5693,-2.5693,-2.5693,-2.5693,-2.5693,-2.5693,-2.5693,-2.5693,-2.5693,-2.5693,-2.5693,-2.5693,-1.682,0.0,-1.686,0.0,-1.7141,-1.7326,-1.7326,-1.7501,-1.7582,-1.7582,-1.7582,-1.7582,-1.7582,-1.7582,-1.7582,-1.7582,-1.7582,-1.7582,-1.7582,-1.7582,-1.7582,-1.7582,-1.744,0.0,-1.7326,-1.6987,-1.6834,-1.6834,-1.6547,0.0,0.0,0.0,0.0,0.0,-1.6037,-1.6206,-1.64,-1.64,-1.652,-1.6714,-1.68,-1.6834,-1.6847,-1.6934,-1.6967,-1.6967,-1.6967,-1.6387,-1.5602,-1.5602,-1.4034,-1.1988,-1.1507,-1.0339,-0.9153,-0.9153,-0.8772,-0.8385,-0.8385,-0.8252,-0.816,-0.8116,-0.8106,-0.8096,-0.8002,-0.7988,-0.8088,-0.8528,-0.9262,-1.0258,-1.148,-1.1718,-1.1928,-1.2349,0.0,0.0,0.0,0.0,0.0,0.0,-1.4088,-1.4088,-1.4088,-1.4088,0.0,0.0,0.0,0.0,0.0,0.0,0.0,0.0,0.0,0.0,-1.5778,-1.7037,-1.8195,-1.9154,-2.1206,-2.2824,-2.4096,-2.4916,-2.5439,-2.5693,-2.5693,-2.5693,-2.5693,-2.5693,-2.5693,-2.5693,-2.5693,-2.5693,-2.5693,-2.5693,-2.5693,-2.5693,-1.7139,-1.7199,-1.7286,-1.7522,-1.7575,-1.7582,-1.7582,-1.7582,-1.7582,-1.7582,-1.7582,-1.7582,-1.7582,-1.7582,-1.7582,-1.7582,-1.7582,-1.7582,-1.7582,-1.7582,-1.7582,0.0,0.0,-1.7582,-1.7582,-1.7347,-1.7199,-1.7199,0.0,0.0,-1.67,0.0,-1.6693,-1.6693,-1.6693,-1.67,-1.67,-1.67,-1.67,-1.6734,-1.7079,-1.7199,-1.7226,-1.7514,-1.7569,-1.7569,-1.7569,-1.7569,-1.7575,-1.7575,-1.6599,-1.5052,-1.3314,-1.1831,-1.0694,-1.0694,-0.9667,-0.8479,-0.8479,-0.8479,-0.8442,-0.8354,-0.832,-0.8228,-0.8025,-0.7988,-0.8382,-0.9702,-0.9998,-1.0325,-1.151,-1.2637,-1.2973,-1.1717,0.0,0.0,0.0,0.0,0.0,0.0,-1.4088,-1.4088,-1.4088,-1.4088,0.0,0.0,0.0,0.0,0.0,0.0,0.0,-1.5371,-1.5391,0.0,-1.5778,-1.7037,-1.7896,-1.8354,-2.1221,-2.286,-2.3365,-2.4976,-2.5684,-2.5693,-2.5693,-2.5693,-2.5693,-2.5693,-2.5693,-2.5693,-2.5693,-2.5693,-2.5693,-2.5693,-2.5693,-2.5693,-1.7428,-1.7442,-1.7475,-1.7569,-1.7582,-1.7582,-1.7582,-1.7582,-1.7582,-1.7582,-1.7582,-1.7582,-1.7582,-1.7582,-1.7582,0.0,-1.7582,-1.7582,0.0,-1.7582,-1.7582,-1.7582,-1.7582,-1.7582,-1.7582,-1.7548,-1.7442,-1.7442,0.0,0.0,0.0,-1.6707,-1.6707,-1.6707,-1.6707,-1.682,-1.7058,-1.7058,-1.7172,-1.7315,-1.7402,-1.7442,-1.7455,-1.7549,-1.7582,-1.7582,-1.7582,-1.7582,-1.7582,-1.7582,-1.7312,-1.6791,-1.6239,-1.4434,-1.2467,-1.2467,-1.2043,-1.1563,-1.1563,-1.1524,-1.1409,-1.1396,-1.1383,-1.1281,-1.1075,-1.0825,-1.1019,-1.2372,-1.2662,-1.3027,-1.4254,-1.4618,-1.4646,-1.4228,-1.4546,0.0,0.0,0.0,0.0,0.0,-1.4727,-1.4727,-1.4727,-1.4727,0.0,0.0,0.0,0.0,0.0,0.0,0.0,0.0,-1.5585,0.0,-1.7084,-1.7505,-1.873,-2.0852,-2.204,-2.3406,-2.4937,-2.547,-2.5693,-2.5693,-2.5693,-2.5693,-2.5693,-2.5693,-2.5693,-2.5693,-2.5693,-2.5693,-2.5693,-2.5693,-2.5693,-2.5693,-1.7582,-1.7582,-1.7582,-1.7582,-1.7582,-1.7582,-1.7582,-1.7582,-1.7582,-1.7582,-1.7582,-1.7582,-1.7582,-1.7582,0.0,-1.7582,-1.7582,-1.7582,-1.7582,-1.7582,-1.7582,-1.7582,-1.7582,-1.7582,-1.7582,-1.7582,0.0,-1.7582,-1.7454,-1.7215,-1.7034,-1.7034,-1.7034,-1.7034,-1.7034,-1.7134,-1.7367,-1.7367,-1.7467,-1.7582,-1.7582,-1.7582,-1.7582,-1.7582,-1.7582,-1.7582,-1.7582,-1.7582,-1.7582,-1.7582,-1.7582,-1.7582,-1.7582,-1.6333,-1.4829,-1.4234,-1.3645,-1.3105,-1.3105,-1.3062,-1.2991,-1.2899,-1.2879,-1.2802,-1.245,-1.2222,-1.2438,-1.3655,-1.3926,-1.4268,-1.5581,-1.5678,-1.5558,-1.5558,-1.5317,-1.5169,-1.5169,0.0,0.0,0.0,0.0,0.0,0.0,-1.5008,-1.5008,0.0,0.0,0.0,0.0,0.0,0.0,-1.5558,-1.6195,-1.6897,-1.7684,-1.8776,-2.0273,-2.2251,-2.3287,-2.4459,-2.5693,-2.5693,-2.5693,-2.5693,-2.5693,-2.5693,-2.5693,-2.5693,-2.5693,-2.5693,-2.5693,-2.5693,-2.5693,-2.5693,-2.5693,-2.5693,-1.7582,-1.7582,-1.7582,0.0,-1.7582,-1.7582,-1.7582,-1.7582,-1.7582,-1.7582,-1.7582,-1.7582,-1.7582,-1.7582,-1.7582,-1.7582,0.0,0.0,-1.7582,-1.7582,-1.7582,-1.7582,-1.7582,-1.7582,-1.7582,-1.7582,-1.7582,-1.7582,-1.7582,-1.7582,-1.7582,-1.7582,-1.7582,-1.7582,-1.7582,-1.7582,-1.7582,-1.7582,-1.7582,-1.7582,-1.7582,-1.7582,-1.7582,-1.7582,-1.7582,-1.7582,-1.7582,-1.7582,-1.7582,-1.7582,-1.7582,-1.7582,-1.7582,-1.7582,-1.7312,-1.5956,-1.4609,-1.3588,-1.3588,-1.3588,-1.3536,-1.3367,-1.3299,-1.3179,-1.2819,-1.2699,-1.2918,-1.3858,-1.4034,-1.4411,-1.5588,-1.5784,-1.5784,-1.5784,-1.5605,-1.5424,-1.5424,0.0,0.0,0.0,0.0,0.0,-1.5068,-1.5068,-1.5068,0.0,0.0,0.0,0.0,0.0,-1.5684,-1.5913,-1.7084,-1.7792,-1.8001,-2.068,-2.2279,-2.28,-2.4736,-2.5693,-2.5693,-2.5693,-2.5693,-2.5693,-2.5693,-2.5693,-2.5693,-2.5693,-2.5693,-2.5693,-2.5693,-2.5693,-2.5693,-2.5693,-2.5693,-2.5693,0.0,0.0,-1.7582,-1.7582,-1.7582,-1.7582,-1.7582,-1.7582,-1.7582,-1.7582,-1.7582,-1.7582,-1.7582,-1.7582,-1.7582,-1.7582,-1.7582,-1.7582,-1.7582,-1.7582,-1.7582,-1.7582,-1.7582,-1.7582,-1.7582,-1.7582,-1.7582,-1.7582,-1.7582,-1.7582,-1.7582,-1.7582,-1.7582,-1.7582,-1.7582,-1.7582,-1.7582,-1.7582,-1.7582,-1.7582,-1.7582,-1.7582,-1.7582,-1.7582,-1.7582,-1.7582,-1.7582,-1.7582,-1.7582,-1.7582,-1.7582,-1.7582,-1.7582,-1.7582,-1.7529,-1.7199,-1.6823,-1.6605,-1.6605,-1.6605,-1.6592,-1.6523,-1.6346,-1.6163,-1.6087,-1.5726,-1.5452,-1.568,-1.554,-1.5439,-1.573,-1.5784,-1.5784,-1.5784,-1.5772,-1.5732,-1.5732,-1.5665,0.0,0.0,-1.5625,-1.5625,-1.5625,-1.5625,-1.5625,0.0,0.0,0.0,0.0,-1.6649,-1.7191,-1.7264,-1.7552,-1.8776,-2.0954,-2.1649,-2.2843,-2.4525,-2.5324,-2.5693,-2.5693,-2.5693,-2.5693,-2.5693,-2.5693,-2.5693,-2.5693,-2.5693,-2.5693,-2.5693,-2.5693,-2.5693,-2.5693,-2.5693,-2.5693,-2.5693,-1.7582,-1.7582,-1.7582,-1.7582,-1.7582,-1.7582,-1.7582,-1.7582,-1.7582,-1.7582,-1.7582,-1.7582,-1.7582,-1.7582,-1.7582,-1.7582,-1.7582,-1.7582,-1.7582,-1.7582,-1.7582,-1.7582,-1.7582,-1.7582,-1.7582,-1.7582,-1.7582,-1.7582,-1.7582,-1.7582,-1.7582,-1.7582,-1.7582,-1.7582,-1.7582,-1.7582,-1.7582,-1.7582,-1.7582,-1.7582,-1.7582,-1.7582,-1.7582,-1.7582,-1.7582,-1.7582,-1.7582,-1.7582,-1.7582,-1.7582,-1.7582,-1.7582,-1.7582,-1.7582,-1.7582,-1.7582,-1.7582,-1.7582,-1.7582,-1.7582,-1.7582,-1.7582,-1.7514,-1.7367,-1.7233,-1.6951,-1.6683,-1.65,-1.6239,-1.6032,-1.6032,-1.5919,-1.5784,-1.5784,-1.5784,-1.5784,-1.5784,-1.5784,-1.5784,-1.5784,-1.5784,-1.5784,-1.5784,-1.5784,-1.5784,-1.5784,-1.5784,0.0,-1.6025,-1.7253,-1.7955,-1.7955,-1.9065,-2.0492,-2.2241,-2.3038,-2.4088,-2.5371,-2.5625,-2.5693,-2.5693,-2.5693,-2.5693,-2.5693,-2.5693,-2.5693,-2.5693,-2.5693,-2.5693,-2.5693,-2.5693,-2.5693,-2.5693,-2.5693,-2.5693,-2.5781,-1.7582,-1.7582,-1.7582,-1.7582,-1.7582,-1.7582,-1.7582,-1.7582,-1.7582,-1.7582,-1.7582,-1.7582,-1.7582,-1.7582,-1.7582,-1.7582,-1.7582,-1.7582,-1.7582,-1.7582,-1.7582,-1.7582,-1.7582,-1.7582,-1.7582,-1.7582,-1.7582,-1.7582,-1.7582,-1.7582,-1.7582,-1.7582,-1.7582,-1.7582,-1.7582,-1.7582,-1.7582,-1.7582,-1.7582,-1.7582,-1.7582,-1.7582,-1.7582,-1.7582,-1.7582,-1.7582,-1.7582,-1.7582,-1.7582,-1.7582,-1.7582,-1.7582,-1.7582,-1.7582,-1.7582,-1.7582,-1.7582,-1.7582,-1.7582,-1.7582,-1.7582,-1.7582,-1.7582,-1.7515,-1.7326,-1.7233,-1.7132,-1.682,-1.654,-1.6339,-1.6339,-1.6092,-1.5899,-1.5899,-1.5811,-1.5784,-1.5784,0.0,-1.5784,-1.5784,-1.5784,-1.5784,-1.5784,-1.5784,-1.5798,-1.5892,-1.6082,-1.6307,-1.6654,-1.81,-1.8971,-1.9025,-2.101,-2.2399,-2.2978,-2.4459,-2.5361,-2.5693,-2.5693,-2.5693,-2.5693,-2.5693,-2.5693,-2.5693,-2.5693,-2.5693,-2.5693,-2.5693,-2.5693,-2.5693,-2.5693,-2.5693,-2.5693,-2.5693,-2.583,-2.6159,-1.7582,-1.7582,-1.7582,-1.7582,-1.7582,-1.7582,-1.7582,-1.7582,-1.7582,-1.7582,-1.7582,-1.7582,-1.7582,-1.7582,-1.7582,-1.7582,-1.7582,-1.7582,-1.7582,-1.7582,-1.7582,-1.7582,-1.7582,-1.7582,-1.7582,-1.7582,-1.7582,-1.7582,-1.7582,-1.7582,-1.7582,-1.7582,-1.7582,-1.7582,-1.7582,-1.7582,-1.7582,-1.7582,-1.7582,-1.7582,-1.7582,-1.7582,-1.7582,-1.7582,-1.7582,-1.7582,-1.7582,-1.7582,-1.7582,-1.7582,-1.7582,-1.7582,-1.7582,-1.7582,-1.7582,-1.7582,-1.7582,-1.7582,-1.7582,-1.7582,-1.7582,-1.7582,-1.7582,-1.7569,-1.7522,-1.738,-1.7186,-1.7139,-1.684,-1.664,-1.664,-1.64,-1.6206,-1.6206,-1.5992,-1.5784,-1.5784,0.0,-1.5784,-1.5784,-1.5784,-1.5784,-1.5784,-1.5784,-1.5932,-1.6186,-1.7289,-1.8038,-1.8314,-2.0639,-2.209,-2.2456,-2.2497,-2.3232,-2.4715,-2.5314,-2.5625,-2.5693,-2.5693,-2.5693,-2.5693,-2.5693,-2.5693,-2.5693,-2.5693,-2.5693,-2.5693,-2.5693,-2.5693,-2.5693,-2.5693,-2.5693,-2.5693,-2.5693,-2.638,-2.7305,-1.7582,-1.7582,-1.7582,-1.7582,-1.7582,-1.7582,-1.7582,-1.7582,-1.7582,-1.7582,-1.7582,-1.7582,-1.7582,-1.7582,-1.7582,-1.7582,-1.7582,-1.7582,-1.7582,-1.7582,-1.7582,-1.7582,-1.7582,-1.7582,-1.7582,-1.7582,-1.7582,-1.7582,-1.7582,-1.7582,-1.7582,-1.7582,-1.7582,-1.7582,-1.7582,-1.7582,-1.7582,-1.7582,-1.7582,-1.7582,-1.7582,-1.7582,-1.7582,-1.7582,-1.7582,-1.7582,-1.7582,-1.7582,-1.7582,-1.7582,-1.7582,-1.7582,-1.7582,-1.7582,-1.7582,-1.7582,-1.7582,-1.7582,-1.7582,-1.7582,-1.7582,-1.7582,-1.7582,-1.7582,-1.7582,-1.7475,-1.7434,-1.7434,-1.7199,-1.6947,-1.6947,-1.6707,-1.6506,-1.6506,-1.6393,0.0,-1.6299,-1.6299,-1.6299,-1.6299,-1.6299,-1.6299,-1.6299,-1.6299,-1.6647,-1.7554,-1.8189,-1.8949,-2.001,-2.1895,-2.3112,-2.3452,-2.3987,-2.4631,-2.543,-2.5635,-2.5693,-2.5693,-2.5693,-2.5693,-2.5693,-2.5693,-2.5693,-2.5693,-2.5693,-2.5693,-2.5693,-2.5693,-2.5693,-2.5693,-2.5693,-2.5693,-2.5781,-2.6476,-2.6658,-2.6849,-1.7989,-1.7847,-1.7795,-1.8151,-1.8001,-1.7949,-1.8254,-1.8307,-1.8307,-1.8307,-1.8298,-1.8257,-1.8257,-1.7826,-1.7582,-1.7582,-1.7582,-1.7582,-1.7582,-1.7582,-1.7582,-1.7582,-1.7582,-1.7582,-1.7582,-1.7582,-1.7582,-1.7582,-1.7582,-1.7582,-1.7582,-1.7582,-1.7582,-1.7582,-1.7582,-1.7582,-1.7582,-1.7582,-1.7582,-1.7582,-1.7582,-1.7582,-1.7582,-1.7582,-1.7582,-1.7582,-1.7582,-1.7582,-1.7582,-1.7582,-1.7582,-1.7582,-1.7582,-1.7582,-1.7582,-1.7582,-1.7582,-1.7582,-1.7582,-1.7582,-1.7582,-1.7582,-1.7582,-1.7582,-1.7582,-1.7582,-1.7582,-1.7582,-1.746,-1.73,-1.73,-1.7007,-1.6807,-1.6807,0.0,-1.6707,0.0,-1.6707,-1.6707,-1.6707,-1.7,-1.7143,-1.7143,-1.7484,-1.8094,-1.9189,-1.9589,-2.0369,-2.1708,-2.3086,-2.3932,-2.4137,-2.5177,-2.5693,-2.5693,-2.5693,-2.5693,-2.5693,-2.5693,-2.5693,-2.5693,-2.5693,-2.5693,-2.5693,-2.5693,-2.5693,-2.5693,-2.5693,-2.5693,-2.5693,-2.5693,-2.5693,-2.583,-2.6802,-2.6887,-2.6972,-1.922,-1.8646,-1.8427,-1.9826,-1.9189,-1.8899,-2.0269,-2.0478,-2.0478,-2.0478,-2.027,-2.0091,-2.0091,-1.8622,-1.7582,-1.7582,-1.7582,-1.7582,-1.7582,-1.7582,-1.7582,-1.7582,-1.7582,-1.7582,-1.7582,-1.7582,-1.7582,-1.7582,-1.7582,-1.7582,-1.7582,-1.7582,-1.7582,-1.7582,-1.7582,-1.7582,-1.7582,-1.7582,-1.7582,-1.7582,-1.7582,-1.7582,-1.7582,-1.7582,-1.7582,-1.7582,-1.7582,-1.7582,-1.7582,-1.7582,-1.7582,-1.7582,-1.7582,-1.7582,-1.7582,-1.7582,-1.7582,-1.7582,-1.7582,-1.7582,-1.7582,-1.7582,-1.7582,-1.7582,-1.7582,-1.7582,-1.7582,-1.7582,-1.7562,-1.7549,-1.7549,-1.7367,-1.7166,-1.7166,0.0,0.0,-1.6707,-1.6707,-1.6707,-1.6707,-1.7775,-1.855,-1.855,-1.9748,-2.0653,-2.0983,-2.2209,-2.3134,-2.352,-2.4767,-2.5557,-2.5528,-2.5635,-2.5693,-2.5693,-2.5693,-2.5693,-2.5693,-2.5693,-2.5693,-2.5693,-2.5693,-2.5693,-2.5693,-2.5693,-2.5693,-2.5693,-2.5693,-2.5693,-2.5693,-2.5693,-2.5693,-2.5684,-2.583,-2.7247,-2.9177,-2.1549,-2.1343,-2.1224,-2.1801,-2.1539,-2.1418,-2.1993,-2.2047,-2.2047,-2.2047,-2.1988,-2.19,-2.19,-2.1311,-2.0863,-2.0863,-2.0678,-2.0502,-2.0502,-1.9435,-1.8454,-1.7635,-1.7582,-1.7582,-1.7582,-1.7582,-1.7582,-1.7582,-1.7582,-1.7582,-1.7582,-1.7582,-1.7582,-1.7582,-1.7582,-1.7582,-1.7582,-1.7582,-1.7582,-1.7582,-1.7582,-1.7582,-1.7582,-1.7582,-1.7582,-1.7582,-1.7582,-1.7582,-1.7582,-1.7582,-1.7582,-1.7582,-1.7582,-1.7582,-1.7582,-1.7582,-1.7582,-1.7582,-1.7582,-1.7582,-1.7582,-1.7582,-1.7582,-1.7582,-1.7582,-1.7582,-1.7582,-1.7582,-1.7582,-1.7582,-1.7582,-1.7548,-1.7467,-1.7467,0.0,-1.7551,-1.8403,-1.8505,-1.8804,-1.9694,-2.0247,-2.0548,-2.0548,-2.1039,-2.1743,-2.2691,-2.326,-2.3941,-2.4913,-2.543,-2.5693,-2.5693,-2.5693,-2.5693,-2.5693,-2.5693,-2.5693,-2.5693,-2.5693,-2.5693,-2.5693,-2.5693,-2.5693,-2.5693,-2.5693,-2.5693,-2.5693,-2.5693,-2.5693,-2.5693,-2.5693,-2.5693,-2.5781,-2.6572,-2.7484,-2.8495,-2.3483,-2.3319,-2.3181,-2.3662,-2.3434,-2.3357,-2.3832,-2.3886,-2.3886,-2.3886,-2.3783,-2.3768,-2.3768,-2.3232,-2.29,-2.29,-2.2631,-2.249,-2.249,-2.0895,-1.9223,-1.7694,-1.7582,-1.7582,-1.7582,-1.7582,-1.7582,-1.7582,-1.7582,-1.7582,-1.7582,-1.7582,-1.7582,-1.7582,-1.7582,-1.7582,-1.7582,-1.7582,-1.7582,-1.7582,-1.7582,-1.7582,-1.7582,-1.7582,-1.7582,-1.7582,-1.7582,-1.7582,-1.7582,-1.7582,-1.7582,-1.7582,-1.7582,-1.7582,-1.7582,-1.7582,-1.7891,-1.8251,-1.8251,-1.8551,-1.8708,-1.7838,-1.7582,-1.7582,-1.7582,-1.7582,-1.7582,-1.7582,-1.7943,-1.8251,-1.8251,-1.8603,-1.8909,-1.8909,-1.8909,-1.9213,-2.0128,-2.0238,-2.0641,-2.16,-2.2055,-2.2316,-2.2316,-2.2717,-2.3335,-2.4254,-2.4353,-2.4716,-2.5635,-2.5693,-2.5693,-2.5693,-2.5693,-2.5693,-2.5693,-2.5693,-2.5693,-2.5693,-2.5693,-2.5693,-2.5693,-2.5693,-2.5693,-2.5693,-2.5693,-2.5693,-2.5693,-2.5693,-2.5693,-2.5693,-2.5693,-2.5693,-2.5868,-2.7125,-2.7814,-2.8448,-2.4769,-2.4172,-2.3891,-2.5397,-2.4625,-2.4322,-2.5873,-2.61,-2.61,-2.61,-2.581,-2.561,-2.561,-2.4032,-2.2961,-2.2961,-2.2961,-2.2908,-2.29,-2.1564,-1.9786,-1.7714,-1.7641,-1.7635,-1.7635,-1.7635,-1.7635,-1.7582,-1.7582,-1.7582,-1.7582,-1.7582,-1.7582,-1.7582,-1.7582,-1.7582,-1.7582,-1.7582,-1.7582,-1.7582,-1.7582,-1.7582,-1.7582,-1.7582,-1.7582,-1.7582,-1.7582,-1.7635,-1.7635,-1.7635,-1.7635,-1.7635,-1.7635,-1.7635,-1.7635,-1.7635,-1.8551,-1.9627,-1.9627,-2.0641,-2.1041,-1.8297,-1.7635,-1.7635,-1.7635,-1.7635,-1.7635,-1.7635,-1.8708,-1.9627,-1.9627,-2.0743,-2.1702,-2.1702,-2.1702,-2.1702,-2.1693,-2.1702,-2.1702,-2.1752,-2.2926,-2.3741,-2.3741,-2.4913,-2.5693,-2.5693,-2.5693,-2.5693,-2.5693,-2.5693,-2.5693,-2.5693,-2.5693,-2.5693,-2.5693,-2.5693,-2.5693,-2.5693,-2.5693,-2.5693,-2.5693,-2.5693,-2.5693,-2.5693,-2.5693,-2.5693,-2.5693,-2.5693,-2.5693,-2.5693,-2.5693,-2.5693,-2.5868,-2.7125,-2.8366,-2.959,-2.7246,-2.7075,-2.699,-2.7428,-2.7201,-2.7114,-2.7555,-2.7618,-2.7618,-2.7618,-2.7558,-2.7481,-2.7481,-2.6984,-2.6695,-2.6695,-2.6433,-2.5715,-2.4455,-2.3957,-2.3011,-2.1372,-2.0045,-1.9252,-1.902,-1.9013,-1.8558,-1.7582,-1.7582,-1.7582,-1.7582,-1.7582,-1.7582,-1.7582,-1.7582,-1.7582,-1.7582,-1.7582,-1.7582,-1.7582,-1.7582,-1.7582,-1.7582,-1.7582,-1.7582,-1.7582,-1.7582,-1.8199,-1.9013,-1.9013,-1.9672,-2.0487,-2.0487,-2.0487,-2.0487,-2.0487,-2.0735,-2.1092,-2.1092,-2.1397,-2.1499,-2.0684,-2.0487,-2.0487,-2.0487,-2.0487,-2.0487,-2.0487,-2.0786,-2.1092,-2.1092,-2.1448,-2.1702,-2.1702,-2.1702,-2.2055,-2.2976,-2.3076,-2.3434,-2.4402,-2.4864,-2.5118,-2.5118,-2.5489,-2.5693,-2.5693,-2.5693,-2.5693,-2.5693,-2.5693,-2.5693,-2.5693,-2.5693,-2.5693,-2.5693,-2.5693,-2.5693,-2.5693,-2.5693,-2.5693,-2.5693,-2.5693,-2.5693,-2.5693,-2.5693,-2.5693,-2.5693,-2.5693,-2.5693,-2.5693,-2.5693,-2.5693,-2.5868,-2.7125,-2.8366,-2.959,-2.8291,-2.8291,-2.8291,-2.8291,-2.8291,-2.8291,-2.8291,-2.8291,-2.8291,-2.8291,-2.8291,-2.8291,-2.8291,-2.8291,-2.8291,-2.8291,-2.8057,-2.7468,-2.6383,-2.5766,-2.5261,-2.4791,-2.3121,-2.1775,-2.0909,-2.0893,-2.0421,-1.9463,-1.9463,-1.9397,-1.9213,-1.9213,-1.9213,-1.9213,-1.9213,-1.9213,-1.9213,-1.9213,-1.9213,-1.9213,-1.9213,-1.9213,-1.9213,-1.9213,-1.9213,-1.9213,-1.9213,-1.9723,-2.0436,-2.0436,-2.0998,-2.1702,-2.1702,-2.1702,-2.1702,-2.1702,-2.2055,-2.2508,-2.2508,-2.2868,-2.3276,-2.3276,-2.2466,-2.1702,-2.1702,-2.1702,-2.1702,-2.1702,-2.2106,-2.2508,-2.2508,-2.2918,-2.3276,-2.3276,-2.3276,-2.3583,-2.4353,-2.4501,-2.4815,-2.5586,-2.5693,-2.5693,-2.5693,-2.5693,-2.5693,-2.5693,-2.5693,-2.5693,-2.5693,-2.5693,-2.5693,-2.5693,-2.5693,-2.5693,-2.5693,-2.5693,-2.5693,-2.5693,-2.5693,-2.5693,-2.5693,-2.5693,-2.5693,-2.5693,-2.5693,-2.5693,-2.5693,-2.5693,-2.5693,-2.5693,-2.5693,-2.5693,-2.5917,-2.7673,-2.8773,-2.9636,-2.8291,-2.8291,-2.8291,-2.8291,-2.8291,-2.8291,-2.8291,-2.8291,-2.8291,-2.8291,-2.8291,-2.8291,-2.8291,-2.8291,-2.8291,-2.8291,-2.8291,-2.8291,-2.8291,-2.7051,-2.6721,-2.7734,-2.6383,-2.4952,-2.3434,-2.3199,-2.2847,-2.2366,-2.2366,-2.2192,-2.1801,-2.1801,-2.1801,-2.1801,-2.1801,-2.1776,-2.1751,-2.1751,-2.1735,-2.1702,-2.1702,-2.1702,-2.1702,-2.1702,-2.1702,-2.1702,-2.1702,-2.1803,-2.1904,-2.2005,-2.2055,-2.2055,-2.2055,-2.2055,-2.2055,-2.2055,-2.2918,-2.389,-2.389,-2.4766,-2.5693,-2.5693,-2.384,-2.2055,-2.2055,-2.2055,-2.2055,-2.2055,-2.3026,-2.389,-2.389,-2.4864,-2.5693,-2.5693,-2.5693,-2.5693,-2.5693,-2.5693,-2.5693,-2.5693,-2.5693,-2.5693,-2.5693,-2.5693,-2.5693,-2.5693,-2.5693,-2.5693,-2.5693,-2.5693,-2.5693,-2.5693,-2.5693,-2.5693,-2.5693,-2.5693,-2.5693,-2.5693,-2.5693,-2.5693,-2.5693,-2.5693,-2.5693,-2.5693,-2.5693,-2.5693,-2.5693,-2.5693,-2.5693,-2.5693,-2.5693,-2.5693,-2.5965,-2.8355,-2.9315,-2.9772,-2.8291,-2.8291,-2.8291,-2.8291,-2.8291,-2.8291,-2.8291,-2.8291,-2.8291,-2.8291,-2.8291,-2.8291,-2.8291,-2.8291,-2.8291,-2.8291,-2.8291,-2.8291,-2.8291,-2.8014,-2.7912,-2.8154,-2.7868,-2.7491,-2.7128,-2.5452,-2.3974,-2.2784,-2.2784,-2.2742,-2.2667,-2.2667,-2.2667,-2.2667,-2.2667,-2.2457,-2.2192,-2.2192,-2.1975,-2.1702,-2.1702,-2.1702,-2.1702,-2.1702,-2.1702,-2.1702,-2.1702,-2.2366,-2.3434,-2.4461,-2.4815,-2.4815,-2.4815,-2.4815,-2.4815,-2.4815,-2.502,-2.5274,-2.5274,-2.5479,-2.5693,-2.5693,-2.5274,-2.4815,-2.4815,-2.4815,-2.4815,-2.4815,-2.5069,-2.5274,-2.5274,-2.5479,-2.5693,-2.5693,-2.5693,-2.5693,-2.5693,-2.5693,-2.5693,-2.5693,-2.5693,-2.5693,-2.5693,-2.5693,-2.5693,-2.5693,-2.5693,-2.5693,-2.5693,-2.5693,-2.5693,-2.5693,-2.5693,-2.5693,-2.5693,-2.5693,-2.5693,-2.5693,-2.5693,-2.5693,-2.5693,-2.5693,-2.5693,-2.5693,-2.5693,-2.5693,-2.5693,-2.5693,-2.5693,-2.5693,-2.5693,-2.5693,-2.5878,-2.74,-2.8588,-2.9772,-2.8291,-2.8291,-2.8291,-2.8291,-2.8291,-2.8291,-2.8291,-2.8291,-2.8291,-2.8291,-2.8291,-2.8291,-2.8291,-2.8291,-2.8291,-2.8291,-2.8291,-2.8291,-2.8291,-2.8291,-2.8291,-2.8291,-2.8291,-2.8291,-2.8291,-2.7189,-2.6101,-2.5214,-2.5214,-2.5062,-2.4873,-2.4873,-2.4873,-2.4873,-2.4873,-2.4765,-2.4524,-2.4524,-2.4398,-2.4251,-2.4251,-2.4251,-2.4251,-2.4251,-2.4251,-2.4251,-2.4251,-2.4666,-2.5399,-2.6089,-2.6298,-2.6318,-2.6113,-2.6045,-2.6006,-2.5752,-2.5693,-2.5693,-2.5693,-2.5693,-2.5693,-2.5693,-2.5693,-2.5693,-2.5693,-2.5693,-2.5693,-2.5693,-2.5693,-2.5693,-2.5693,-2.5693,-2.5693,-2.5693,-2.5693,-2.5693,-2.5693,-2.5693,-2.5693,-2.5693,-2.5693,-2.5693,-2.5693,-2.5693,-2.5693,-2.5693,-2.5693,-2.5693,-2.5693,-2.5693,-2.5693,-2.5693,-2.5693,-2.5693,-2.5693,-2.5693,-2.5693,-2.5693,-2.5693,-2.5693,-2.5693,-2.5693,-2.5693,-2.5693,-2.5693,-2.5693,-2.5693,-2.5693,-2.5693,-2.5693,-2.5693,-2.6062,-2.6754,-2.7992,-2.9601,-3.1335,-2.8291,-2.8291,-2.8291,-2.8291,-2.8291,-2.8291,-2.8291,-2.8291,-2.8291,-2.8291,-2.8291,-2.8291,-2.8291,-2.8291,-2.8291,-2.8291,-2.8291,-2.8291,-2.8291,-2.8291,-2.8291,-2.8291,-2.8291,-2.8291,-2.8291,-2.8291,-2.8125,-2.7826,-2.7826,-2.7588,-2.7236,-2.7236,-2.7236,-2.7236,-2.7236,-2.7197,-2.7129,-2.7129,-2.708,-2.7012,-2.7012,-2.7012,-2.7012,-2.7012,-2.7012,-2.7012,-2.7012,-2.7012,-2.7012,-2.7012,-2.7012,-2.6953,-2.6602,-2.6494,-2.6426,-2.6015,-2.5908,-2.5888,-2.582,-2.5801,-2.5781,-2.5703,-2.5693,-2.5693,-2.5693,-2.5693,-2.5693,-2.5693,-2.5693,-2.5693,-2.5693,-2.5693,-2.5693,-2.5693,-2.5693,-2.5693,-2.5693,-2.5693,-2.5693,-2.5693,-2.5693,-2.5693,-2.5693,-2.5693,-2.5693,-2.5693,-2.5693,-2.5693,-2.5693,-2.5693,-2.5693,-2.5693,-2.5762,-2.5801,-2.5801,-2.5869,-2.5908,-2.5908,-2.5908,-2.5869,-2.5801,-2.5879,-2.5908,-2.5908,-2.5908,-2.5908,-2.5908,-2.5908,-2.5908,-2.5957,-2.6182,-2.684,-2.7883,-2.9211,-3.1059,-3.2947,-2.8291,-2.8291,-2.8291,-2.8291,-2.8291,-2.8291,-2.8291,-2.8291,-2.8291,-2.8291,-2.8291,-2.8291,-2.8291,-2.8291,-2.8291,-2.8291,-2.8291,-2.8291,-2.8291,-2.8291,-2.8291,-2.8291,-2.8291,-2.8291,-2.8291,-2.8291,-2.8262,-2.8203,-2.8203,-2.8174,-2.8115,-2.8115,-2.8115,-2.8115,-2.8115,-2.792,-2.763,-2.763,-2.7363,-2.7012,-2.7012,-2.7012,-2.7012,-2.7012,-2.7012,-2.7012,-2.7012,-2.7012,-2.7012,-2.7012,-2.7012,-2.7002,-2.6943,-2.6934,-2.6914,-2.6855,-2.6836,-2.6758,-2.6396,-2.6299,-2.6211,-2.5781,-2.5693,-2.5693,-2.5693,-2.5693,-2.5693,-2.5693,-2.5693,-2.5693,-2.5693,-2.5693,-2.5693,-2.5693,-2.5693,-2.5693,-2.5693,-2.5693,-2.5693,-2.5693,-2.5693,-2.5693,-2.5693,-2.5693,-2.5693,-2.5693,-2.5693,-2.5693,-2.5693,-2.5693,-2.5693,-2.5693,-2.6103,-2.6299,-2.6299,-2.666,-2.6836,-2.6836,-2.6836,-2.665,-2.6309,-2.668,-2.6836,-2.6836,-2.6836,-2.6836,-2.6836,-2.6836,-2.6836,-2.6937,-2.8092,-2.8376,-2.8354,-3.0239,-3.152,-3.2388,-2.8291,-2.8291,-2.8291,-2.8291,-2.8291,-2.8291,-2.8291,-2.8291,-2.8291,-2.8291,-2.8291,-2.8291,-2.8291,-2.8291,-2.8291,-2.8291,-2.8291,-2.8291,-2.8291,-2.8291,-2.8291,-2.8291,-2.8291,-2.8291,-2.8291,-2.8291,-2.8291,-2.8291,-2.8291,-2.8291,-2.8291,-2.8291,-2.8291,-2.8291,-2.8291,-2.8193,-2.8018,-2.8018,-2.791,-2.7734,-2.7734,-2.7734,-2.7734,-2.7734,-2.7734,-2.7734,-2.7734,-2.7734,-2.7734,-2.7734,-2.7734,-2.7685,-2.7451,-2.7373,-2.7334,-2.709,-2.7012,-2.6973,-2.6787,-2.6738,-2.6699,-2.6504,-2.6455,-2.6387,-2.6152,-2.6103,-2.6035,-2.5732,-2.5693,-2.5693,-2.5693,-2.5693,-2.5693,-2.5693,-2.5693,-2.5693,-2.5693,-2.5693,-2.5693,-2.5693,-2.5693,-2.5693,-2.5693,-2.5693,-2.5693,-2.5693,-2.5967,-2.6103,-2.6103,-2.6328,-2.6455,-2.6455,-2.6641,-2.6738,-2.6738,-2.6924,-2.7012,-2.7012,-2.7266,-2.7158,-2.6748,-2.6934,-2.7012,-2.7012,-2.7012,-2.7012,-2.7012,-2.7012,-2.745,-2.8176,-2.8755,-2.9737,-3.1001,-3.2563,-3.3338,-3.365]},{"header":{"parameterUnit":"m.s-1","parameterCategory":1,"la1":30.6,"la2":28.766,"lo1":-90.7593,"lo2":-88.6598,"dy":0.0162,"dx":0.0183,"nx":116,"ny":114,"refTime":"2024-03-08T06:00:00:Z","depth":0,"parameterNumber":3,"parameterNumberName":"V-component_of_WINDS"},"data":[0.0,0.0,0.0,0.0,0.0,0.0,0.0,0.0,0.0,0.0,0.0,0.0,0.0,0.0,0.0,0.0,0.0,0.0,0.0,0.0,0.0,0.0,0.0,0.0,0.0,0.0,0.0,0.0,0.0,0.0,0.0,0.0,0.0,0.0,0.0,0.0,0.0,0.0,0.0,0.0,0.0,0.0,0.0,0.0,0.0,0.0,0.0,0.0,0.0,0.0,0.0,0.0,0.0,0.0,0.0,0.0,0.0,0.0,0.0,0.0,0.0,0.0,0.0,0.0,0.0,0.0,0.0,0.0,0.0,0.0,0.0,0.0,0.0,0.0,0.0,0.0,0.0,0.0,0.0,0.0,0.0,0.0,0.0,0.0,0.0,0.0,0.0,0.0,0.0,0.0,0.0,0.0,0.0,0.0,0.0,0.0,0.0,0.0,0.0,0.0,0.0,0.0,0.0,0.0,0.0,0.0,0.0,0.0,0.0,0.0,0.0,0.0,0.0,0.0,0.0,0.0,0.0,0.0,0.0,0.0,0.0,0.0,0.0,0.0,0.0,0.0,0.0,0.0,0.0,0.0,0.0,0.0,0.0,0.0,0.0,0.0,0.0,0.0,0.0,0.0,0.0,0.0,0.0,0.0,0.0,0.0,0.0,0.0,0.0,0.0,0.0,0.0,0.0,0.0,0.0,0.0,0.0,0.0,0.0,0.0,0.0,0.0,0.0,0.0,0.0,0.0,0.0,0.0,0.0,0.0,0.0,0.0,0.0,0.0,0.0,0.0,0.0,0.0,0.0,0.0,0.0,0.0,0.0,0.0,0.0,0.0,0.0,0.0,0.0,0.0,0.0,0.0,0.0,0.0,0.0,0.0,0.0,0.0,0.0,0.0,0.0,0.0,0.0,0.0,0.0,0.0,0.0,0.0,0.0,0.0,0.0,0.0,0.0,0.0,0.0,0.0,0.0,0.0,0.0,0.0,0.0,0.0,0.0,0.0,0.0,0.0,0.0,0.0,0.0,0.0,0.0,0.0,0.0,0.0,0.0,0.0,0.0,0.0,0.0,0.0,0.0,0.0,0.0,0.0,0.0,0.0,0.0,0.0,0.0,0.0,0.0,0.0,0.0,0.0,0.0,0.0,0.0,0.0,0.0,0.0,0.0,0.0,0.0,0.0,0.0,0.0,0.0,0.0,0.0,0.0,0.0,0.0,0.0,0.0,0.0,0.0,0.0,0.0,0.0,0.0,0.0,0.0,0.0,0.0,0.0,0.0,0.0,0.0,0.0,0.0,0.0,0.0,0.0,0.0,0.0,0.0,0.0,0.0,0.0,0.0,0.0,0.0,0.0,0.0,0.0,0.0,0.0,0.0,0.0,0.0,0.0,0.0,0.0,0.0,0.0,0.0,0.0,0.0,0.0,0.0,0.0,0.0,0.0,0.0,0.0,0.0,0.0,0.0,0.0,0.0,0.0,0.0,0.0,0.0,0.0,0.0,0.0,0.0,0.0,0.0,0.0,0.0,0.0,0.0,0.0,0.0,0.0,0.0,0.0,0.0,0.0,0.0,0.0,0.0,0.0,0.0,0.0,0.0,0.0,0.0,0.0,0.0,0.0,0.0,0.0,0.0,0.0,0.0,0.0,0.0,0.0,0.0,0.0,0.0,0.0,0.0,0.0,0.0,0.0,0.0,0.0,0.0,0.0,0.0,0.0,0.0,0.0,0.0,0.0,0.0,0.0,0.0,0.0,0.0,0.0,0.0,0.0,0.0,0.0,0.0,0.0,0.0,0.0,0.0,0.0,0.0,0.0,0.0,0.0,0.0,0.0,0.0,0.0,0.0,0.0,0.0,0.0,0.0,0.0,0.0,0.0,0.0,0.0,0.0,0.0,0.0,0.0,0.0,0.0,0.0,0.0,0.0,0.0,0.0,0.0,0.0,0.0,0.0,0.0,0.0,0.0,0.0,0.0,0.0,0.0,0.0,0.0,0.0,0.0,0.0,0.0,0.0,0.0,0.0,0.0,0.0,0.0,0.0,0.0,0.0,0.0,0.0,0.0,0.0,0.0,0.0,0.0,0.0,0.0,0.0,0.0,0.0,0.0,0.0,0.0,0.0,0.0,0.0,0.0,0.0,0.0,0.0,0.0,0.0,0.0,0.0,0.0,0.0,0.0,0.0,0.0,0.0,0.0,0.0,0.0,0.0,0.0,0.0,0.0,0.0,0.0,0.0,0.0,0.0,0.0,0.0,0.0,0.0,0.0,0.0,0.0,0.0,0.0,0.0,0.0,0.0,0.0,0.0,0.0,0.0,0.0,0.0,0.0,0.0,0.0,0.0,0.0,0.0,0.0,0.0,0.0,0.0,0.0,0.0,0.0,0.0,0.0,0.0,0.0,0.0,0.0,0.0,0.0,0.0,0.0,0.0,0.0,0.0,0.0,0.0,0.0,0.0,0.0,0.0,0.0,0.0,0.0,0.0,0.0,0.0,0.0,0.0,0.0,0.0,0.0,0.0,0.0,0.0,0.0,0.0,0.0,0.0,0.0,0.0,0.0,0.0,0.0,0.0,0.0,0.0,0.0,0.0,0.0,0.0,0.0,0.0,0.0,0.0,0.0,0.0,0.0,0.0,0.0,0.0,0.0,0.0,0.0,0.0,0.0,0.0,0.0,0.0,0.0,0.0,0.0,0.0,0.0,0.0,0.0,0.0,0.0,0.0,0.0,0.0,0.0,0.0,0.0,0.0,0.0,0.0,0.0,0.0,0.0,0.0,0.0,0.0,0.0,0.0,0.0,0.0,0.0,0.0,0.0,0.0,0.0,0.0,0.0,0.0,0.0,0.0,0.0,0.0,0.0,0.0,0.0,0.0,0.0,0.0,0.0,0.0,0.0,0.0,0.0,0.0,0.0,0.0,0.0,0.0,0.0,0.0,0.0,0.0,0.0,0.0,0.0,0.0,0.0,0.0,0.0,0.0,0.0,0.0,0.0,0.0,0.0,0.0,0.0,0.0,0.0,0.0,0.0,0.0,0.0,0.0,0.0,0.0,0.0,0.0,0.0,0.0,0.0,0.0,0.0,0.0,0.0,0.0,0.0,0.0,0.0,0.0,0.0,0.0,0.0,0.0,0.0,0.0,0.0,0.0,0.0,0.0,0.0,0.0,0.0,0.0,0.0,0.0,0.0,0.0,0.0,0.0,0.0,0.0,0.0,0.0,0.0,0.0,0.0,0.0,0.0,0.0,0.0,0.0,0.0,0.0,0.0,0.0,0.0,0.0,0.0,0.0,0.0,0.0,0.0,0.0,0.0,0.0,0.0,0.0,0.0,0.0,0.0,0.0,0.0,0.0,0.0,0.0,0.0,0.0,0.0,0.0,0.0,0.0,0.0,0.0,0.0,0.0,0.0,0.0,0.0,0.0,0.0,0.0,0.0,0.0,0.0,0.0,0.0,0.0,0.0,0.0,0.0,0.0,0.0,0.0,0.0,0.0,0.0,0.0,0.0,0.0,0.0,0.0,0.0,0.0,0.0,0.0,0.0,0.0,0.0,0.0,0.0,0.0,0.0,0.0,0.0,0.0,0.0,0.0,0.0,0.0,0.0,0.0,0.0,0.0,0.0,0.0,0.0,0.0,0.0,0.0,0.0,0.0,0.0,0.0,0.0,0.0,0.0,0.0,0.0,0.0,0.0,0.0,0.0,0.0,0.0,0.0,0.0,0.0,0.0,0.0,0.0,0.0,0.0,0.0,0.0,0.0,0.0,0.0,0.0,0.0,0.0,0.0,0.0,0.0,0.0,0.0,0.0,0.0,0.0,0.0,0.0,0.0,0.0,0.0,0.0,0.0,0.0,0.0,0.0,0.0,0.0,0.0,0.0,0.0,0.0,0.0,0.0,0.0,0.0,0.0,0.0,0.0,0.0,0.0,0.0,0.0,0.0,0.0,0.0,0.0,0.0,0.0,0.0,0.0,0.0,0.0,0.0,0.0,0.0,0.0,0.0,0.0,0.0,0.0,0.0,0.0,0.0,0.0,0.0,0.0,0.0,0.0,0.0,0.0,0.0,0.0,0.0,0.0,0.0,0.0,0.0,0.0,0.0,0.0,0.0,0.0,0.0,0.0,0.0,0.0,0.0,0.0,0.0,0.0,0.0,0.0,0.0,0.0,0.0,0.0,0.0,0.0,0.0,0.0,0.0,0.0,0.0,0.0,0.0,0.0,0.0,0.0,0.0,0.0,0.0,0.0,0.0,0.0,0.0,0.0,0.0,0.0,0.0,0.0,0.0,0.0,0.0,0.0,0.0,0.0,0.0,0.0,0.0,0.0,0.0,0.0,0.0,0.0,0.0,0.0,0.0,0.0,0.0,0.0,0.0,0.0,0.0,0.0,0.0,0.0,0.0,0.0,0.0,0.0,0.0,0.0,0.0,0.0,0.0,0.0,0.0,0.0,0.0,0.0,0.0,0.0,0.0,0.0,0.0,0.0,0.0,0.0,0.0,0.0,0.0,0.0,0.0,0.0,0.0,0.0,0.0,0.0,0.0,0.0,0.0,0.0,0.0,0.0,0.0,0.0,0.0,0.0,0.0,0.0,0.0,0.0,0.0,0.0,0.0,0.0,0.0,0.0,0.0,0.0,0.0,0.0,0.0,0.0,0.0,0.0,0.0,0.0,0.0,0.0,0.0,0.0,0.0,0.0,0.0,0.0,0.0,0.0,0.0,0.0,0.0,0.0,0.0,0.0,0.0,0.0,0.0,0.0,0.0,0.0,0.0,0.0,0.0,0.0,0.0,0.0,0.0,0.0,0.0,0.0,0.0,0.0,0.0,0.0,0.0,0.0,0.0,0.0,0.0,0.0,0.0,0.0,0.0,0.0,0.0,0.0,0.0,0.0,0.0,0.0,0.0,0.0,0.0,0.0,0.0,0.0,0.0,0.0,0.0,0.0,0.0,0.0,0.0,0.0,0.0,0.0,0.0,0.0,0.0,0.0,0.0,0.0,0.0,0.0,0.0,0.0,0.0,0.0,0.0,0.0,0.0,0.0,0.0,0.0,0.0,0.0,0.0,0.0,0.0,0.0,0.0,0.0,0.0,0.0,0.0,0.0,0.0,0.0,0.0,0.0,0.0,0.0,0.0,0.0,0.0,0.0,0.0,0.0,0.0,0.0,0.0,0.0,0.0,0.0,0.0,0.0,0.0,0.0,0.0,0.0,0.0,0.0,0.0,0.0,0.0,0.0,0.0,0.0,0.0,0.0,0.0,0.0,0.0,0.0,0.0,0.0,0.0,0.0,0.0,0.0,0.0,0.0,0.0,0.0,0.0,0.0,0.0,0.0,0.0,0.0,0.0,0.0,0.0,0.0,0.0,0.0,0.0,0.0,0.0,0.0,0.0,0.0,0.0,0.0,0.0,0.0,0.0,0.0,0.0,0.0,0.0,0.0,0.0,0.0,0.0,0.0,0.0,0.0,0.0,0.0,0.0,0.0,0.0,0.0,0.0,0.0,0.0,0.0,0.0,0.0,0.0,0.0,0.0,0.0,0.0,0.0,0.0,0.0,0.0,0.0,0.0,0.0,0.0,0.0,0.0,0.0,0.0,0.0,0.0,0.0,0.0,0.0,0.0,0.0,0.0,0.0,0.0,0.0,0.0,0.0,0.0,0.0,0.0,0.0,0.0,0.0,0.0,0.0,0.0,0.0,0.0,0.0,0.0,0.0,0.0,0.0,0.0,0.0,0.0,0.0,0.0,0.0,0.0,0.0,0.0,0.0,0.0,0.0,0.0,0.0,0.0,0.0,0.0,0.0,0.0,0.0,0.0,0.0,0.0,0.0,0.0,0.0,0.0,0.0,0.0,0.0,0.0,0.0,0.0,0.0,0.0,0.0,0.0,0.0,0.0,0.0,0.0,0.0,0.0,0.0,0.0,0.0,0.0,0.0,0.0,0.0,0.0,0.0,0.0,0.0,0.0,0.0,0.0,0.0,0.0,0.0,0.0,0.0,0.0,0.0,0.0,0.0,0.0,0.0,0.0,0.0,0.0,0.0,0.0,0.0,0.0,0.0,0.0,0.0,0.0,0.0,0.0,0.0,0.0,0.0,0.0,0.0,0.0,0.0,0.0,0.0,3.0226,0.0,0.0,0.0,0.0,0.0,0.0,0.0,0.0,0.0,0.0,0.0,0.0,0.0,0.0,0.0,0.0,0.0,0.0,0.0,0.0,0.0,0.0,0.0,0.0,0.0,0.0,0.0,2.8345,2.8856,2.8781,2.9601,3.0088,3.0088,3.0519,3.0753,3.0753,3.0753,3.0753,3.0753,3.0789,3.0837,3.0898,3.0898,0.0,0.0,0.0,0.0,0.0,0.0,0.0,0.0,0.0,0.0,0.0,0.0,0.0,0.0,0.0,0.0,0.0,0.0,0.0,0.0,0.0,0.0,0.0,0.0,0.0,0.0,0.0,0.0,0.0,0.0,0.0,0.0,0.0,0.0,0.0,0.0,0.0,0.0,0.0,0.0,0.0,0.0,0.0,0.0,0.0,0.0,0.0,0.0,0.0,0.0,0.0,0.0,0.0,0.0,0.0,0.0,0.0,0.0,0.0,0.0,0.0,0.0,0.0,0.0,0.0,0.0,0.0,0.0,0.0,0.0,0.0,0.0,0.0,3.0793,0.0,0.0,0.0,0.0,0.0,0.0,0.0,0.0,0.0,0.0,0.0,0.0,0.0,0.0,0.0,0.0,0.0,0.0,0.0,0.0,0.0,0.0,0.0,2.7934,2.8436,2.8321,2.9152,2.9648,2.953,3.0191,3.0603,3.0603,3.0603,3.0603,3.0603,3.0603,3.0603,3.0603,3.0671,3.077,3.0898,0.0,0.0,0.0,0.0,0.0,0.0,0.0,0.0,0.0,0.0,0.0,0.0,0.0,0.0,0.0,0.0,0.0,0.0,0.0,0.0,0.0,0.0,0.0,0.0,0.0,0.0,0.0,0.0,0.0,0.0,0.0,0.0,0.0,0.0,0.0,0.0,0.0,0.0,0.0,0.0,0.0,0.0,0.0,0.0,0.0,0.0,0.0,0.0,0.0,0.0,0.0,0.0,0.0,0.0,0.0,0.0,0.0,0.0,0.0,0.0,0.0,0.0,0.0,0.0,0.0,0.0,0.0,3.0847,3.0914,3.1047,3.1047,3.1012,3.0986,3.1194,3.1127,3.0832,3.0832,0.0,0.0,0.0,0.0,0.0,0.0,0.0,0.0,0.0,0.0,0.0,0.0,0.0,0.0,0.0,0.0,0.0,0.0,0.0,0.0,0.0,2.8688,2.9155,2.9135,2.9947,3.0459,3.0428,3.0544,3.0603,3.0603,3.0603,3.0603,3.0603,3.0603,3.0603,3.0603,3.0671,3.077,3.0898,3.0898,3.0898,3.0898,3.0898,0.0,0.0,0.0,0.0,0.0,0.0,0.0,0.0,0.0,0.0,0.0,0.0,0.0,0.0,0.0,0.0,0.0,0.0,0.0,0.0,0.0,0.0,0.0,0.0,0.0,0.0,0.0,0.0,0.0,0.0,0.0,0.0,0.0,0.0,0.0,0.0,0.0,0.0,0.0,0.0,0.0,0.0,0.0,3.0898,3.0898,0.0,0.0,0.0,0.0,0.0,0.0,0.0,0.0,0.0,0.0,0.0,0.0,0.0,3.0633,3.0633,3.0625,3.0987,3.174,3.1731,3.2111,3.2866,3.2866,3.284,3.2852,3.2885,0.0,3.0545,3.0545,0.0,0.0,0.0,0.0,0.0,0.0,0.0,0.0,0.0,0.0,0.0,0.0,0.0,0.0,0.0,0.0,0.0,0.0,0.0,0.0,0.0,2.9496,2.9994,2.991,3.03,3.0525,3.0495,3.0491,3.0491,3.0491,3.0491,3.0491,3.0491,3.0491,3.0507,3.0529,3.0575,3.065,3.0792,3.0792,3.0836,3.0898,3.0898,3.0898,3.0898,3.0898,0.0,0.0,0.0,0.0,0.0,0.0,0.0,0.0,0.0,0.0,0.0,0.0,0.0,0.0,0.0,0.0,0.0,0.0,0.0,0.0,0.0,0.0,0.0,0.0,0.0,0.0,0.0,0.0,0.0,0.0,0.0,0.0,0.0,0.0,0.0,0.0,0.0,0.0,0.0,3.0898,3.0898,3.0898,3.0898,3.0898,0.0,0.0,0.0,0.0,0.0,0.0,0.0,0.0,0.0,3.132,3.1803,3.2056,3.2056,3.1984,3.2147,3.2512,3.2469,3.2653,3.304,3.304,3.304,3.304,3.304,3.2584,3.1827,3.1448,3.1303,3.1265,0.0,0.0,0.0,0.0,3.0462,3.0477,0.0,0.0,0.0,0.0,0.0,0.0,0.0,0.0,0.0,0.0,0.0,0.0,2.9496,3.0136,3.0507,3.0402,3.0451,3.0447,3.039,3.0404,3.0404,3.0404,3.0404,3.0404,3.0404,3.0404,3.0419,3.0498,3.0498,3.0554,3.0677,3.0677,3.0739,3.0857,3.0857,3.0878,3.0898,3.0898,3.0898,0.0,0.0,0.0,0.0,0.0,0.0,0.0,0.0,0.0,0.0,0.0,0.0,0.0,0.0,0.0,0.0,0.0,0.0,0.0,0.0,0.0,0.0,0.0,0.0,0.0,0.0,0.0,0.0,0.0,0.0,0.0,0.0,0.0,0.0,0.0,0.0,0.0,0.0,3.0878,3.0858,3.0898,3.0857,3.0834,0.0,0.0,0.0,0.0,0.0,0.0,3.1229,3.1828,3.2163,3.2159,3.2796,3.3238,3.3451,3.3364,3.3525,3.3945,3.3903,3.3987,3.4199,3.4199,3.4199,3.4199,3.4199,3.4199,3.4103,3.2725,3.2146,3.2038,3.1371,3.1124,3.1107,3.1068,3.1043,3.1053,0.0,0.0,0.0,0.0,0.0,0.0,0.0,0.0,0.0,0.0,0.0,2.9413,3.0242,3.0383,3.0402,3.0404,3.039,3.039,3.0404,3.0404,3.0404,3.0404,3.0404,3.0404,3.0404,3.0404,3.0419,3.0498,3.0498,3.0541,3.0609,3.0609,3.0648,3.0717,3.0717,3.0771,3.0898,3.0898,3.0898,3.0898,0.0,0.0,0.0,0.0,0.0,0.0,0.0,0.0,0.0,0.0,0.0,0.0,0.0,0.0,0.0,0.0,0.0,0.0,0.0,0.0,0.0,0.0,0.0,0.0,0.0,0.0,0.0,0.0,0.0,0.0,0.0,0.0,0.0,0.0,0.0,0.0,0.0,0.0,0.0,3.0879,3.0725,0.0,0.0,0.0,0.0,3.1848,3.2597,3.3002,3.2895,3.2929,3.2912,3.2839,3.2897,3.3301,3.4129,3.4141,3.4943,3.6514,3.6507,3.6949,3.7738,3.7738,3.7738,3.7738,3.7738,3.7738,3.7488,3.4199,3.2891,3.2929,3.2823,3.2889,3.3044,3.2844,3.2802,3.2856,0.0,0.0,0.0,0.0,0.0,0.0,0.0,0.0,2.7736,2.8569,2.941,3.0038,3.0365,3.0404,3.0404,3.0404,3.0404,3.0404,3.0404,3.0404,3.0404,3.0404,3.0404,3.0404,3.0404,3.0404,3.0414,3.0449,3.0449,3.0772,3.1367,3.1367,3.1711,3.2288,3.1729,3.1527,3.1586,3.1092,3.0898,3.0898,3.0898,3.0898,0.0,0.0,0.0,0.0,0.0,0.0,0.0,0.0,0.0,0.0,0.0,0.0,0.0,0.0,0.0,0.0,0.0,0.0,0.0,0.0,0.0,0.0,0.0,0.0,0.0,0.0,0.0,0.0,0.0,0.0,0.0,0.0,0.0,0.0,0.0,0.0,0.0,3.1467,3.1487,0.0,3.2249,3.2485,3.2615,3.2615,3.2856,3.3239,3.3741,3.4294,3.4847,3.5334,3.5892,3.6334,3.6642,3.6642,3.6949,3.7546,3.7546,3.77,3.8007,3.8007,3.8007,3.8007,3.8007,3.8007,3.7911,3.668,3.5861,3.5329,3.4777,3.4263,3.3823,3.3762,3.341,3.2926,0.0,0.0,0.0,0.0,0.0,0.0,0.0,0.0,2.8184,2.8992,2.9871,3.0404,3.0404,3.0404,3.0404,3.0404,3.0404,3.0404,3.0404,3.0404,3.0404,3.0404,3.0404,3.0404,3.0404,3.0692,3.0846,3.0846,3.1115,3.1559,3.2173,3.2173,3.2527,3.3111,3.2528,3.2328,3.2376,3.1919,3.1404,3.0898,3.0898,3.0898,3.0898,0.0,0.0,0.0,0.0,0.0,0.0,0.0,0.0,0.0,0.0,0.0,0.0,0.0,0.0,0.0,0.0,0.0,0.0,0.0,0.0,0.0,0.0,0.0,0.0,0.0,0.0,0.0,0.0,0.0,0.0,0.0,0.0,0.0,0.0,0.0,3.1345,3.2224,3.2272,3.2473,3.3068,3.3568,3.3837,3.3837,3.4327,3.4872,3.5449,3.6026,3.6596,3.7123,3.77,3.8142,3.843,3.87,3.8988,3.9296,3.9585,3.9719,3.9719,3.9719,3.9719,3.9719,3.9719,3.9719,3.9719,3.9719,3.9219,3.8269,3.6885,3.5988,3.5475,3.5475,3.5122,3.4622,0.0,0.0,0.0,0.0,0.0,0.0,0.0,2.7371,2.8222,2.903,2.989,3.0404,3.0404,3.0404,3.0404,3.0404,3.0404,3.0398,3.0398,3.0398,3.0398,3.0398,3.0398,3.0404,3.0442,3.1269,3.1718,3.1737,3.2526,3.291,3.2949,3.2949,3.2983,3.3088,3.305,3.3115,3.3235,3.3273,3.2385,3.0976,3.0957,3.0918,3.0898,0.0,0.0,0.0,0.0,0.0,0.0,0.0,0.0,0.0,0.0,0.0,0.0,0.0,0.0,0.0,0.0,0.0,0.0,0.0,0.0,0.0,0.0,0.0,0.0,0.0,0.0,0.0,0.0,0.0,0.0,0.0,0.0,0.0,3.1884,3.1856,3.2195,3.316,3.3097,3.3023,3.3131,3.4622,3.5577,3.5577,3.7084,3.8027,3.8084,3.8084,3.8104,3.8161,3.8161,3.8565,3.9419,4.0189,4.1008,4.1846,4.2673,4.3096,4.3104,4.3096,4.3096,4.3104,4.3104,4.3104,4.3104,4.3104,4.2604,4.1596,3.9084,3.8084,3.8046,3.8046,3.8027,3.8007,0.0,0.0,0.0,0.0,0.0,0.0,0.0,2.8242,2.9088,2.9929,3.025,3.0404,3.0404,3.0404,3.0404,3.0404,3.0404,3.0317,3.0129,3.0103,3.0103,3.0103,3.0299,3.0692,3.1327,3.1583,3.1987,3.2564,3.2795,3.3218,3.384,3.384,3.418,3.4796,3.4147,3.3915,3.3954,3.3331,3.2879,3.2528,3.2045,3.1465,3.0898,0.0,0.0,0.0,0.0,0.0,0.0,0.0,0.0,0.0,0.0,0.0,0.0,0.0,0.0,0.0,0.0,0.0,0.0,0.0,0.0,0.0,0.0,0.0,0.0,0.0,0.0,0.0,0.0,0.0,0.0,0.0,3.2072,3.2431,3.19,3.2274,3.3163,3.4697,3.4822,3.527,3.6504,3.7048,3.7315,3.7315,3.7738,3.8527,3.9746,3.9804,4.0392,4.1662,4.17,4.1816,4.2047,4.2277,4.2508,4.2739,4.2689,4.2813,4.3096,4.2804,4.2823,4.3104,4.3104,4.3104,4.3104,4.3104,4.297,4.2604,4.1277,4.0008,3.8931,3.8931,3.8546,3.8007,0.0,0.0,0.0,0.0,0.0,0.0,0.0,2.8588,2.941,3.0288,3.0404,3.0404,3.0404,3.0404,3.0404,3.0404,3.0305,3.0176,3.0013,3.0006,3.0061,3.0157,0.0,3.1173,3.1698,3.2391,3.2987,3.343,3.3814,3.443,3.5257,3.5257,3.5718,3.65,3.5641,3.5265,3.5249,3.4447,3.3911,3.3635,3.3301,3.2443,3.136,3.136,3.1169,3.0898,3.0898,3.0898,3.0898,3.0898,0.0,0.0,0.0,0.0,0.0,0.0,0.0,0.0,0.0,0.0,0.0,0.0,0.0,0.0,0.0,0.0,0.0,0.0,0.0,0.0,0.0,0.0,0.0,0.0,3.3218,3.3846,3.3409,3.3717,3.4641,3.6346,3.6538,3.693,3.7911,3.8642,3.9046,3.9046,3.9719,4.0566,4.1535,4.1593,4.2047,4.3066,4.3104,4.3104,4.3104,4.3289,4.3388,4.3388,4.3384,4.3501,4.3718,4.349,4.3512,4.3729,4.3729,4.3729,4.3739,4.3886,4.3723,0.0,0.0,0.0,0.0,0.0,4.0566,4.0142,0.0,0.0,0.0,0.0,0.0,0.0,0.0,2.8723,2.9525,3.0308,3.0404,3.0404,3.0404,3.0404,3.0398,3.0361,3.0136,2.9991,2.9969,2.9969,3.0068,3.0305,3.1175,3.1693,3.1757,3.3293,3.4157,3.4253,3.511,3.5931,3.6664,3.676,3.7216,3.7969,3.7199,3.6788,3.6668,3.5993,3.5226,3.4452,3.4551,3.3615,3.212,3.2023,3.158,3.0994,3.0897,3.0877,3.0877,3.0877,0.0,0.0,0.0,0.0,0.0,0.0,0.0,0.0,0.0,0.0,0.0,0.0,0.0,0.0,0.0,0.0,0.0,0.0,0.0,0.0,0.0,0.0,0.0,0.0,3.4654,3.5827,3.5904,3.6,3.6577,3.7988,3.8238,3.8315,3.8411,3.9854,4.0785,4.0785,4.222,4.3115,4.3178,0.0,0.0,0.0,0.0,4.3361,4.3403,4.3824,4.4067,4.4181,4.4607,4.4823,4.4863,4.4823,4.4836,4.4863,4.4863,4.4863,4.4889,4.5079,4.4679,4.3844,4.3308,4.3104,4.3104,4.3104,4.3104,4.3104,0.0,0.0,0.0,0.0,0.0,0.0,0.0,2.9602,3.0212,3.0385,3.0404,3.0404,3.0404,3.0404,3.0311,3.0089,3.0028,2.9931,2.9763,0.0,2.979,2.9832,3.0826,3.1615,3.2084,3.307,3.3895,3.4595,3.5419,3.5998,3.6394,3.7035,3.7587,3.7988,3.7815,3.7353,3.6699,3.6561,3.6009,3.5277,3.5297,3.4371,3.2888,3.2194,3.1835,3.1615,3.0916,3.0665,3.0665,3.0665,3.0696,3.0744,3.0744,0.0,0.0,0.0,0.0,0.0,0.0,0.0,0.0,0.0,0.0,0.0,0.0,0.0,0.0,0.0,0.0,0.0,0.0,0.0,0.0,3.5,3.6411,3.7757,3.8469,3.9123,3.9419,3.9092,3.9631,4.0296,4.1008,4.1989,4.2604,4.2604,4.2912,4.3269,4.3643,4.3922,4.4135,4.4301,4.4576,4.49,4.5275,4.5382,4.574,4.6375,0.0,0.0,4.6506,4.6203,4.6233,4.6538,4.6538,4.6538,4.6495,4.5902,4.518,4.4366,4.3446,4.3104,4.3104,4.3104,4.3104,4.3104,0.0,0.0,0.0,0.0,0.0,0.0,0.0,2.978,3.0355,3.0215,3.0311,3.0355,3.0209,3.0202,3.0109,2.9869,2.9765,2.9705,0.0,2.9607,2.9634,2.9845,3.1078,3.1879,3.2194,3.342,3.4269,3.4694,3.5099,3.5785,3.672,3.7108,3.7928,3.9031,3.8591,3.8016,3.7315,3.6885,3.6231,3.55,3.55,3.5033,3.426,3.343,3.2594,3.1842,3.1417,3.0972,3.0603,3.0603,3.063,3.0657,3.0657,3.0657,3.0657,0.0,0.0,0.0,0.0,0.0,0.0,0.0,0.0,0.0,0.0,0.0,0.0,0.0,0.0,3.3814,3.4661,0.0,3.6195,3.6454,3.7709,3.8893,3.9593,4.054,4.1008,4.0604,4.1296,4.197,4.2412,4.3069,4.3455,4.3455,4.3701,4.4124,4.4768,4.4966,4.528,4.5792,4.5969,4.6158,4.6406,4.6204,4.6308,4.6705,4.6329,4.6248,4.6443,4.6231,4.6264,4.6443,4.6443,4.6443,4.6422,4.6195,4.5975,4.5744,4.5242,4.4549,4.3868,4.4039,4.399,4.3868,0.0,0.0,0.0,0.0,0.0,0.0,0.0,2.9774,3.0248,3.0021,3.0196,3.0248,3.0021,3.0006,2.9908,2.9661,2.9445,2.9405,0.0,2.9484,2.9533,2.9869,3.1325,3.2089,3.2039,3.3673,3.4526,3.4526,3.4677,3.5461,3.6798,3.6949,3.7945,3.9586,3.8871,3.8261,3.77,3.7,3.6231,3.55,3.55,3.55,3.5417,3.4598,3.3374,3.2078,3.1926,3.1308,3.0554,3.0554,3.0565,3.0581,3.0581,3.0581,3.0581,3.0581,3.0533,0.0,0.0,0.0,0.0,0.0,0.0,0.0,0.0,0.0,3.3353,3.4071,3.4456,3.507,3.6373,3.6884,3.7244,3.7669,3.8788,3.9769,4.0263,4.1351,4.2094,4.2094,4.2771,4.3248,4.3248,4.3682,4.4015,4.4186,4.4587,4.5143,4.5876,4.5988,4.6262,4.6776,4.6853,4.6928,4.7024,4.6698,4.6611,4.676,4.6505,4.6361,4.6361,4.6361,4.6361,4.6361,4.6361,4.6287,4.614,4.642,4.6637,4.678,4.678,4.6002,4.4889,4.5323,4.5204,4.4864,0.0,0.0,0.0,0.0,0.0,0.0,0.0,0.0,3.0028,3.0006,3.0021,3.0028,3.0006,3.0006,2.9845,2.9474,2.9192,0.0,2.9414,2.9404,2.9414,2.9474,3.0993,3.1738,3.1489,3.306,3.3908,3.3908,3.4613,3.5221,3.5686,3.641,3.7156,3.7878,3.7782,3.7398,3.6846,3.6731,3.6231,3.55,3.55,3.55,3.5404,3.4546,3.3621,3.269,3.1977,3.1168,3.0417,3.0417,3.0462,3.052,3.052,3.052,3.052,3.052,0.0,3.0408,3.0408,3.0979,3.1756,3.2564,3.2776,3.2795,0.0,0.0,3.409,3.4186,3.5372,3.6411,3.6358,3.7563,3.8584,3.8633,3.9773,4.0768,4.1108,4.2295,4.3138,4.3138,4.3479,4.3717,4.3717,4.4204,4.4801,4.5512,4.5623,4.5853,4.6318,4.6674,4.6611,4.6044,4.6312,4.6665,4.7077,4.704,4.7371,4.8106,4.805,4.8031,4.8031,4.8031,4.8031,4.8031,4.8031,4.7645,4.6966,4.7003,4.6617,4.6027,4.6027,4.5916,4.5855,4.6528,4.6315,4.5666,0.0,0.0,0.0,0.0,0.0,0.0,0.0,0.0,0.0,3.0006,3.0006,3.0006,3.0006,2.9788,2.9523,2.9192,2.9055,0.0,2.9382,2.9246,2.9235,2.9392,3.0339,3.104,3.1397,3.2522,3.333,3.3807,3.4137,3.4604,3.5225,3.5544,3.6205,3.7084,3.7236,3.7005,3.6476,3.663,3.6231,3.55,3.55,3.5192,3.4699,3.434,3.3372,3.216,3.1814,3.1135,0.0,0.0,3.0431,3.0441,3.0441,3.0441,3.0441,3.0441,3.0417,0.0,3.1019,3.1756,3.2602,0.0,3.3667,3.3795,3.4295,3.457,3.4852,3.5342,3.5866,3.6548,3.7575,3.8173,3.8828,0.0,4.0438,4.1123,4.204,4.2831,4.3479,4.4014,4.4401,4.471,4.494,4.4949,4.5267,4.6094,4.5972,4.6151,4.676,4.697,4.7123,4.7297,4.7426,4.761,4.7791,4.7791,4.7957,4.8306,4.8306,4.8306,4.8306,4.8306,4.8306,4.8306,4.8306,4.8122,4.7791,4.7791,4.7609,4.7297,4.7297,4.7297,4.7243,4.681,4.6296,4.5895,0.0,0.0,0.0,0.0,0.0,0.0,0.0,0.0,0.0,0.0,2.9924,2.9939,2.9999,2.9634,2.932,2.9134,0.0,0.0,0.0,2.9112,2.9078,2.9278,2.9867,3.0467,3.1054,3.1861,3.2669,3.3476,3.3476,3.388,3.4674,3.4674,3.5206,3.6164,3.6343,3.6302,3.6091,3.6288,3.5885,3.5135,3.5135,3.4622,3.3821,3.3583,3.2756,3.1698,3.1698,3.1135,0.0,0.0,3.0404,3.0404,3.0404,3.0355,3.0299,3.0299,3.0414,3.0783,3.1955,0.0,0.0,3.422,3.445,3.459,3.5143,3.5293,3.5485,3.6065,3.6393,3.6979,3.8306,3.8543,3.8982,4.0428,4.0802,4.1319,4.263,4.3123,4.3666,4.4524,4.4873,4.5334,4.6079,4.5696,4.5741,4.6524,4.6376,4.6581,4.7388,4.7424,4.77,4.8288,4.8306,4.8306,4.8306,4.8306,4.8306,4.8306,4.8306,4.8306,4.8306,4.8306,4.8306,4.8306,4.8306,4.8306,4.8306,4.8306,4.8306,4.8306,4.8306,4.8306,4.8197,4.7272,4.663,4.6269,0.0,0.0,0.0,0.0,0.0,0.0,0.0,0.0,0.0,0.0,0.0,0.0,0.0,2.9634,2.9402,0.0,0.0,0.0,0.0,2.9005,2.9005,2.9017,2.9787,3.021,3.0246,3.1017,3.1825,3.2638,3.2638,3.3041,3.3844,3.3844,3.4167,3.4759,3.4769,3.5047,3.5512,3.5538,3.5026,3.4244,3.4244,3.3718,3.2852,3.2064,3.1737,3.1698,3.1698,0.0,0.0,0.0,3.0404,3.0404,3.0404,3.0215,0.0,3.0013,3.043,3.1296,0.0,0.0,3.3988,3.4846,3.5075,3.5015,3.4774,3.5327,3.5872,3.591,3.7144,3.8171,3.7958,3.8572,3.9354,4.0179,4.075,4.1493,4.2645,4.3211,4.3806,4.4597,4.4708,4.5332,0.0,4.6342,4.6214,4.7021,4.7076,4.7406,4.8233,4.8269,4.8269,4.8306,4.8306,4.8306,4.8306,4.8306,4.8306,4.8306,4.8306,4.8306,4.8306,4.8306,4.8306,4.8306,4.8306,4.8306,4.8306,4.8306,4.8306,4.8306,4.8306,4.8306,4.8306,4.8251,4.7737,4.7058,0.0,0.0,0.0,0.0,0.0,0.0,0.0,0.0,0.0,0.0,0.0,0.0,0.0,0.0,0.0,0.0,0.0,0.0,0.0,2.9005,2.9005,2.9005,2.9262,2.9647,3.0191,3.0467,3.0999,3.1806,3.1806,3.1935,3.2223,3.2223,3.233,3.2521,3.2885,3.3138,3.3333,3.3635,3.3603,3.3333,3.3333,3.2833,3.2051,3.1614,3.1087,3.055,0.0,0.0,0.0,2.9973,2.9946,2.9946,2.9946,0.0,2.991,3.045,3.1533,3.2694,3.3356,0.0,3.4463,3.4766,3.4822,3.4954,3.5402,3.557,3.5946,3.7007,3.7514,3.8113,3.9268,3.9118,3.9527,4.1619,4.1477,4.1603,4.3058,4.3416,4.3791,4.4617,4.5168,0.0,0.0,0.0,0.0,4.7847,4.7901,4.8012,4.8306,4.8306,4.8306,4.8306,4.8306,4.8306,4.8306,4.8306,4.8306,4.8306,4.8306,4.8306,4.8306,4.8306,4.8306,4.8306,4.8306,4.8306,4.8306,4.8306,4.8306,4.8306,4.8306,4.8306,4.8306,4.8306,4.8141,4.7901,0.0,0.0,0.0,0.0,0.0,0.0,0.0,0.0,0.0,0.0,0.0,0.0,0.0,0.0,0.0,0.0,0.0,0.0,0.0,0.0,2.9005,2.9005,2.9005,2.9244,2.9769,2.9757,3.0173,3.0962,3.0962,3.1109,3.1397,3.1397,3.144,3.1565,3.1999,3.2241,3.2376,3.2732,3.2686,3.2319,3.2319,3.1787,3.0963,3.0799,3.0383,0.0,0.0,0.0,0.0,2.9722,2.9705,2.9705,2.9705,2.985,3.0152,3.0878,3.2062,3.3205,3.3583,3.4095,3.4529,3.4529,3.4763,3.5097,3.5497,3.5913,3.6501,3.7544,3.7841,3.8302,3.9515,3.915,3.9464,4.1813,4.1585,4.1645,4.3276,4.3515,4.3901,4.5002,4.559,4.6324,0.0,0.0,0.0,4.8269,4.8306,4.8306,4.8306,4.8306,4.8306,4.8306,4.8306,4.8306,4.8306,4.8306,4.8306,4.8306,4.8306,4.8306,4.8306,4.8306,4.8306,4.8306,4.8306,4.8306,4.8306,4.8306,4.8306,4.8306,4.8306,4.8306,4.8306,4.8306,4.8306,4.8306,0.0,0.0,0.0,0.0,0.0,0.0,0.0,0.0,0.0,0.0,0.0,0.0,0.0,0.0,0.0,0.0,0.0,0.0,0.0,0.0,0.0,2.9005,2.9005,2.9005,2.9005,2.9005,2.9372,3.0136,3.0136,3.0522,3.1286,3.1286,3.1401,3.1669,3.1938,3.2199,3.2443,3.2645,3.2158,3.1226,3.1226,3.0606,2.9705,2.9687,0.0,0.0,0.0,0.0,0.0,0.0,0.0,0.0,0.0,3.0104,3.0742,3.1262,3.2008,3.288,3.3906,3.4183,3.4183,3.4183,3.4828,3.541,3.5142,3.6321,3.7511,3.7547,3.8175,3.8707,0.0,0.0,3.9239,4.0893,4.1132,4.1645,4.3276,4.3515,4.4102,0.0,0.0,0.0,0.0,0.0,0.0,4.8306,0.0,4.8306,4.8306,4.8306,4.8306,4.8306,4.8306,4.8306,4.8306,4.8306,4.8306,4.8306,4.8306,4.8306,4.8306,4.8306,4.8306,4.8306,4.8306,4.8306,4.8306,4.8306,4.8306,4.8306,4.8306,4.8306,4.8306,4.8306,4.8306,4.8306,0.0,0.0,0.0,0.0,0.0,0.0,0.0,0.0,0.0,0.0,0.0,0.0,0.0,0.0,0.0,0.0,0.0,0.0,0.0,0.0,0.0,0.0,0.0,0.0,0.0,0.0,0.0,0.0,0.0,2.9409,2.961,2.961,2.9639,2.9724,2.9988,3.0159,3.0227,3.0423,3.0368,3.0101,0.0,2.9945,2.9687,0.0,0.0,0.0,0.0,0.0,0.0,0.0,0.0,0.0,0.0,3.0109,3.1219,3.1366,3.2394,3.3545,3.3821,3.3902,3.3902,3.3902,3.4529,3.528,3.584,3.6762,3.7676,3.8267,3.856,3.8891,0.0,0.0,0.0,4.1644,4.148,0.0,4.3276,4.3515,0.0,4.57,0.0,4.6526,4.8141,4.8306,0.0,0.0,4.8306,4.8306,4.8306,4.8306,4.8306,4.8306,4.8306,4.8306,4.8306,4.8306,4.8306,4.8306,4.8306,4.8306,4.8306,4.8306,4.8306,4.8306,4.8306,4.8306,4.8306,4.8306,4.8306,4.8306,4.8306,4.8306,4.8306,4.8306,4.8306,4.8306,0.0,0.0,0.0,0.0,0.0,0.0,0.0,0.0,0.0,0.0,0.0,0.0,0.0,0.0,0.0,0.0,0.0,0.0,0.0,0.0,0.0,0.0,0.0,0.0,0.0,0.0,0.0,0.0,0.0,0.0,0.0,2.9005,2.9005,2.9017,2.9278,2.9402,2.9404,2.9598,0.0,0.0,0.0,0.0,0.0,0.0,0.0,0.0,0.0,0.0,0.0,0.0,0.0,2.9005,2.9005,3.0099,3.1397,3.1397,0.0,3.3807,3.3807,3.3807,3.3807,3.3807,3.4399,3.5224,3.6101,3.6923,3.7731,3.8524,3.8707,0.0,0.0,0.0,0.0,0.0,0.0,0.0,4.28,4.3277,4.4102,0.0,4.5902,0.0,4.8141,4.8306,4.8306,0.0,4.8306,4.8306,4.8306,4.8306,4.8306,4.8306,4.8306,4.8306,4.8306,4.8306,4.8306,4.8306,4.8306,4.8306,4.8306,4.8306,4.8306,4.8306,0.0,4.8306,4.8306,4.8306,4.8306,4.8306,4.8306,4.8306,4.8306,4.8306,4.8306,4.8306,0.0,0.0,0.0,0.0,0.0,0.0,0.0,0.0,0.0,0.0,0.0,0.0,0.0,0.0,0.0,0.0,0.0,0.0,0.0,0.0,0.0,0.0,0.0,0.0,0.0,0.0,0.0,0.0,0.0,0.0,0.0,0.0,0.0,0.0,0.0,0.0,0.0,0.0,0.0,0.0,0.0,0.0,0.0,0.0,0.0,0.0,0.0,0.0,0.0,0.0,2.9005,2.9023,2.9133,3.0191,3.1415,3.1525,3.2614,3.3807,3.3807,3.3807,3.3807,3.3807,3.4399,3.5206,3.5954,3.6758,3.7547,3.8248,0.0,3.8414,3.8524,3.8542,3.8836,3.9753,0.0,4.137,4.2194,4.2983,4.4102,4.57,4.5902,4.6526,4.8141,4.8306,4.8306,4.8306,4.8306,4.8306,4.8306,4.8306,4.8306,4.8306,4.8306,4.8306,4.8306,4.8306,4.8306,4.8306,4.8306,4.8306,4.8306,4.8306,4.8306,4.8306,4.8306,4.8306,4.8306,4.8306,4.8306,4.8306,4.8306,4.8306,4.8306,4.8306,4.8306,4.8306,0.0,0.0,0.0,0.0,0.0,0.0,0.0,0.0,0.0,0.0,3.0109,2.9962,0.0,0.0,0.0,0.0,0.0,0.0,0.0,0.0,0.0,0.0,0.0,0.0,0.0,0.0,0.0,0.0,0.0,0.0,0.0,0.0,0.0,0.0,0.0,0.0,0.0,0.0,0.0,0.0,0.0,0.0,0.0,0.0,0.0,0.0,0.0,0.0,0.0,0.0,2.9005,2.9115,2.9776,3.0632,3.1525,3.221,3.3054,3.3807,3.3807,3.3807,3.3807,3.3807,3.4399,3.5041,3.5188,3.5899,0.0,0.0,3.6725,3.6909,3.7603,3.7713,3.819,3.9659,0.0,0.0,0.0,0.0,4.4102,0.0,0.0,0.0,0.0,0.0,0.0,0.0,4.8306,4.8306,4.8306,4.8306,4.8306,4.8306,4.8306,4.8306,4.8306,4.8306,4.8306,4.8306,4.8306,4.8306,4.8306,4.8306,4.8306,4.8306,4.8306,0.0,4.8306,4.8306,4.8306,4.8306,4.8306,4.8306,4.8306,4.8306,4.8306,4.8306,0.0,0.0,0.0,0.0,0.0,0.0,0.0,3.0404,3.0404,3.0404,3.0299,3.0209,3.0209,3.0082,3.0061,0.0,0.0,0.0,0.0,0.0,0.0,0.0,0.0,0.0,0.0,0.0,0.0,0.0,0.0,0.0,0.0,0.0,0.0,0.0,0.0,0.0,0.0,0.0,0.0,0.0,0.0,0.0,0.0,0.0,0.0,0.0,0.0,0.0,0.0,0.0,2.9005,2.9133,2.9941,3.0742,3.1549,3.2362,3.3183,3.3807,3.3807,3.3807,3.3807,3.3807,3.41,3.4491,3.4912,0.0,0.0,0.0,3.6303,3.6556,3.7345,0.0,0.0,0.0,0.0,0.0,0.0,0.0,0.0,0.0,0.0,0.0,0.0,0.0,0.0,0.0,4.8306,4.8306,4.8306,4.8306,4.8306,4.8306,4.8306,4.8306,4.8306,4.8306,4.8306,4.8306,4.8306,4.8306,4.8306,4.8306,4.8306,4.8306,4.8306,4.8306,4.8306,4.8306,4.8306,4.8306,4.8306,4.8306,4.8306,4.8306,4.8306,4.8306,0.0,0.0,0.0,0.0,0.0,0.0,0.0,3.0404,3.0404,3.0404,3.0404,3.0404,3.0404,3.0209,3.0163,0.0,0.0,0.0,0.0,0.0,0.0,0.0,0.0,0.0,0.0,0.0,0.0,0.0,0.0,0.0,0.0,0.0,0.0,0.0,0.0,0.0,0.0,0.0,0.0,0.0,0.0,0.0,0.0,0.0,0.0,0.0,0.0,0.0,0.0,0.0,2.9005,2.917,3.0155,3.0889,3.1586,3.2577,3.3311,3.3807,3.3807,3.3807,3.3807,3.3807,3.3807,3.3972,3.4601,3.4747,0.0,0.0,3.5752,3.6064,3.707,0.0,0.0,0.0,0.0,0.0,0.0,0.0,0.0,0.0,0.0,0.0,0.0,0.0,0.0,0.0,4.8306,4.8306,4.8306,4.8306,4.8306,4.8306,4.8306,4.8306,4.8306,4.8306,4.8306,4.8306,4.8306,4.8306,4.8306,4.8306,4.8306,4.8306,4.8306,4.8306,4.8306,4.8306,4.8306,4.8306,4.8306,4.8306,4.8306,4.8306,4.8306,4.8306,0.0,0.0,0.0,0.0,0.0,0.0,0.0,3.0404,3.0404,3.0404,3.0404,3.0404,3.0404,3.0373,3.0367,0.0,0.0,0.0,0.0,0.0,0.0,0.0,0.0,0.0,0.0,0.0,0.0,0.0,0.0,0.0,0.0,0.0,0.0,0.0,0.0,0.0,0.0,0.0,0.0,0.0,0.0,0.0,0.0,0.0,0.0,0.0,0.0,0.0,0.0,0.0,0.0,2.9262,3.0797,3.1342,3.1709,3.3238,0.0,0.0,3.3807,3.3807,3.3807,3.3807,3.3807,3.3825,3.3899,0.0,0.0,3.4009,3.4027,3.4523,3.6119,3.6413,0.0,0.0,0.0,0.0,0.0,0.0,0.0,0.0,0.0,0.0,0.0,0.0,0.0,4.8306,4.8306,4.8306,4.8306,4.8306,4.8306,4.8306,4.8306,4.8306,4.8306,4.8306,4.8306,4.8306,4.8306,4.8306,4.8306,4.8306,4.8306,4.8306,4.8306,4.8306,0.0,4.8306,4.8306,4.8306,4.8306,4.8306,4.8306,4.8306,4.8306,4.8306,0.0,0.0,0.0,0.0,0.0,0.0,3.0404,3.0404,3.0404,3.0404,3.0404,3.0404,3.0404,3.0404,3.0404,3.0404,0.0,0.0,0.0,0.0,0.0,0.0,0.0,0.0,0.0,0.0,0.0,0.0,0.0,0.0,0.0,0.0,0.0,0.0,0.0,0.0,0.0,0.0,0.0,0.0,0.0,0.0,0.0,0.0,0.0,0.0,0.0,0.0,0.0,0.0,0.0,0.0,3.0889,3.1397,0.0,0.0,3.3807,3.3807,3.3807,3.3807,3.3807,3.3807,3.3807,3.3807,3.3807,0.0,3.3807,3.3807,3.3807,3.4302,3.5991,3.6303,3.6835,0.0,0.0,0.0,0.0,0.0,0.0,0.0,0.0,0.0,0.0,0.0,0.0,4.8306,4.8306,4.8306,4.8306,4.8306,4.8306,4.8306,4.8306,4.8306,4.8306,4.8306,4.8306,4.8306,4.8306,4.8306,4.8306,4.8306,4.8306,4.8306,4.8306,4.8306,0.0,4.8306,4.8306,4.8306,4.8306,4.8306,4.8306,4.8306,4.8306,4.8306,0.0,0.0,0.0,0.0,0.0,3.0404,3.0404,3.0404,3.0404,3.0404,3.0404,3.0404,3.0404,3.0404,3.0404,3.0404,3.0404,0.0,0.0,0.0,0.0,0.0,0.0,0.0,0.0,0.0,0.0,0.0,0.0,0.0,0.0,0.0,0.0,0.0,0.0,0.0,0.0,0.0,0.0,0.0,0.0,0.0,0.0,0.0,0.0,0.0,0.0,0.0,0.0,0.0,0.0,0.0,0.0,0.0,0.0,0.0,3.3807,3.3807,3.3807,3.3807,3.3807,3.3807,3.3807,3.3807,0.0,0.0,3.3807,3.3807,3.3807,3.4302,3.5991,3.6303,3.6835,0.0,0.0,0.0,0.0,0.0,0.0,0.0,0.0,0.0,0.0,0.0,4.8306,4.8306,4.8306,4.8306,4.8306,4.8306,4.8306,4.8306,4.8306,4.8306,4.8306,4.8306,4.8306,4.8306,4.8306,4.8306,4.8306,4.8306,4.8306,4.8306,4.8306,4.8306,0.0,4.8306,4.8306,4.8306,4.8306,4.8306,4.8306,4.8306,4.8306,4.8306,0.0,0.0,0.0,0.0,0.0,0.0,3.0404,3.0404,3.0404,3.0404,3.0404,3.0404,3.0404,3.0404,3.0404,3.0404,3.0404,0.0,0.0,0.0,0.0,0.0,0.0,0.0,0.0,0.0,0.0,0.0,0.0,0.0,0.0,0.0,0.0,0.0,0.0,0.0,0.0,0.0,0.0,0.0,0.0,0.0,0.0,0.0,0.0,0.0,0.0,0.0,0.0,0.0,0.0,0.0,0.0,0.0,0.0,0.0,3.3807,3.3807,3.3807,3.3807,3.3807,3.3807,3.3807,3.3807,0.0,0.0,3.3807,3.3807,3.3807,3.4302,3.5991,3.6303,3.6835,3.845,0.0,0.0,0.0,0.0,0.0,0.0,0.0,0.0,0.0,0.0,4.8306,4.8306,4.8306,0.0,4.8306,4.8306,4.8306,4.8306,4.8306,4.8306,4.8306,4.8306,4.8306,4.8306,4.8306,4.8306,4.8306,4.8306,4.8306,4.8306,4.8306,4.8306,0.0,4.8306,4.8306,4.8306,4.8306,4.8306,4.8306,4.8306,4.8306,4.8306,0.0,0.0,0.0,0.0,0.0,0.0,0.0,3.0404,3.0404,3.0404,3.0404,3.0404,3.0404,3.0404,3.0404,3.0404,3.0404,0.0,0.0,0.0,0.0,0.0,0.0,0.0,0.0,0.0,0.0,3.0404,3.0404,0.0,0.0,0.0,0.0,0.0,0.0,0.0,0.0,0.0,0.0,0.0,0.0,0.0,0.0,0.0,0.0,0.0,0.0,0.0,0.0,0.0,0.0,0.0,0.0,0.0,0.0,3.333,3.3807,3.3807,3.3807,3.3807,3.3807,3.3807,3.3807,3.3807,3.3807,0.0,3.3807,3.3807,3.3807,3.4302,3.5991,3.6303,3.6835,3.845,3.8707,0.0,0.0,0.0,0.0,0.0,0.0,0.0,0.0,0.0,4.8306,4.8306,4.8306,4.8306,4.8306,4.8306,4.8306,4.8306,4.8306,4.8306,4.8306,4.8306,4.8306,4.8306,4.8306,4.8306,4.8306,4.8306,4.8306,4.8306,4.8306,4.8306,4.8306,4.8306,4.8306,4.8306,4.8306,4.8306,4.8306,4.8306,4.8306,4.8306,0.0,0.0,0.0,0.0,0.0,0.0,0.0,3.0404,3.0404,3.0404,3.0404,3.0404,3.0404,3.0404,3.0404,3.0404,3.0404,0.0,0.0,0.0,0.0,0.0,0.0,0.0,0.0,3.0404,3.0404,3.0404,3.0404,3.0404,3.0404,3.0404,0.0,0.0,0.0,0.0,0.0,0.0,0.0,0.0,0.0,0.0,2.9532,0.0,0.0,0.0,0.0,0.0,0.0,0.0,0.0,0.0,0.0,0.0,0.0,0.0,3.3807,3.3807,0.0,3.3807,3.3807,3.3807,3.3807,0.0,0.0,0.0,3.3807,3.3807,3.3807,3.4211,3.5569,3.6083,3.6725,3.8028,3.8505,0.0,0.0,0.0,0.0,0.0,0.0,0.0,0.0,4.8306,4.8306,4.8306,4.8306,4.8306,4.8306,4.8306,4.8306,4.8306,4.8306,4.8306,4.8306,4.8306,4.8306,4.8306,4.8306,4.8306,4.8306,4.8306,4.8306,4.8306,4.8306,4.8306,0.0,4.8306,4.8306,4.8306,4.8306,4.8306,4.8306,4.8306,4.8306,4.8306,0.0,0.0,0.0,0.0,0.0,0.0,0.0,3.0404,3.0404,3.0404,3.0404,3.0404,3.0404,3.0404,3.0404,3.0404,0.0,0.0,0.0,0.0,0.0,0.0,0.0,0.0,0.0,3.0404,3.0404,3.0404,3.0404,3.0404,3.0404,3.0404,3.0404,0.0,0.0,0.0,0.0,0.0,0.0,0.0,2.984,2.9739,0.0,0.0,0.0,0.0,0.0,0.0,0.0,0.0,0.0,0.0,0.0,0.0,0.0,0.0,0.0,0.0,0.0,3.3807,3.3807,3.3807,3.3807,3.3807,0.0,0.0,0.0,0.0,3.3807,3.4045,3.4857,3.5701,3.656,3.7364,3.8175,0.0,0.0,0.0,0.0,0.0,0.0,0.0,4.8141,4.8306,4.8306,4.8306,4.8306,4.8306,4.8306,4.8306,4.8306,4.8306,4.8306,4.8306,4.8306,4.8306,4.8306,4.8306,4.8306,4.8306,4.8306,4.8306,4.8306,0.0,4.8306,4.8306,0.0,4.8306,4.8306,4.8306,4.8306,4.8306,4.8306,4.8306,4.8306,4.8306,0.0,0.0,0.0,0.0,0.0,0.0,0.0,0.0,0.0,0.0,3.0404,3.0404,3.0404,3.0404,3.0404,0.0,0.0,0.0,0.0,0.0,0.0,0.0,0.0,0.0,0.0,3.0404,3.0404,3.0404,3.0404,3.0404,3.0404,3.0404,3.0404,3.0404,3.0404,0.0,0.0,0.0,0.0,0.0,3.0248,3.0109,0.0,0.0,0.0,0.0,2.9931,2.9931,0.0,0.0,0.0,0.0,0.0,0.0,0.0,0.0,3.3807,3.3807,3.3807,0.0,3.3807,3.3807,3.3807,3.3807,0.0,0.0,0.0,0.0,0.0,3.4045,3.4857,3.5701,3.656,3.7364,3.8175,3.9258,0.0,0.0,0.0,0.0,0.0,4.6526,4.8141,4.8306,4.8306,4.8306,4.8306,4.8306,4.8306,4.8306,4.8306,4.8306,4.8306,4.8306,4.8306,4.8306,4.8306,4.8306,4.8306,4.8306,4.8306,4.8306,4.8306,4.8306,4.8306,4.8306,4.8306,4.8306,4.8306,4.8306,4.8306,4.8306,4.8306,4.8306,4.8306,4.8306,0.0,0.0,0.0,0.0,0.0,0.0,0.0,0.0,0.0,0.0,0.0,0.0,0.0,0.0,0.0,0.0,0.0,0.0,0.0,0.0,0.0,0.0,0.0,0.0,3.0404,3.0404,3.0404,3.0404,3.0404,3.0404,3.0404,3.0404,3.0404,3.0404,3.0404,0.0,0.0,0.0,0.0,0.0,3.0404,0.0,0.0,0.0,0.0,0.0,3.0189,3.0189,0.0,2.9927,3.0567,3.1515,0.0,0.0,0.0,0.0,3.3807,3.3807,3.3807,3.3807,3.3807,3.3807,3.3807,3.3807,3.3807,0.0,0.0,0.0,0.0,0.0,3.4362,3.5459,0.0,3.6886,3.823,0.0,0.0,0.0,0.0,0.0,0.0,4.6948,0.0,4.8306,4.8306,4.8306,4.8306,4.8306,4.8306,4.8306,4.8306,4.8306,4.8306,4.8306,4.8306,4.8306,4.8306,4.8306,4.8306,4.8306,4.8306,4.8306,4.8306,4.8306,4.8306,4.8306,4.8306,4.8306,4.8306,4.8306,4.8306,4.8306,4.8306,4.8306,4.8306,4.8306,0.0,0.0,0.0,0.0,0.0,0.0,0.0,0.0,0.0,0.0,0.0,0.0,0.0,0.0,0.0,0.0,0.0,0.0,0.0,0.0,0.0,0.0,0.0,3.0404,3.0404,3.0404,3.0404,3.0404,3.0404,3.0404,3.0404,3.0404,3.0404,3.0404,3.0404,0.0,0.0,0.0,0.0,0.0,3.0404,0.0,0.0,0.0,0.0,0.0,0.0,0.0,0.0,3.0296,3.1268,3.245,3.219,0.0,0.0,0.0,0.0,0.0,3.3863,3.385,3.3855,3.3802,3.3807,3.3807,3.3807,0.0,0.0,0.0,0.0,0.0,0.0,0.0,0.0,0.0,0.0,0.0,0.0,0.0,0.0,0.0,0.0,0.0,4.8214,4.8306,4.8306,4.8306,4.8306,4.8306,4.8306,4.8306,4.8306,4.8306,4.8306,4.8306,4.8306,4.8306,4.8306,4.8306,4.8306,4.8306,4.8306,4.8306,4.8306,4.8306,0.0,0.0,4.8306,4.8306,4.8306,4.8306,4.8306,4.8306,4.8306,4.8306,4.8306,4.8306,0.0,0.0,0.0,0.0,0.0,0.0,0.0,0.0,0.0,0.0,0.0,0.0,0.0,0.0,0.0,0.0,0.0,0.0,0.0,0.0,0.0,0.0,3.0404,3.0404,3.0404,3.0404,3.0404,3.0404,3.0404,3.0404,3.0404,3.0404,3.0404,3.0404,3.0404,3.0404,3.0404,0.0,0.0,3.0404,3.0404,0.0,0.0,0.0,0.0,0.0,0.0,0.0,0.0,3.1206,3.1912,3.2613,3.3287,0.0,0.0,0.0,0.0,0.0,3.4218,3.4147,3.4074,3.3868,3.3807,3.3807,0.0,0.0,0.0,0.0,0.0,0.0,0.0,0.0,0.0,0.0,0.0,0.0,0.0,0.0,0.0,0.0,0.0,4.6673,4.8159,4.8306,4.8306,4.8306,4.8306,4.8306,4.8306,4.8306,4.8306,4.8306,4.8306,4.8306,4.8306,4.8306,4.8306,4.8306,4.8306,4.8306,4.8306,4.8306,4.8306,4.8306,0.0,4.8306,4.8306,4.8306,4.8306,4.8306,4.8306,4.8306,4.8306,4.8306,4.8306,4.8306,0.0,0.0,0.0,0.0,0.0,0.0,0.0,0.0,0.0,0.0,0.0,0.0,0.0,0.0,0.0,0.0,0.0,0.0,0.0,0.0,0.0,3.0404,3.0404,3.0404,3.0404,3.0404,3.0404,3.0404,3.0404,3.0404,3.0404,3.0404,3.0404,3.0404,3.0404,3.0404,3.0404,0.0,3.0404,3.0404,0.0,0.0,0.0,0.0,0.0,0.0,0.0,0.0,0.0,0.0,3.2468,3.3458,3.3726,0.0,0.0,0.0,0.0,0.0,3.4518,3.4345,3.4183,3.4056,3.3915,3.3807,0.0,0.0,0.0,0.0,0.0,0.0,0.0,0.0,0.0,0.0,0.0,0.0,0.0,4.3644,4.458,0.0,0.0,4.7003,4.8196,4.8306,4.8306,4.8306,4.8306,4.8306,4.8306,4.8306,4.8306,4.8306,4.8306,4.8306,4.8306,4.8306,4.8306,4.8306,4.8306,4.8306,4.8306,4.8306,4.8306,4.8306,0.0,4.8306,4.8306,4.8306,4.8306,4.8306,4.8306,4.8306,4.8306,4.8306,4.8306,4.8306,0.0,0.0,0.0,0.0,0.0,0.0,0.0,0.0,0.0,0.0,0.0,0.0,0.0,0.0,0.0,0.0,0.0,0.0,0.0,0.0,3.0404,3.0404,3.0404,3.0404,3.0404,3.0404,3.0404,3.0404,3.0404,3.0404,3.0404,3.0404,3.0404,3.0404,3.0404,3.0404,3.0404,3.0404,3.0404,3.0404,0.0,0.0,0.0,0.0,0.0,0.0,0.0,0.0,0.0,0.0,0.0,0.0,0.0,0.0,0.0,3.4944,3.4898,3.486,3.4803,3.4614,3.4394,3.4327,0.0,0.0,3.3807,0.0,0.0,0.0,0.0,0.0,0.0,0.0,0.0,0.0,0.0,4.1882,4.3313,4.403,4.48,4.5773,4.6452,4.7204,4.8214,4.8306,4.8306,4.8306,4.8306,4.8306,4.8306,4.8306,4.8306,4.8306,4.8306,4.8306,4.8306,4.8306,4.8306,4.8306,4.8306,4.8306,4.8306,4.8306,4.8306,4.8306,4.8306,4.8306,4.8306,4.8306,4.8306,4.8306,4.8306,4.821,4.8113,4.8248,4.821,4.8094,0.0,0.0,0.0,0.0,0.0,0.0,0.0,0.0,0.0,0.0,0.0,0.0,0.0,0.0,0.0,0.0,0.0,0.0,0.0,0.0,3.0404,3.0404,3.0404,3.0404,3.0404,3.0404,3.0404,3.0404,3.0404,3.0404,3.0404,3.0404,3.0404,3.0404,3.0404,3.0404,3.0404,3.0404,3.0404,3.0404,3.0404,0.0,0.0,0.0,0.0,0.0,0.0,0.0,0.0,0.0,0.0,0.0,0.0,0.0,3.5479,3.5446,3.5439,3.5383,3.513,3.5043,3.4981,3.4724,0.0,0.0,3.3807,0.0,0.0,0.0,0.0,0.0,0.0,0.0,0.0,0.0,0.0,4.2506,4.3386,0.0,4.4158,4.5718,4.5957,4.6599,4.8159,4.8306,4.8306,4.8306,4.8306,4.8306,4.8306,4.8306,4.8306,4.8306,4.8306,4.8306,4.8306,4.8306,4.8306,4.8306,4.8306,4.8306,4.8306,4.8306,4.8306,4.8306,4.8306,4.8306,4.8306,4.8306,4.8306,4.8306,4.8306,4.7957,4.753,4.8094,4.7937,4.7551,0.0,0.0,0.0,0.0,0.0,0.0,0.0,0.0,0.0,0.0,0.0,0.0,0.0,0.0,0.0,0.0,0.0,0.0,0.0,0.0,3.0446,3.041,3.0404,3.0404,3.0404,3.0404,3.0404,3.0404,3.0404,3.0404,3.0404,3.0404,3.0404,3.0404,3.0404,3.0404,3.0404,3.0404,3.0404,3.0404,3.0404,3.0712,0.0,0.0,0.0,0.0,0.0,0.0,0.0,0.0,3.4564,3.5064,0.0,3.55,3.55,3.55,3.55,3.5486,3.5376,3.5105,3.487,3.4935,0.0,0.0,0.0,0.0,0.0,0.0,0.0,0.0,0.0,0.0,0.0,0.0,4.2103,4.258,4.3404,4.3515,4.4102,4.57,4.5902,4.6526,4.8141,4.8306,4.8306,4.8306,4.8306,4.8306,4.8306,4.8306,4.8306,4.8306,4.8306,4.8306,4.8306,4.8306,4.8306,4.8306,4.8306,4.8306,4.8306,4.8306,4.8306,4.8306,4.8306,4.8306,4.8306,4.8306,4.8306,4.8306,4.8306,4.7937,4.747,4.8075,4.7917,4.7428,0.0,0.0,0.0,0.0,0.0,0.0,0.0,0.0,0.0,0.0,0.0,0.0,0.0,0.0,0.0,0.0,0.0,0.0,0.0,3.0501,3.0463,3.039,3.0404,3.0408,3.0439,3.0439,3.0417,3.0404,3.0404,3.0404,3.0404,3.0404,3.0404,3.0404,3.0404,3.0404,3.0423,3.0692,3.0808,3.0827,3.1096,3.1538,0.0,0.0,0.0,0.0,0.0,0.0,0.0,0.0,3.5007,0.0,0.0,0.0,3.55,3.55,3.5439,3.5376,3.5376,3.5105,3.486,0.0,0.0,0.0,0.0,0.0,0.0,0.0,0.0,0.0,0.0,0.0,0.0,0.0,4.2506,4.2873,4.3423,4.3515,4.4102,4.57,4.5902,4.6526,4.8141,4.8306,4.8306,4.8306,4.8306,4.8306,4.8306,4.8306,4.8306,4.8306,4.8306,4.8306,4.8306,4.8306,4.8306,4.8306,4.8306,4.8306,4.8306,4.8306,4.8306,4.8306,4.8306,4.8306,4.8306,4.8306,4.8191,4.8015,4.8015,4.7512,4.6864,4.7491,4.7324,4.6819,0.0,0.0,0.0,0.0,0.0,0.0,0.0,0.0,0.0,0.0,0.0,0.0,0.0,0.0,0.0,0.0,0.0,0.0,3.0609,3.0541,3.0463,3.039,3.0404,3.0439,3.0498,3.0498,3.0477,3.0404,3.0404,3.0404,3.0404,3.0404,3.0404,3.0404,3.0404,3.0404,3.0462,3.1346,3.1718,3.1775,3.2583,3.2891,3.291,0.0,0.0,0.0,0.0,0.0,0.0,0.0,3.55,3.55,0.0,0.0,0.0,3.55,3.5304,3.5105,3.5105,3.5105,0.0,0.0,0.0,0.0,0.0,0.0,0.0,0.0,0.0,0.0,0.0,0.0,0.0,4.2304,4.2983,4.3515,4.3515,4.3515,4.4102,4.57,4.5902,4.6526,4.8141,4.8306,4.8306,4.8306,4.8306,4.8306,4.8306,4.8306,4.8306,4.8306,4.8306,4.8306,4.8306,4.8306,4.8306,4.8306,4.8306,4.8306,4.8306,4.8306,4.8306,4.8306,4.8306,4.8306,4.8306,4.8287,4.7937,4.7385,4.7385,4.6612,4.5571,4.6167,4.6014,4.5597,0.0,0.0,0.0,0.0,0.0,0.0,0.0,0.0,0.0,0.0,0.0,0.0,0.0,0.0,0.0,0.0,0.0,0.0,3.0609,3.0541,3.0463,3.039,3.0451,3.0482,3.0498,3.0498,3.0481,3.0463,3.0417,3.0404,3.0404,3.0404,3.0404,3.0423,3.1038,3.1308,3.1371,3.2199,3.2545,3.2564,3.2795,3.3276,3.3821,0.0,0.0,0.0,0.0,0.0,0.0,0.0,0.0,0.0,0.0,0.0,0.0,3.55,3.5439,3.5376,3.5376,3.5105,0.0,0.0,0.0,0.0,0.0,0.0,0.0,0.0,0.0,0.0,0.0,0.0,0.0,4.3039,4.3332,4.3515,4.3515,4.3515,4.4102,4.57,4.5902,4.6526,4.8141,4.8306,4.8306,4.8306,4.8306,4.8306,4.8306,4.8306,4.8306,4.8306,4.8306,4.8306,4.8306,4.8306,4.8306,4.8306,4.8306,4.8306,4.8306,4.8306,4.8306,4.8306,4.8306,4.8306,4.8267,4.7838,4.7281,4.6687,4.6687,4.6209,4.5571,4.6167,4.6014,4.5537,0.0,0.0,0.0,0.0,0.0,0.0,0.0,0.0,0.0,0.0,3.0898,3.0898,0.0,0.0,0.0,0.0,0.0,0.0,3.0609,3.0541,3.0486,3.0441,3.0477,3.0501,3.0545,3.0545,3.0525,3.0498,3.0419,3.0404,3.0404,3.0404,3.0577,3.0942,0.0,3.1891,3.2237,3.3064,3.341,3.3449,3.3795,3.4257,3.4718,0.0,0.0,0.0,0.0,0.0,0.0,0.0,0.0,0.0,0.0,0.0,0.0,3.55,3.5432,3.5346,3.5346,0.0,0.0,0.0,0.0,0.0,0.0,0.0,0.0,0.0,0.0,0.0,0.0,0.0,0.0,4.3423,4.3515,4.3515,4.3515,4.3515,4.3992,4.5278,4.5424,4.6067,4.7663,4.781,4.7957,4.8288,4.8306,4.8306,4.8306,4.8306,4.8306,4.8306,4.8306,4.8306,4.8306,4.8306,4.8306,4.8306,4.8306,4.8306,4.8306,4.8306,4.8306,4.8306,4.8306,4.8172,4.7917,4.7551,4.6864,4.6021,4.6021,4.5656,4.5178,4.5545,4.5459,4.5125,0.0,0.0,3.0898,3.0898,0.0,0.0,0.0,0.0,0.0,0.0,3.0898,3.0898,0.0,0.0,0.0,3.0898,3.0769,3.0673,3.062,3.0545,3.0503,3.0516,3.0505,3.0556,3.0614,3.0609,3.0565,3.0498,3.0419,3.0404,3.0404,3.0481,3.0942,3.1718,0.0,3.2333,3.3083,3.3949,3.4321,3.4398,3.5173,3.55,3.55,3.55,0.0,0.0,0.0,0.0,0.0,0.0,0.0,0.0,3.55,3.55,3.55,3.55,3.5339,3.513,0.0,0.0,0.0,0.0,0.0,0.0,0.0,0.0,0.0,0.0,0.0,0.0,0.0,4.2415,4.3515,4.3515,4.3515,4.3515,4.3515,4.3515,4.3791,4.4617,4.4691,4.5296,4.6837,4.6984,4.7278,4.8031,4.8086,4.8086,4.8086,4.8086,4.8122,4.8196,4.8196,4.8233,4.8306,4.8306,4.8306,4.8306,4.8306,4.8306,4.8306,4.8306,4.8306,4.8287,4.823,4.7877,4.7302,4.7237,4.6519,4.5407,4.5407,4.5089,4.4615,4.4615,4.4615,4.4615,0.0,0.0,3.0898,3.0898,0.0,0.0,0.0,0.0,0.0,0.0,0.0,0.0,0.0,0.0,0.0,3.0898,3.0726,3.0645,3.0679,3.0565,3.0521,3.0575,3.0638,3.065,3.068,3.0636,3.0565,3.0498,3.0419,3.0404,0.0,0.0,0.0,3.1756,0.0,3.3763,3.3975,3.4853,3.5212,3.5231,3.5423,3.55,3.55,3.55,3.55,0.0,0.0,0.0,0.0,0.0,0.0,0.0,3.55,3.55,3.55,3.55,3.5453,3.5398,0.0,0.0,0.0,0.0,0.0,0.0,0.0,0.0,0.0,0.0,0.0,0.0,0.0,4.2415,4.3515,4.3515,4.3515,4.3515,4.3515,4.3515,4.3791,4.4617,4.4691,4.5094,4.6067,4.6159,4.6232,4.6397,4.6416,4.6416,4.6416,4.6416,4.6709,4.7333,4.7351,4.7663,4.8306,4.8306,4.8306,4.8306,4.8306,4.8306,4.8306,4.8306,4.8306,4.8267,4.7797,4.7216,4.6571,4.6112,4.5459,4.4786,4.4786,4.472,4.4615,4.4615,4.4615,4.4615,0.0,0.0,0.0,0.0,0.0,0.0,0.0,0.0,0.0,0.0,0.0,0.0,0.0,3.0898,0.0,0.0,3.0756,3.0669,3.0693,3.0592,3.0578,3.0633,3.0682,3.0686,3.0639,3.0591,3.0509,3.0442,3.0849,0.0,0.0,0.0,0.0,3.2929,0.0,3.443,3.4853,3.5308,3.55,3.55,3.55,3.55,3.55,3.55,3.55,0.0,0.0,0.0,0.0,0.0,0.0,0.0,0.0,0.0,3.55,3.55,3.55,3.55,0.0,0.0,0.0,0.0,0.0,0.0,0.0,0.0,0.0,0.0,0.0,0.0,4.1095,4.2415,4.3515,4.3515,4.3515,4.3515,4.3515,4.3515,4.3662,4.4085,4.4121,4.4433,4.5259,4.5333,4.5498,4.5865,4.5902,4.5902,4.5902,4.5902,4.6085,4.6507,4.6544,4.6746,4.715,4.7516,4.7718,4.7718,4.8122,4.8306,4.8306,4.8306,4.8306,4.8267,4.7656,4.7021,4.6359,4.5757,4.5125,4.4615,4.4615,4.4615,4.4615,4.4615,4.4615,4.4615,0.0,0.0,0.0,0.0,0.0,0.0,0.0,0.0,0.0,0.0,0.0,0.0,0.0,3.0898,3.0898,0.0,0.0,0.0,3.0723,3.0689,3.0661,3.0693,3.0695,3.0669,3.0584,3.0525,3.0477,3.0404,0.0,0.0,0.0,0.0,0.0,3.4205,0.0,3.4814,3.55,3.55,3.55,3.55,3.55,3.55,3.55,3.55,0.0,0.0,0.0,3.55,3.55,3.55,0.0,0.0,0.0,0.0,3.55,3.55,3.55,3.55,0.0,0.0,0.0,0.0,0.0,0.0,0.0,0.0,0.0,0.0,0.0,4.1095,4.1095,4.2415,4.3515,4.3515,4.3515,4.3515,4.3515,4.3515,4.3515,4.3515,4.3515,4.3754,4.4433,4.4488,4.4782,4.5443,4.548,4.548,4.548,4.548,4.5553,4.5681,4.5681,4.5755,4.5902,4.6544,4.6947,4.7113,4.7921,4.8306,4.8287,4.8191,4.8152,4.8094,4.7491,4.6847,4.6192,4.5597,4.5052,4.4615,4.4615,4.4615,4.4615,4.4615,4.4615,4.4615,0.0,0.0,0.0,0.0,0.0,0.0,0.0,0.0,0.0,0.0,3.0898,3.0898,3.0898,3.0898,3.0898,3.0898,3.0771,3.0746,3.0878,0.0,0.0,3.0696,3.0695,3.0631,3.0528,3.0507,3.0477,0.0,0.0,0.0,0.0,0.0,0.0,3.4225,0.0,0.0,3.55,3.55,3.55,3.55,3.55,3.55,3.55,0.0,0.0,0.0,0.0,0.0,0.0,3.55,3.55,0.0,0.0,0.0,3.55,3.55,3.55,3.55,0.0,0.0,0.0,0.0,0.0,0.0,0.0,0.0,0.0,0.0,4.0178,4.1095,4.1095,4.2415,4.3515,4.3515,4.3515,4.3515,4.3515,4.3515,4.3515,4.3515,4.3515,4.3551,4.3662,4.3644,4.3699,4.3809,4.3827,4.3827,4.3827,4.3827,4.414,4.4837,4.4874,4.5186,4.5883,4.6012,4.6416,4.7113,4.7921,4.8306,4.8287,4.7756,4.753,4.747,4.6824,4.6185,4.5571,4.4971,4.4682,4.4615,4.4615,4.4615,4.4615,4.4615,4.4615,4.4615,0.0,0.0,0.0,0.0,0.0,0.0,0.0,0.0,0.0,0.0,0.0,3.0898,3.0898,3.0898,3.0898,3.0898,3.0857,3.0837,3.0898,3.0836,3.0768,3.0696,3.0638,3.0558,3.0503,3.0467,3.0665,0.0,0.0,0.0,0.0,3.4526,3.493,0.0,0.0,0.0,0.0,0.0,3.55,3.5538,3.5981,3.5904,0.0,0.0,0.0,0.0,0.0,0.0,0.0,0.0,3.6911,3.6911,3.6911,0.0,0.0,0.0,0.0,0.0,0.0,0.0,0.0,0.0,0.0,0.0,0.0,0.0,0.0,0.0,4.0184,4.0738,4.1052,4.2047,4.2983,4.3441,4.3515,4.3515,4.3515,4.3515,4.3515,4.3515,4.3515,4.3515,4.3515,4.3515,4.3515,4.3515,4.3515,4.3515,4.3515,4.3515,4.3644,4.4011,4.403,4.4195,4.4544,4.5002,4.5865,4.7094,4.7461,4.7846,4.8287,4.7695,4.7406,4.7342,4.6336,4.5732,4.5459,4.4841,4.4615,4.4615,4.4615,4.4615,4.4615,4.4615,4.4615,4.4615,0.0,0.0,0.0,0.0,0.0,0.0,0.0,0.0,0.0,0.0,0.0,3.0898,3.0898,0.0,0.0,0.0,3.0898,3.0898,3.0898,3.0771,3.069,3.0679,3.0561,3.0485,3.0472,3.064,0.0,0.0,0.0,0.0,3.4225,3.5084,3.55,0.0,3.55,0.0,0.0,0.0,0.0,0.0,0.0,0.0,0.0,0.0,0.0,0.0,0.0,0.0,0.0,0.0,0.0,0.0,0.0,0.0,0.0,0.0,0.0,0.0,0.0,0.0,0.0,0.0,0.0,0.0,0.0,0.0,0.0,0.0,4.0189,4.0381,4.0815,4.1673,4.2506,4.3094,4.3369,4.3515,4.3515,4.3515,4.3515,4.3515,4.3515,4.3515,4.3515,4.3515,4.3515,4.3515,4.3515,4.3515,4.3515,4.3515,4.3515,4.3515,4.3515,4.3515,4.3515,4.4305,4.5296,4.6489,4.6892,4.7406,4.7974,4.7401,4.715,4.7066,4.5982,4.5407,4.5232,4.4803,4.4615,4.4615,4.4615,4.4615,4.4615,4.4615,4.4615,4.4615,0.0,0.0,0.0,0.0,0.0,0.0,0.0,0.0,0.0,0.0,0.0,3.0898,3.0898,3.0898,3.0898,3.0898,3.0898,3.0898,3.0898,3.0771,3.0675,3.0614,3.0541,0.0,3.0421,3.1218,0.0,0.0,0.0,0.0,3.4225,3.5084,3.55,3.55,3.55,3.55,3.55,0.0,0.0,0.0,0.0,3.6481,0.0,0.0,0.0,0.0,0.0,0.0,0.0,0.0,0.0,0.0,0.0,0.0,0.0,0.0,0.0,0.0,0.0,0.0,0.0,0.0,0.0,0.0,0.0,0.0,0.0,0.0,4.0109,4.0171,4.0317,4.1422,4.2304,4.2359,4.3002,4.3515,4.3515,4.3515,4.3515,4.3515,4.3515,4.3515,4.3515,4.3515,4.3515,4.3515,4.3515,4.3515,4.3515,4.3515,4.3515,4.3515,4.3515,4.3515,4.3515,4.4305,4.4728,4.4838,4.636,4.7113,4.7148,4.6681,4.6454,4.643,4.5783,4.5178,4.4654,4.4598,4.4615,4.4615,4.4615,4.4615,4.4615,4.4615,4.4615,4.4615,0.0,0.0,0.0,0.0,0.0,0.0,0.0,0.0,0.0,0.0,0.0,0.0,0.0,3.0898,3.0878,3.0771,3.0731,3.0712,3.0712,3.0617,3.0558,3.0541,3.1004,3.1251,3.1237,0.0,0.0,0.0,0.0,3.4487,3.5045,3.5346,3.55,3.55,3.55,3.55,3.5538,3.6058,0.0,0.0,3.7603,3.7969,0.0,0.0,0.0,0.0,0.0,0.0,0.0,0.0,0.0,0.0,0.0,0.0,0.0,0.0,0.0,0.0,0.0,0.0,0.0,0.0,0.0,0.0,0.0,0.0,4.0127,4.0315,4.0213,4.0118,4.0154,4.0635,4.1286,4.2154,4.2543,4.291,4.3441,4.3515,4.3515,4.3515,4.3515,4.3515,4.3515,4.3515,4.3515,4.3515,4.3515,4.3515,4.3515,4.3515,4.3515,4.3515,4.3515,4.3515,4.3515,4.3791,4.4195,4.4727,4.5278,4.59,4.6495,4.5905,4.5692,4.5783,4.5178,4.4786,4.4615,4.4615,4.4615,4.4615,4.4615,4.4615,4.4615,4.4615,4.4615,4.4615,0.0,0.0,0.0,0.0,0.0,0.0,0.0,0.0,0.0,0.0,0.0,0.0,0.0,0.0,3.1335,3.1529,3.1504,3.1475,3.1475,3.1386,3.1346,3.1346,3.1832,3.2102,3.2102,0.0,0.0,0.0,0.0,0.0,0.0,3.55,3.55,3.5519,3.5788,3.5904,0.0,0.0,0.0,3.7642,0.0,3.8854,3.8931,0.0,0.0,0.0,0.0,0.0,0.0,0.0,0.0,0.0,0.0,0.0,0.0,0.0,0.0,0.0,0.0,0.0,0.0,0.0,0.0,0.0,0.0,0.0,4.0169,4.0439,4.0356,4.0204,4.012,4.0155,4.0542,4.149,4.1781,4.2084,4.2616,4.2928,4.3094,4.3094,4.3332,4.3515,4.3515,4.3515,4.3515,4.3515,4.3515,0.0,4.3515,4.3515,4.3515,4.3515,4.3515,4.3515,4.3515,4.3515,4.3754,4.4305,4.4563,4.5093,4.5773,4.5365,4.5308,4.5459,4.4852,4.4615,4.4615,4.4615,4.4615,4.4615,4.4615,4.4615,4.4615,4.4615,4.4615,4.4615,0.0,0.0,0.0,0.0,0.0,0.0,0.0,0.0,0.0,0.0,0.0,0.0,0.0,0.0,0.0,3.3122,3.319,3.3186,3.3186,3.3076,3.3011,3.3011,3.2964,3.2949,3.2949,0.0,0.0,0.0,0.0,0.0,0.0,0.0,3.5519,3.5577,3.6346,3.6731,3.6769,0.0,3.7757,3.9227,0.0,3.9046,4.0419,0.0,0.0,0.0,4.0496,4.0496,0.0,0.0,0.0,0.0,0.0,0.0,0.0,0.0,0.0,0.0,0.0,0.0,0.0,0.0,0.0,0.0,3.9111,0.0,3.9554,4.0342,4.0496,4.0414,4.0158,4.0101,4.0146,4.0264,4.0717,4.1075,4.1095,4.1772,4.2268,4.2268,4.2947,4.3441,4.3441,4.346,4.346,4.346,4.3496,4.3515,4.3515,4.3515,4.3515,4.3515,4.3515,4.3515,4.3515,4.3515,4.3515,4.3515,4.4287,4.4783,4.4978,4.5116,4.5267,4.5433,4.4852,4.4615,4.4615,4.4615,4.4615,4.4615,4.4615,4.4615,4.4615,4.4615,4.4615,4.4615,0.0,0.0,0.0,0.0,0.0,0.0,0.0,0.0,0.0,0.0,0.0,0.0,0.0,0.0,0.0,3.3048,3.301,3.2977,3.2977,3.2956,3.2933,3.2933,3.3513,3.384,3.384,0.0,0.0,0.0,0.0,0.0,0.0,0.0,0.0,0.0,3.6596,3.7411,3.8584,3.8584,0.0,0.0,3.9669,4.0092,0.0,0.0,0.0,0.0,0.0,4.0496,4.0496,0.0,4.0496,4.0496,0.0,0.0,0.0,0.0,0.0,0.0,4.0169,0.0,0.0,0.0,0.0,0.0,3.9381,3.9746,4.0227,4.0458,4.0496,4.0481,4.0397,4.0223,4.0109,4.0152,4.0369,4.0651,4.1052,4.1279,4.1425,4.1425,4.1627,4.1772,4.1772,4.2286,4.2635,0.0,4.3167,4.3515,4.3515,4.3515,4.3515,4.3515,4.3515,4.3515,4.3515,4.3515,4.3515,4.3515,4.3718,4.3993,4.4285,4.4301,4.4527,4.4841,4.4682,4.4615,4.4615,4.4615,4.4615,4.4615,4.4615,4.4615,4.4615,4.4615,4.4615,4.4615,0.0,0.0,0.0,0.0,0.0,0.0,0.0,0.0,0.0,0.0,0.0,0.0,0.0,0.0,0.0,3.4013,3.4013,3.3987,3.3987,3.3987,3.3987,3.3987,3.4468,3.4737,3.4737,0.0,0.0,0.0,0.0,0.0,0.0,0.0,0.0,0.0,0.0,0.0,0.0,0.0,0.0,0.0,4.0304,0.0,0.0,4.0496,4.0496,0.0,0.0,0.0,4.0496,4.0496,4.0496,0.0,0.0,0.0,0.0,0.0,0.0,0.0,0.0,0.0,0.0,0.0,0.0,0.0,3.9919,4.0169,4.0496,0.0,4.0496,4.0496,4.0496,4.0372,4.0223,4.012,4.0049,4.0074,4.023,4.047,4.0598,4.0598,4.091,4.1095,4.1095,4.1517,4.1809,4.1809,4.2543,4.3149,4.3478,4.3515,4.3515,4.3515,4.3515,4.3515,4.3515,4.3515,4.3515,4.3515,4.3515,4.35,4.3567,4.4147,4.4288,4.4141,4.4715,4.4841,4.4615,4.4615,4.4615,4.4615,4.4615,4.4615,4.4615,4.4615,4.4615,4.4615,0.0,0.0,3.3414,3.3346,3.341,0.0,0.0,0.0,0.0,0.0,0.0,0.0,0.0,0.0,0.0,0.0,3.55,3.55,3.55,3.55,3.55,3.55,3.55,3.55,3.55,0.0,0.0,0.0,0.0,0.0,0.0,0.0,0.0,0.0,3.895,3.9361,0.0,0.0,0.0,4.0496,4.0496,4.0496,0.0,0.0,4.0496,0.0,4.0496,4.0496,4.0496,4.0496,4.0496,0.0,0.0,0.0,0.0,0.0,4.0496,0.0,0.0,0.0,0.0,0.0,0.0,0.0,4.0496,4.0496,4.0496,4.0496,4.0496,4.0477,4.0381,4.0362,4.0298,4.0043,3.9728,3.9416,3.9147,3.9479,3.9772,3.9772,4.0414,4.082,4.082,4.0912,4.0967,4.0967,4.1791,4.2598,4.3331,4.346,4.3515,4.3515,4.3515,4.3515,4.3515,4.3515,4.3515,4.3515,4.3515,4.3321,4.3066,4.4396,4.4445,4.3573,4.4914,4.5169,4.4615,4.4615,4.4615,4.4615,4.4615,4.4615,4.4615,4.4615,4.4615,4.4615,3.3225,3.377,3.4254,3.4257,0.0,0.0,0.0,0.0,0.0,0.0,0.0,0.0,0.0,0.0,0.0,0.0,0.0,3.55,3.55,3.55,3.55,3.55,3.55,3.55,3.55,3.5327,0.0,0.0,0.0,0.0,0.0,0.0,0.0,0.0,3.9227,3.9669,0.0,0.0,0.0,4.0496,4.0496,0.0,4.0496,4.0496,4.0496,4.0496,4.0496,4.0496,4.0496,0.0,4.0496,4.0496,0.0,0.0,0.0,0.0,0.0,0.0,0.0,0.0,0.0,0.0,0.0,0.0,4.0496,4.0496,4.0496,4.0496,4.0496,4.0304,3.965,3.9534,3.9519,3.9453,3.9173,3.8999,3.9098,3.8999,3.8927,3.8927,3.9074,3.9184,3.9184,3.9753,4.012,4.012,4.1479,4.2378,4.2525,4.3149,4.3515,4.3515,4.3515,4.3515,4.3515,4.3515,4.3515,4.3515,4.3515,4.3524,4.3665,4.4579,4.4671,4.4191,4.5105,4.5169,4.4615,4.4615,4.4615,4.4615,4.4615,4.4615,4.4615,4.4615,4.4615,4.4615,3.4399,3.4745,3.5038,3.4991,0.0,0.0,0.0,0.0,0.0,0.0,0.0,0.0,0.0,0.0,0.0,0.0,0.0,0.0,0.0,0.0,3.6757,3.6757,3.6757,3.6757,3.6757,3.6757,3.6949,0.0,0.0,0.0,0.0,0.0,0.0,0.0,0.0,0.0,0.0,0.0,4.0496,4.0496,4.0496,0.0,4.0496,4.0496,4.0496,4.0496,4.0496,4.0496,4.0496,4.0496,4.0496,0.0,0.0,4.0496,4.0496,0.0,4.0496,4.0496,0.0,0.0,0.0,4.0496,0.0,0.0,0.0,4.0496,4.0496,4.0496,4.0496,4.0381,3.9977,3.99,3.9765,3.9381,3.9378,3.9173,3.8414,3.8648,3.8859,3.8723,3.8707,3.8707,3.8707,3.9056,3.946,3.9863,4.0653,4.1442,4.2268,4.2671,4.3075,4.3496,4.3515,4.3515,4.3515,4.3515,4.3515,4.3515,4.3515,4.3415,4.3305,4.4773,4.4825,4.384,4.5302,4.5433,4.4615,4.4615,4.4615,4.4615,4.4615,4.4615,4.4615,4.4615,4.4615,4.4615,3.559,3.5588,3.5568,3.5508,0.0,0.0,0.0,0.0,0.0,0.0,0.0,0.0,0.0,0.0,0.0,0.0,0.0,0.0,0.0,0.0,0.0,3.8007,3.8007,3.8007,3.8007,3.8007,3.8084,0.0,0.0,0.0,0.0,0.0,0.0,0.0,0.0,0.0,0.0,0.0,0.0,4.0496,0.0,4.0496,4.0496,4.0496,4.0496,4.0496,4.0496,4.0496,4.0496,4.0496,0.0,4.0496,4.0496,4.0496,0.0,0.0,0.0,0.0,0.0,0.0,0.0,0.0,0.0,4.0496,0.0,0.0,0.0,0.0,0.0,0.0,0.0,0.0,0.0,0.0,0.0,0.0,0.0,3.8384,0.0,3.8582,3.8643,3.8707,3.8707,3.8707,3.8964,3.9625,3.9808,4.0469,4.1772,4.2139,4.2598,4.324,4.3423,4.3515,4.3515,4.3515,4.3515,4.3515,4.3515,4.3268,4.2918,4.4986,4.4962,4.3482,4.5499,4.5707,4.4615,4.4615,4.4615,4.4615,4.4615,4.4615,4.4615,4.4615,4.4615,4.4615,3.5515,3.5515,3.5508,3.5507,0.0,0.0,0.0,0.0,0.0,0.0,0.0,0.0,0.0,0.0,0.0,0.0,0.0,0.0,3.8007,0.0,0.0,0.0,3.8007,3.8007,3.8007,3.8007,3.8373,3.915,0.0,0.0,0.0,0.0,0.0,0.0,4.0496,0.0,0.0,0.0,4.0496,0.0,4.0496,4.0496,0.0,4.0496,4.0496,4.0496,4.0496,4.0496,4.0496,0.0,4.0496,4.0496,0.0,4.0496,4.0496,0.0,0.0,0.0,0.0,0.0,0.0,0.0,4.0496,0.0,0.0,0.0,4.0496,4.0496,0.0,0.0,0.0,0.0,0.0,0.0,0.0,0.0,3.7678,3.828,3.8615,3.8048,3.8405,3.8707,3.8707,3.8707,3.8744,3.8836,3.9496,3.9974,4.0157,4.1534,4.2341,4.2433,4.313,4.3515,4.3515,4.3515,4.3515,4.3515,4.3515,4.348,4.3465,4.515,4.5182,4.3996,4.567,4.5707,4.4615,4.4615,4.4615,4.4615,4.4615,4.4615,4.4615,4.4615,4.4615,4.4615,3.6308,3.6192,3.6365,3.6873,0.0,0.0,0.0,0.0,0.0,0.0,0.0,0.0,0.0,0.0,0.0,0.0,0.0,3.9457,0.0,0.0,0.0,0.0,0.0,0.0,3.9457,3.9457,3.9631,3.9996,3.9996,0.0,0.0,0.0,0.0,0.0,4.0496,0.0,4.0496,0.0,4.0496,0.0,0.0,0.0,0.0,4.0496,4.0496,4.0496,4.0496,4.0496,4.0496,0.0,4.0496,0.0,0.0,0.0,0.0,0.0,0.0,0.0,0.0,0.0,0.0,0.0,0.0,0.0,4.0496,0.0,4.0496,0.0,0.0,0.0,0.0,0.0,0.0,0.0,3.9457,0.0,0.0,0.0,3.9028,0.0,0.0,0.0,3.7966,3.8432,3.8707,3.8707,3.9019,3.9405,3.9879,4.0543,4.1332,4.2268,4.2635,4.302,4.3515,4.3515,4.3515,4.3515,4.3515,4.3515,4.3551,4.5168,4.5202,4.4087,4.5711,4.5707,4.4615,4.4615,4.4615,4.4615,4.4615,4.4615,4.4615,4.4615,4.4615,4.4615,3.7488,0.0,0.0,0.0,0.0,0.0,0.0,0.0,0.0,0.0,0.0,0.0,3.9631,4.015,0.0,0.0,4.0496,4.0496,0.0,0.0,4.0496,0.0,0.0,0.0,0.0,0.0,4.0496,4.0496,0.0,0.0,0.0,0.0,0.0,0.0,0.0,4.0496,4.0496,0.0,0.0,4.0496,4.0496,4.065,4.0843,4.0593,4.0496,4.0496,4.0496,4.0496,4.0496,4.0496,4.0496,0.0,4.0496,0.0,0.0,0.0,0.0,0.0,4.0496,0.0,0.0,0.0,0.0,0.0,0.0,0.0,0.0,0.0,0.0,0.0,0.0,0.0,0.0,0.0,0.0,3.9919,0.0,0.0,0.0,0.0,0.0,0.0,0.0,3.8028,3.8469,3.8689,0.0,3.8946,3.9533,3.9772,4.0543,4.1937,4.2194,4.269,4.3496,4.3515,4.3515,4.3515,4.3515,4.3515,4.3534,4.4986,4.5043,4.4087,4.5522,4.5545,4.4615,4.4615,4.4615,4.4615,4.4615,4.4615,4.4615,4.4615,4.4615,4.4615,3.9073,3.8546,0.0,0.0,0.0,0.0,0.0,0.0,0.0,0.0,0.0,0.0,0.0,0.0,0.0,0.0,0.0,4.0496,4.0496,0.0,4.0496,0.0,0.0,4.0496,0.0,0.0,0.0,0.0,0.0,0.0,0.0,0.0,0.0,0.0,0.0,4.0496,4.0496,4.0496,4.0496,4.0496,4.0496,4.1008,4.1681,0.0,4.0496,4.0496,4.0496,0.0,0.0,4.0496,4.0496,0.0,0.0,0.0,0.0,0.0,0.0,0.0,0.0,0.0,0.0,4.0496,0.0,0.0,0.0,0.0,4.0496,0.0,0.0,0.0,0.0,0.0,0.0,0.0,0.0,0.0,0.0,0.0,0.0,0.0,0.0,0.0,0.0,3.7529,3.786,0.0,3.8707,0.0,3.8744,3.9478,4.0286,4.1113,4.1901,4.269,4.3496,4.3515,4.3515,4.3515,4.3515,4.3515,4.3534,4.4554,4.4653,4.4064,4.5095,4.5178,4.4615,4.4615,4.4615,4.4615,4.4615,4.4615,4.4615,4.4615,4.4615,4.4615,0.0,0.0,0.0,0.0,0.0,0.0,0.0,4.0323,0.0,0.0,0.0,0.0,0.0,4.0496,4.0496,0.0,0.0,4.0496,4.0496,4.0496,0.0,0.0,0.0,4.0496,0.0,0.0,0.0,0.0,0.0,0.0,0.0,0.0,0.0,0.0,0.0,4.222,0.0,0.0,0.0,0.0,0.0,4.2393,4.2624,0.0,0.0,4.222,4.222,4.222,0.0,4.222,4.222,4.222,4.222,4.1816,4.1354,4.1354,4.095,0.0,0.0,0.0,4.0496,4.0496,0.0,0.0,0.0,0.0,0.0,0.0,0.0,0.0,0.0,0.0,0.0,0.0,0.0,0.0,0.0,0.0,0.0,0.0,0.0,0.0,0.0,0.0,0.0,0.0,0.0,0.0,0.0,3.8964,3.9717,4.1058,4.1352,4.2158,4.3496,4.3515,4.3515,4.3515,4.3515,4.3515,4.3534,4.4534,4.4632,4.4064,4.507,4.5169,4.4615,4.4615,4.4615,4.4615,4.4615,4.4615,4.4615,4.4615,4.4615,4.4615,4.0175,0.0,0.0,0.0,0.0,0.0,0.0,0.0,0.0,0.0,4.0434,0.0,4.0616,0.0,4.1092,0.0,4.121,4.1272,4.1412,4.142,0.0,4.0969,4.095,0.0,0.0,0.0,0.0,0.0,0.0,4.142,0.0,0.0,0.0,0.0,0.0,0.0,4.3104,0.0,4.3104,0.0,0.0,4.3528,0.0,0.0,4.3624,4.3104,0.0,4.3104,4.3104,4.3104,4.3104,4.3104,4.3104,4.272,4.2258,4.2258,4.1854,4.142,4.142,4.12,0.0,4.095,4.0727,0.0,4.0496,0.0,0.0,0.0,0.0,0.0,0.0,0.0,0.0,0.0,0.0,0.0,0.0,4.0054,0.0,0.0,0.0,0.0,0.0,0.0,0.0,0.0,0.0,0.0,0.0,3.8707,3.9313,4.0634,4.0948,4.1754,4.3057,4.3368,4.3515,4.3515,4.3515,4.3392,4.3251,4.4219,4.4289,4.3781,4.4751,4.4944,4.4615,4.4615,4.4615,4.4615,4.4615,4.4615,4.4615,4.4615,4.4615,4.4615,3.9599,3.9625,0.0,0.0,4.008,0.0,0.0,0.0,4.0029,0.0,4.0387,4.0865,4.0877,4.1574,4.216,4.2502,4.2522,4.2699,4.3069,4.3104,0.0,0.0,4.183,4.1445,4.0592,0.0,0.0,0.0,0.0,0.0,0.0,0.0,0.0,0.0,4.3201,0.0,4.3203,4.3212,4.322,4.3297,4.4066,4.4355,4.4451,4.5287,4.4605,4.322,4.322,4.322,4.322,4.322,4.322,4.322,4.322,4.3181,4.3162,4.3162,4.3124,4.3104,4.3104,4.2508,4.1865,4.1865,4.12,0.0,0.0,0.0,4.0496,0.0,0.0,0.0,0.0,0.0,0.0,0.0,0.0,0.0,0.0,0.0,0.0,0.0,0.0,0.0,0.0,0.0,0.0,0.0,0.0,0.0,0.0,0.0,3.9074,3.9863,4.0689,4.148,4.2286,4.3094,4.3515,4.3515,4.3462,4.3196,4.2728,4.3575,4.3693,4.3254,4.4177,4.4615,4.4615,4.4615,4.4615,4.4615,4.4615,4.4615,4.4615,4.4615,4.4615,4.4615,3.9599,3.9884,4.008,0.0,3.9827,3.9887,0.0,0.0,0.0,0.0,4.1569,4.1798,4.205,4.2262,4.2531,4.2916,4.2953,0.0,0.0,0.0,0.0,4.2336,4.2326,4.2112,4.1628,4.2082,0.0,4.2326,0.0,0.0,4.3104,0.0,0.0,0.0,0.0,0.0,4.4601,4.4842,4.496,4.4979,4.519,4.5267,0.0,0.0,4.5325,4.496,4.496,4.496,4.496,4.496,4.496,4.496,4.496,4.4509,4.3989,4.3989,4.3566,4.3104,4.3104,4.2931,4.2777,4.2777,4.2104,4.147,0.0,0.0,0.0,0.0,0.0,0.0,0.0,0.0,0.0,0.0,0.0,0.0,0.0,0.0,0.0,0.0,0.0,0.0,0.0,0.0,0.0,0.0,0.0,0.0,0.0,0.0,0.0,3.9863,4.0689,4.148,4.2286,4.3094,4.3515,4.3497,4.3105,4.2845,4.2727,4.3193,4.3322,4.3254,4.4177,4.4615,4.4615,4.4615,4.4615,4.4615,4.4615,4.4615,4.4615,4.4615,4.4615,4.4615,4.0271,4.0461,0.0,4.0446,0.0,0.0,4.0859,4.1052,0.0,4.1563,4.1921,0.0,4.2393,4.2726,4.3095,4.346,4.3494,0.0,4.3746,0.0,0.0,4.3092,4.3073,4.2881,4.2495,4.3014,0.0,4.3283,0.0,0.0,4.4201,0.0,0.0,0.0,0.0,4.5495,0.0,4.5352,4.5371,4.5371,4.5371,0.0,0.0,4.5531,4.5594,4.5594,4.5594,4.5594,4.5594,4.5594,4.5594,4.5594,4.5594,4.5267,4.4874,4.4874,4.4547,4.4182,4.4182,4.3912,4.3624,4.3624,4.2989,4.2374,4.2374,4.1681,4.1066,0.0,0.0,0.0,0.0,0.0,0.0,0.0,0.0,0.0,0.0,0.0,0.0,0.0,0.0,0.0,0.0,0.0,0.0,0.0,0.0,0.0,0.0,0.0,0.0,3.935,4.0506,4.1315,4.1772,4.291,4.3515,4.3479,4.2958,4.2577,4.2335,4.2935,4.3061,4.2869,4.4085,4.4615,4.4615,4.4615,4.4615,4.4615,4.4615,4.4615,4.4615,4.4615,4.4615,4.4615,4.1095,0.0,0.0,0.0,0.0,0.0,0.0,4.1579,0.0,4.1438,0.0,4.2633,4.2682,4.3416,4.4026,4.4363,0.0,4.4537,4.4887,4.4806,4.4543,4.4007,4.3867,4.3615,4.3159,4.3923,0.0,0.0,0.0,0.0,0.0,0.0,0.0,0.0,0.0,0.0,0.0,4.5107,4.4988,4.5041,4.5041,4.5041,4.5074,4.5352,4.5504,4.5522,4.5522,4.5568,4.5594,4.5594,4.5594,4.5594,4.5594,4.5594,4.5594,4.5594,4.5594,4.5594,4.5594,4.5056,4.447,4.447,4.3855,4.3258,4.3258,4.2585,4.1942,4.1808,4.12,4.065,0.0,0.0,0.0,0.0,0.0,0.0,0.0,0.0,0.0,0.0,0.0,0.0,0.0,0.0,0.0,0.0,0.0,0.0,0.0,0.0,0.0,3.8854,4.0322,4.115,4.126,4.2745,4.3462,4.3392,4.2846,4.2315,4.1872,4.2686,4.2852,4.2523,4.3988,4.4615,4.4615,4.4615,4.4615,4.4615,4.4615,4.4615,4.4615,4.4615,4.4615,4.4615,0.0,0.0,0.0,0.0,0.0,4.3075,4.3075,4.2573,4.2388,4.3001,4.3773,4.4389,4.466,4.5417,4.6044,4.645,4.6459,0.0,0.0,0.0,0.0,4.4976,4.4321,4.3793,4.3441,4.4173,4.4561,0.0,0.0,0.0,0.0,0.0,0.0,0.0,0.0,0.0,4.4745,4.4359,0.0,4.4701,4.4701,4.4701,4.4682,4.4745,4.4943,4.5191,4.5191,4.5381,4.5594,4.5594,4.5594,4.5594,4.5594,4.5594,4.5594,4.5594,4.5594,4.5594,4.5594,4.5498,4.5364,4.5364,4.472,4.4085,4.4085,4.3451,4.2662,4.1942,4.1681,4.1354,4.0631,0.0,0.0,0.0,0.0,0.0,0.0,0.0,0.0,0.0,0.0,0.0,0.0,0.0,0.0,0.0,0.0,0.0,0.0,0.0,0.0,0.0,4.0616,0.0,0.0,0.0,4.3268,4.2845,4.2244,4.1991,4.2061,4.2338,4.2732,4.3267,4.4181,4.4615,4.4615,4.4615,4.4615,4.4615,4.4615,4.4615,4.4615,4.4615,4.4615,4.4615,0.0,0.0,0.0,0.0,0.0,0.0,0.0,4.4158,4.4158,4.4121,4.4819,4.5385,4.5539,4.5907,4.6214,4.6411,4.6427,4.6427,4.6427,4.6073,4.5831,4.5829,4.5062,0.0,4.4683,4.4631,4.4593,4.4593,0.0,0.0,0.0,0.0,0.0,0.0,0.0,4.4745,0.0,0.0,0.0,4.4276,4.4276,4.4276,4.4304,4.4527,4.4695,4.4849,4.4849,4.5063,4.5381,4.5531,4.5594,4.5594,4.5594,4.5594,4.5594,4.5594,4.5594,4.5594,4.5594,4.5594,4.5594,4.5594,4.5287,4.4979,4.4979,4.4316,4.3605,4.3181,4.2758,4.222,4.1335,4.0804,0.0,0.0,0.0,0.0,0.0,0.0,0.0,0.0,0.0,0.0,0.0,0.0,0.0,0.0,0.0,0.0,0.0,0.0,0.0,0.0,0.0,0.0,0.0,0.0,0.0,4.2692,4.1771,4.1597,4.2102,4.2244,4.2709,4.3426,4.4248,4.4615,4.4615,4.4615,4.4615,4.4615,4.4615,4.4615,4.4615,4.4615,4.4615,4.4615,0.0,4.3754,0.0,0.0,4.4525,0.0,4.4966,4.5645,4.5865,4.5057,4.5663,4.6159,4.6159,4.6305,4.6416,4.6416,4.6416,4.6416,4.6416,4.625,4.6267,4.6539,4.5774,4.5506,4.5809,4.5096,4.4737,0.0,0.0,0.0,0.0,0.0,0.0,0.0,0.0,0.0,0.0,0.0,4.3878,4.3915,4.4082,4.4156,4.4206,4.4687,4.4918,4.4987,4.4987,4.5212,4.5544,4.5809,4.5764,4.5594,4.5594,4.5594,4.5594,4.5594,4.5594,4.5594,4.5594,4.5594,4.5594,4.5594,4.5594,4.5594,4.5594,4.5075,4.4509,4.4335,4.3662,4.2835,4.1962,4.1187,0.0,0.0,0.0,0.0,0.0,0.0,0.0,0.0,0.0,0.0,0.0,0.0,0.0,0.0,0.0,0.0,3.8707,0.0,0.0,0.0,0.0,4.1572,4.2543,0.0,4.2826,4.2692,4.1758,4.1696,4.2345,4.2483,4.2946,4.3707,4.4316,4.4615,4.4615,4.4615,4.4615,4.4615,4.4615,4.4615,4.4615,4.4615,4.4615,4.4615,0.0,0.0,0.0,0.0,0.0,0.0,4.5792,4.6471,4.6691,4.5883,4.6489,4.6984,4.6984,4.7626,4.8086,4.8086,4.8086,4.8086,4.8086,4.7388,4.7003,4.7022,4.625,4.5863,4.5881,4.5403,4.5143,0.0,0.0,4.4233,0.0,0.0,0.0,0.0,0.0,0.0,0.0,4.3546,4.3548,4.3603,4.4339,4.4633,4.4707,4.5495,4.5958,4.623,4.623,4.6491,4.6838,4.6865,4.6302,4.5594,4.5594,4.5594,4.5594,4.5594,4.5594,4.5594,4.5594,4.5594,4.5594,4.5594,4.5594,4.5594,4.5594,4.5537,4.5248,4.4451,4.3662,4.2835,4.1962,4.1473,4.1055,0.0,0.0,0.0,0.0,0.0,0.0,0.0,0.0,0.0,0.0,3.8707,0.0,0.0,3.8707,0.0,0.0,0.0,0.0,4.093,0.0,4.1846,4.3369,4.3408,4.3178,4.2692,4.2711,4.2858,4.3099,4.324,4.3741,4.4496,4.4581,4.4615,4.4615,4.4615,4.4615,4.4615,4.4615,4.4615,4.4615,4.4615,4.4615,4.4615,0.0,0.0,0.0,0.0,0.0,0.0,0.0,4.7296,4.77,4.7388,4.7627,4.781,4.781,4.8122,4.8306,4.8306,4.8306,4.8306,4.8306,4.8012,4.781,4.781,4.7039,4.6617,4.6617,4.5971,4.5615,0.0,0.0,0.0,0.0,0.0,0.0,0.0,0.0,4.3889,4.4213,4.4213,4.4507,4.4966,4.5296,4.5424,4.5461,4.5773,4.5973,4.6095,4.6095,4.6329,4.6641,4.6641,4.6668,4.6736,4.6736,4.6915,4.7105,4.7105,4.6759,4.6374,4.6374,4.599,4.5594,4.5594,4.5594,4.5594,4.5594,4.5594,4.5498,4.5152,4.4259,4.3349,4.2811,4.1767,4.0863,0.0,0.0,0.0,0.0,0.0,0.0,0.0,0.0,0.0,0.0,0.0,0.0,0.0,0.0,0.0,0.0,0.0,0.0,4.1058,0.0,4.2359,4.3496,4.3178,4.2733,4.2142,4.2343,4.2497,4.268,4.3172,4.3842,4.4615,4.4615,4.4615,4.4615,4.4615,4.4615,4.4615,4.4615,4.4615,4.4615,4.4615,4.4615,4.4615,4.6214,0.0,4.6324,0.0,4.7095,4.7443,4.7443,4.792,4.8306,4.8306,4.8306,4.8306,4.8306,4.8306,4.8306,4.8306,4.8306,4.8306,4.8306,4.8306,4.8306,4.8306,4.7755,0.0,4.7443,4.6673,4.625,4.625,4.5461,0.0,0.0,0.0,0.0,0.0,4.4212,4.4525,4.5057,4.5057,4.5388,4.592,4.6159,4.625,4.6287,4.6526,4.6617,4.6617,4.6617,4.6762,4.6969,4.6969,4.7379,4.7857,4.7473,4.7621,4.7923,4.7923,4.7617,4.725,4.725,4.6797,4.6278,4.6028,4.597,4.5913,4.5671,4.5594,4.5577,4.5457,4.4775,4.3996,4.341,4.2253,4.1259,4.087,0.0,0.0,0.0,0.0,0.0,0.0,3.8707,3.8707,3.8707,3.8707,0.0,0.0,0.0,0.0,0.0,0.0,0.0,0.0,0.0,0.0,4.3496,4.2976,4.2606,4.2397,4.2416,4.259,4.2917,4.3484,4.4062,4.4615,4.4615,4.4615,4.4615,4.4615,4.4615,4.4615,4.4615,4.4615,4.4615,4.4615,4.4615,4.4615,4.6929,4.7094,4.7333,4.8141,4.8288,4.8306,4.8306,4.8306,4.8306,4.8306,4.8306,4.8306,4.8306,4.8306,4.8306,4.8306,4.8306,4.8306,4.8306,4.8306,4.8306,0.0,0.0,4.8306,4.8306,4.7498,4.7094,4.7094,0.0,0.0,4.5883,0.0,4.5865,4.5865,4.5865,4.5883,4.5883,4.5883,4.5883,4.5975,4.6764,4.7094,4.7168,4.7957,4.8269,4.8269,4.8269,4.8269,4.8288,4.8288,4.8549,4.8663,4.7404,4.7232,4.7502,4.7502,4.7782,4.8086,4.8086,4.8086,4.7875,4.7077,4.6885,4.6663,4.5806,4.5594,4.5504,4.5161,4.5096,4.4722,4.3523,4.3006,4.26,4.2071,0.0,0.0,0.0,0.0,0.0,0.0,3.8707,3.8707,3.8707,3.8707,0.0,0.0,0.0,0.0,0.0,0.0,0.0,4.2231,4.2286,0.0,4.3496,4.2976,4.3071,4.3768,4.3389,4.3566,4.4293,4.4484,4.4598,4.4615,4.4615,4.4615,4.4615,4.4615,4.4615,4.4615,4.4615,4.4615,4.4615,4.4615,4.4615,4.4615,4.7884,4.7921,4.8012,4.8269,4.8306,4.8306,4.8306,4.8306,4.8306,4.8306,4.8306,4.8306,4.8306,4.8306,4.8306,0.0,4.8306,4.8306,0.0,4.8306,4.8306,4.8306,4.8306,4.8306,4.8306,4.8048,4.7921,4.7921,0.0,0.0,0.0,4.5902,4.5902,4.5902,4.5902,4.6214,4.6709,4.6709,4.7021,4.7572,4.781,4.7921,4.7957,4.8214,4.8306,4.8306,4.8306,4.8306,4.8306,4.8306,4.8383,4.8421,4.8011,4.834,4.8864,4.8864,4.8528,4.8163,4.8163,4.777,4.7296,4.7017,4.696,4.6764,4.591,4.5307,4.4818,4.4423,4.4341,4.4154,4.3547,4.291,4.2385,4.2218,4.1364,0.0,0.0,0.0,0.0,0.0,4.0325,4.0325,4.0325,4.0325,0.0,0.0,0.0,0.0,0.0,0.0,0.0,0.0,4.2818,0.0,4.2958,4.2788,4.2693,4.2635,4.3023,4.3674,4.4528,4.4563,4.4615,4.4615,4.4615,4.4615,4.4615,4.4615,4.4615,4.4615,4.4615,4.4615,4.4615,4.4615,4.4615,4.4615,4.8306,4.8306,4.8306,4.8306,4.8306,4.8306,4.8306,4.8306,4.8306,4.8306,4.8306,4.8306,4.8306,4.8306,0.0,4.8306,4.8306,4.8306,4.8306,4.8306,4.8306,4.8306,4.8306,4.8306,4.8306,4.8306,0.0,4.8306,4.7791,4.7297,4.6801,4.6801,4.6801,4.6801,4.6801,4.7076,4.7553,4.7553,4.7828,4.8306,4.8306,4.8306,4.8306,4.8306,4.8306,4.8306,4.8306,4.8306,4.8306,4.8306,4.8306,4.8306,4.8306,4.8639,4.9078,4.9234,4.8995,4.8697,4.8697,4.8324,4.7858,4.7518,4.7443,4.716,4.6062,4.5415,4.485,4.4147,4.4001,4.3912,4.3546,4.3075,4.2745,4.2745,4.2084,4.1535,4.1535,0.0,0.0,0.0,0.0,0.0,0.0,4.1095,4.1095,0.0,0.0,0.0,0.0,0.0,0.0,4.2745,4.303,4.3032,4.2693,4.2545,4.2502,4.2518,4.3339,4.4012,4.4615,4.4615,4.4615,4.4615,4.4615,4.4615,4.4615,4.4615,4.4615,4.4615,4.4615,4.4615,4.4615,4.4615,4.4615,4.4615,4.8306,4.8306,4.8306,0.0,4.8306,4.8306,4.8306,4.8306,4.8306,4.8306,4.8306,4.8306,4.8306,4.8306,4.8306,4.8306,0.0,0.0,4.8306,4.8306,4.8306,4.8306,4.8306,4.8306,4.8306,4.8306,4.8306,4.8306,4.8306,4.8306,4.8306,4.8306,4.8306,4.8306,4.8306,4.8306,4.8306,4.8306,4.8306,4.8306,4.8306,4.8306,4.8306,4.8306,4.8306,4.8306,4.8306,4.8306,4.8306,4.8306,4.8306,4.8306,4.8306,4.8306,4.8383,4.8744,4.9123,4.9416,4.9416,4.9416,4.9227,4.8403,4.8158,4.7725,4.6224,4.5791,4.5425,4.4289,4.4008,4.3865,4.3565,4.3515,4.3515,4.3515,4.2873,4.2378,4.2378,0.0,0.0,0.0,0.0,0.0,4.126,4.126,4.126,0.0,0.0,0.0,0.0,0.0,4.2657,4.3426,4.2958,4.2691,4.2667,4.2284,4.2459,4.3222,4.417,4.4615,4.4615,4.4615,4.4615,4.4615,4.4615,4.4615,4.4615,4.4615,4.4615,4.4615,4.4615,4.4615,4.4615,4.4615,4.4615,4.4615,0.0,0.0,4.8306,4.8306,4.8306,4.8306,4.8306,4.8306,4.8306,4.8306,4.8306,4.8306,4.8306,4.8306,4.8306,4.8306,4.8306,4.8306,4.8306,4.8306,4.8306,4.8306,4.8306,4.8306,4.8306,4.8306,4.8306,4.8306,4.8306,4.8306,4.8306,4.8306,4.8306,4.8306,4.8306,4.8306,4.8306,4.8306,4.8306,4.8306,4.8306,4.8306,4.8306,4.8306,4.8306,4.8306,4.8306,4.8306,4.8306,4.8306,4.8306,4.8306,4.8306,4.8306,4.8325,4.8402,4.8513,4.8568,4.8568,4.8568,4.8531,4.8328,4.781,4.7274,4.6887,4.5834,4.4875,4.4589,4.4038,4.3597,4.3513,4.3515,4.3515,4.3515,4.3332,4.3222,4.3222,4.3039,0.0,0.0,4.2928,4.2928,4.2928,4.2928,4.2928,0.0,0.0,0.0,0.0,4.2814,4.2684,4.2865,4.2769,4.2545,4.2258,4.2148,4.2513,4.3348,4.4196,4.4615,4.4615,4.4615,4.4615,4.4615,4.4615,4.4615,4.4615,4.4615,4.4615,4.4615,4.4615,4.4615,4.4615,4.4615,4.4615,4.4615,4.8306,4.8306,4.8306,4.8306,4.8306,4.8306,4.8306,4.8306,4.8306,4.8306,4.8306,4.8306,4.8306,4.8306,4.8306,4.8306,4.8306,4.8306,4.8306,4.8306,4.8306,4.8306,4.8306,4.8306,4.8306,4.8306,4.8306,4.8306,4.8306,4.8306,4.8306,4.8306,4.8306,4.8306,4.8306,4.8306,4.8306,4.8306,4.8306,4.8306,4.8306,4.8306,4.8306,4.8306,4.8306,4.8306,4.8306,4.8306,4.8306,4.8306,4.8306,4.8306,4.8306,4.8306,4.8306,4.8306,4.8306,4.8306,4.8306,4.8306,4.8306,4.8306,4.7957,4.7553,4.7186,4.6415,4.5682,4.5333,4.4617,4.4048,4.4048,4.3736,4.3515,4.3515,4.3515,4.3515,4.3515,4.3515,4.3515,4.3515,4.3515,4.3515,4.3515,4.3515,4.3515,4.3515,4.3515,0.0,4.403,4.3521,4.3215,4.3215,4.2695,4.2484,4.2611,4.2652,4.3123,4.3944,4.4384,4.4615,4.4615,4.4615,4.4615,4.4615,4.4615,4.4615,4.4615,4.4615,4.4615,4.4615,4.4615,4.4615,4.4615,4.4615,4.4615,4.4542,4.8306,4.8306,4.8306,4.8306,4.8306,4.8306,4.8306,4.8306,4.8306,4.8306,4.8306,4.8306,4.8306,4.8306,4.8306,4.8306,4.8306,4.8306,4.8306,4.8306,4.8306,4.8306,4.8306,4.8306,4.8306,4.8306,4.8306,4.8306,4.8306,4.8306,4.8306,4.8306,4.8306,4.8306,4.8306,4.8306,4.8306,4.8306,4.8306,4.8306,4.8306,4.8306,4.8306,4.8306,4.8306,4.8306,4.8306,4.8306,4.8306,4.8306,4.8306,4.8306,4.8306,4.8306,4.8306,4.8306,4.8306,4.8306,4.8306,4.8306,4.8306,4.8306,4.8306,4.8122,4.7443,4.7186,4.6911,4.6214,4.5443,4.4892,4.4892,4.4213,4.3681,4.3681,4.3588,4.3515,4.3515,0.0,4.3515,4.3515,4.3515,4.3515,4.3515,4.3515,4.3551,4.3663,4.3593,4.3905,4.4693,4.4106,4.376,4.3886,4.284,4.2573,4.3216,4.3452,4.3927,4.4615,4.4615,4.4615,4.4615,4.4615,4.4615,4.4615,4.4615,4.4615,4.4615,4.4615,4.4615,4.4615,4.4615,4.4615,4.4615,4.4615,4.4514,4.4298,4.8306,4.8306,4.8306,4.8306,4.8306,4.8306,4.8306,4.8306,4.8306,4.8306,4.8306,4.8306,4.8306,4.8306,4.8306,4.8306,4.8306,4.8306,4.8306,4.8306,4.8306,4.8306,4.8306,4.8306,4.8306,4.8306,4.8306,4.8306,4.8306,4.8306,4.8306,4.8306,4.8306,4.8306,4.8306,4.8306,4.8306,4.8306,4.8306,4.8306,4.8306,4.8306,4.8306,4.8306,4.8306,4.8306,4.8306,4.8306,4.8306,4.8306,4.8306,4.8306,4.8306,4.8306,4.8306,4.8306,4.8306,4.8306,4.8306,4.8306,4.8306,4.8306,4.8306,4.8269,4.8141,4.759,4.7058,4.6929,4.6269,4.5718,4.5718,4.5057,4.4525,4.4525,4.3938,4.3515,4.3515,0.0,4.3515,4.3515,4.3515,4.3515,4.3515,4.3515,4.3773,4.447,4.4032,4.409,4.4905,4.3885,4.3589,4.4192,4.3447,4.3124,4.3352,4.4067,4.4496,4.4615,4.4615,4.4615,4.4615,4.4615,4.4615,4.4615,4.4615,4.4615,4.4615,4.4615,4.4615,4.4615,4.4615,4.4615,4.4615,4.4615,4.4121,4.3486,4.8306,4.8306,4.8306,4.8306,4.8306,4.8306,4.8306,4.8306,4.8306,4.8306,4.8306,4.8306,4.8306,4.8306,4.8306,4.8306,4.8306,4.8306,4.8306,4.8306,4.8306,4.8306,4.8306,4.8306,4.8306,4.8306,4.8306,4.8306,4.8306,4.8306,4.8306,4.8306,4.8306,4.8306,4.8306,4.8306,4.8306,4.8306,4.8306,4.8306,4.8306,4.8306,4.8306,4.8306,4.8306,4.8306,4.8306,4.8306,4.8306,4.8306,4.8306,4.8306,4.8306,4.8306,4.8306,4.8306,4.8306,4.8306,4.8306,4.8306,4.8306,4.8306,4.8306,4.8306,4.8306,4.8012,4.7736,4.7736,4.7094,4.6562,4.6562,4.5902,4.5351,4.5351,4.5039,0.0,4.4782,4.4782,4.4782,4.4782,4.4782,4.4782,4.4782,4.4782,4.4821,4.4851,4.4598,4.4641,4.5075,4.4277,4.4162,4.4931,4.4293,4.3983,4.4045,4.4401,4.4615,4.4615,4.4615,4.4615,4.4615,4.4615,4.4615,4.4615,4.4615,4.4615,4.4615,4.4615,4.4615,4.4615,4.4615,4.4615,4.4542,4.4064,4.3931,4.3814,4.8114,4.8375,4.8561,4.8387,4.8631,4.8816,4.8661,4.8641,4.8641,4.8641,4.8457,4.8347,4.8347,4.832,4.8306,4.8306,4.8306,4.8306,4.8306,4.8306,4.8306,4.8306,4.8306,4.8306,4.8306,4.8306,4.8306,4.8306,4.8306,4.8306,4.8306,4.8306,4.8306,4.8306,4.8306,4.8306,4.8306,4.8306,4.8306,4.8306,4.8306,4.8306,4.8306,4.8306,4.8306,4.8306,4.8306,4.8306,4.8306,4.8306,4.8306,4.8306,4.8306,4.8306,4.8306,4.8306,4.8306,4.8306,4.8306,4.8306,4.8306,4.8306,4.8306,4.8306,4.8306,4.8306,4.8306,4.8306,4.781,4.7369,4.7369,4.6728,4.6177,4.6177,0.0,4.5902,0.0,4.5902,4.5902,4.5902,4.5773,4.5699,4.5699,4.5548,4.5352,4.5069,4.4918,4.4956,4.5258,4.4703,4.4656,4.5276,4.4841,4.4615,4.4615,4.4615,4.4615,4.4615,4.4615,4.4615,4.4615,4.4615,4.4615,4.4615,4.4615,4.4615,4.4615,4.4615,4.4615,4.4615,4.4615,4.4615,4.4514,4.3844,4.3768,4.3693,4.7572,4.8575,4.9285,4.8612,4.9664,5.038,4.9698,4.9591,4.9591,4.9591,4.8937,4.8504,4.8504,4.8354,4.8306,4.8306,4.8306,4.8306,4.8306,4.8306,4.8306,4.8306,4.8306,4.8306,4.8306,4.8306,4.8306,4.8306,4.8306,4.8306,4.8306,4.8306,4.8306,4.8306,4.8306,4.8306,4.8306,4.8306,4.8306,4.8306,4.8306,4.8306,4.8306,4.8306,4.8306,4.8306,4.8306,4.8306,4.8306,4.8306,4.8306,4.8306,4.8306,4.8306,4.8306,4.8306,4.8306,4.8306,4.8306,4.8306,4.8306,4.8306,4.8306,4.8306,4.8306,4.8306,4.8306,4.8306,4.8251,4.8214,4.8214,4.7553,4.7003,4.7003,0.0,0.0,4.5902,4.5902,4.5902,4.5902,4.5415,4.5062,4.5062,4.4485,4.4417,4.5126,4.4666,4.4678,4.5424,4.4912,4.4603,4.4665,4.4626,4.4615,4.4615,4.4615,4.4615,4.4615,4.4615,4.4615,4.4615,4.4615,4.4615,4.4615,4.4615,4.4615,4.4615,4.4615,4.4615,4.4615,4.4615,4.4615,4.4598,4.4514,4.3499,4.2157,4.8259,4.8649,4.8957,4.8681,4.9096,4.9405,4.9109,4.9085,4.9085,4.9085,4.8811,4.8615,4.8615,4.8578,4.8559,4.8559,4.8129,4.7864,4.7864,4.7802,4.7917,4.8287,4.8306,4.8306,4.8306,4.8306,4.8306,4.8306,4.8306,4.8306,4.8306,4.8306,4.8306,4.8306,4.8306,4.8306,4.8306,4.8306,4.8306,4.8306,4.8306,4.8306,4.8306,4.8306,4.8306,4.8306,4.8306,4.8306,4.8306,4.8306,4.8306,4.8306,4.8306,4.8306,4.8306,4.8306,4.8306,4.8306,4.8306,4.8306,4.8306,4.8306,4.8306,4.8306,4.8306,4.8306,4.8306,4.8306,4.8306,4.8306,4.8306,4.8048,4.7828,4.7828,0.0,4.7256,4.6868,4.6828,4.6687,4.6255,4.6016,4.5882,4.5882,4.5638,4.5458,4.5386,4.5163,4.5027,4.4944,4.472,4.4615,4.4615,4.4615,4.4615,4.4615,4.4615,4.4615,4.4615,4.4615,4.4615,4.4615,4.4615,4.4615,4.4615,4.4615,4.4615,4.4615,4.4615,4.4615,4.4615,4.4615,4.4615,4.4542,4.4006,4.335,4.2645,4.8414,4.8753,4.9013,4.8783,4.9131,4.9384,4.9135,4.9109,4.9109,4.9109,4.8898,4.8731,4.8731,4.8708,4.8692,4.8692,4.8258,4.7957,4.7957,4.8056,4.8182,4.8286,4.8306,4.8306,4.8306,4.8306,4.8306,4.8306,4.8306,4.8306,4.8306,4.8306,4.8306,4.8306,4.8306,4.8306,4.8306,4.8306,4.8306,4.8306,4.8306,4.8306,4.8306,4.8306,4.8306,4.8306,4.8306,4.8306,4.8306,4.8306,4.8306,4.8306,4.8306,4.8306,4.8306,4.8306,4.8172,4.8015,4.8015,4.7858,4.7797,4.8191,4.8306,4.8306,4.8306,4.8306,4.8306,4.8306,4.8152,4.8015,4.8015,4.7838,4.7697,4.7697,4.7697,4.7554,4.7132,4.7106,4.691,4.6454,4.624,4.6136,4.6136,4.594,4.5673,4.5258,4.5205,4.5052,4.4626,4.4615,4.4615,4.4615,4.4615,4.4615,4.4615,4.4615,4.4615,4.4615,4.4615,4.4615,4.4615,4.4615,4.4615,4.4615,4.4615,4.4615,4.4615,4.4615,4.4615,4.4615,4.4615,4.4615,4.4468,4.3621,4.3139,4.2676,4.7835,4.8881,4.967,4.8917,5.0073,5.085,5.01,5.0004,5.0004,5.0004,4.9318,4.8806,4.8806,4.8732,4.8685,4.8685,4.8685,4.871,4.8692,4.9299,4.9282,4.8341,4.8305,4.8287,4.8287,4.8287,4.8287,4.8306,4.8306,4.8306,4.8306,4.8306,4.8306,4.8306,4.8306,4.8306,4.8306,4.8306,4.8306,4.8306,4.8306,4.8306,4.8306,4.8306,4.8306,4.8306,4.8306,4.8287,4.8287,4.8287,4.8287,4.8287,4.8287,4.8287,4.8287,4.8287,4.7858,4.7385,4.7385,4.691,4.671,4.7977,4.8287,4.8287,4.8287,4.8287,4.8287,4.8287,4.7797,4.7385,4.7385,4.6864,4.6407,4.6407,4.6407,4.6407,4.6389,4.6407,4.6407,4.6383,4.5858,4.5485,4.5485,4.4944,4.4615,4.4615,4.4615,4.4615,4.4615,4.4615,4.4615,4.4615,4.4615,4.4615,4.4615,4.4615,4.4615,4.4615,4.4615,4.4615,4.4615,4.4615,4.4615,4.4615,4.4615,4.4615,4.4615,4.4615,4.4615,4.4615,4.4615,4.4615,4.4468,4.3621,4.2754,4.1869,4.8652,4.8971,4.9196,4.8976,4.9325,4.9551,4.9329,4.9316,4.9316,4.9316,4.9082,4.8946,4.8946,4.8932,4.8912,4.8912,4.8432,4.8109,4.7996,4.8181,4.838,4.8572,4.8544,4.8254,4.7674,4.7656,4.7877,4.8306,4.8306,4.8306,4.8306,4.8306,4.8306,4.8306,4.8306,4.8306,4.8306,4.8306,4.8306,4.8306,4.8306,4.8306,4.8306,4.8306,4.8306,4.8306,4.8306,4.8035,4.7656,4.7656,4.7345,4.6977,4.6977,4.6977,4.6977,4.6977,4.6847,4.6687,4.6687,4.6548,4.6501,4.6869,4.6977,4.6977,4.6977,4.6977,4.6977,4.6977,4.6824,4.6687,4.6687,4.6524,4.6407,4.6407,4.6407,4.624,4.5833,4.5783,4.5622,4.5178,4.4971,4.4852,4.4852,4.4709,4.4615,4.4615,4.4615,4.4615,4.4615,4.4615,4.4615,4.4615,4.4615,4.4615,4.4615,4.4615,4.4615,4.4615,4.4615,4.4615,4.4615,4.4615,4.4615,4.4615,4.4615,4.4615,4.4615,4.4615,4.4615,4.4615,4.4615,4.4615,4.4468,4.3621,4.2754,4.1869,4.9001,4.9001,4.9001,4.9001,4.9001,4.9001,4.9001,4.9001,4.9001,4.9001,4.9001,4.9001,4.9001,4.9001,4.9001,4.9001,4.8595,4.8303,4.8214,4.8459,4.8526,4.8394,4.861,4.8479,4.7944,4.7908,4.7963,4.8022,4.8022,4.7859,4.7554,4.7554,4.7554,4.7554,4.7554,4.7554,4.7554,4.7554,4.7554,4.7554,4.7554,4.7554,4.7554,4.7554,4.7554,4.7554,4.7554,4.7324,4.6999,4.6999,4.6751,4.6407,4.6407,4.6407,4.6407,4.6407,4.624,4.6021,4.6021,4.5865,4.5681,4.5681,4.6063,4.6407,4.6407,4.6407,4.6407,4.6407,4.6216,4.6021,4.6021,4.584,4.5681,4.5681,4.5681,4.5545,4.5205,4.5125,4.4998,4.4654,4.4615,4.4615,4.4615,4.4615,4.4615,4.4615,4.4615,4.4615,4.4615,4.4615,4.4615,4.4615,4.4615,4.4615,4.4615,4.4615,4.4615,4.4615,4.4615,4.4615,4.4615,4.4615,4.4615,4.4615,4.4615,4.4615,4.4615,4.4615,4.4615,4.4615,4.4615,4.4615,4.444,4.3229,4.2458,4.1836,4.9001,4.9001,4.9001,4.9001,4.9001,4.9001,4.9001,4.9001,4.9001,4.9001,4.9001,4.9001,4.9001,4.9001,4.9001,4.9001,4.9001,4.9001,4.9001,4.9563,4.9342,4.8037,4.8592,4.8839,4.8719,4.8637,4.8307,4.7692,4.7692,4.732,4.6619,4.6619,4.6619,4.6619,4.6619,4.6566,4.6513,4.6513,4.6478,4.6407,4.6407,4.6407,4.6407,4.6407,4.6407,4.6407,4.6407,4.6359,4.6312,4.6264,4.624,4.624,4.624,4.624,4.624,4.624,4.584,4.5407,4.5407,4.5025,4.4615,4.4615,4.5433,4.624,4.624,4.624,4.624,4.624,4.5808,4.5407,4.5407,4.4971,4.4615,4.4615,4.4615,4.4615,4.4615,4.4615,4.4615,4.4615,4.4615,4.4615,4.4615,4.4615,4.4615,4.4615,4.4615,4.4615,4.4615,4.4615,4.4615,4.4615,4.4615,4.4615,4.4615,4.4615,4.4615,4.4615,4.4615,4.4615,4.4615,4.4615,4.4615,4.4615,4.4615,4.4615,4.4615,4.4615,4.4615,4.4615,4.4615,4.4615,4.4412,4.2738,4.2062,4.1739,4.9001,4.9001,4.9001,4.9001,4.9001,4.9001,4.9001,4.9001,4.9001,4.9001,4.9001,4.9001,4.9001,4.9001,4.9001,4.9001,4.9001,4.9001,4.9001,4.9138,4.9084,4.8765,4.8883,4.8963,4.8941,4.8249,4.8085,4.8445,4.8445,4.8357,4.8197,4.8197,4.8197,4.8197,4.8197,4.7886,4.732,4.732,4.6991,4.6407,4.6407,4.6407,4.6407,4.6407,4.6407,4.6407,4.6407,4.6112,4.5622,4.5169,4.4998,4.4998,4.4998,4.4998,4.4998,4.4998,4.4906,4.4786,4.4786,4.4692,4.4615,4.4615,4.4786,4.4998,4.4998,4.4998,4.4998,4.4998,4.4879,4.4786,4.4786,4.4692,4.4615,4.4615,4.4615,4.4615,4.4615,4.4615,4.4615,4.4615,4.4615,4.4615,4.4615,4.4615,4.4615,4.4615,4.4615,4.4615,4.4615,4.4615,4.4615,4.4615,4.4615,4.4615,4.4615,4.4615,4.4615,4.4615,4.4615,4.4615,4.4615,4.4615,4.4615,4.4615,4.4615,4.4615,4.4615,4.4615,4.4615,4.4615,4.4615,4.4615,4.4485,4.3426,4.2583,4.1739,4.9001,4.9001,4.9001,4.9001,4.9001,4.9001,4.9001,4.9001,4.9001,4.9001,4.9001,4.9001,4.9001,4.9001,4.9001,4.9001,4.9001,4.9001,4.9001,4.9001,4.9001,4.9001,4.9001,4.9001,4.9001,4.855,4.8323,4.8308,4.8308,4.8144,4.7781,4.7781,4.7781,4.7781,4.7781,4.7573,4.7236,4.7236,4.6993,4.6585,4.6585,4.6585,4.6585,4.6585,4.6585,4.6585,4.6585,4.6389,4.6058,4.5761,4.5664,4.5585,4.5229,4.5111,4.5043,4.4716,4.4615,4.4615,4.4615,4.4615,4.4615,4.4615,4.4615,4.4615,4.4615,4.4615,4.4615,4.4615,4.4615,4.4615,4.4615,4.4615,4.4615,4.4615,4.4615,4.4615,4.4615,4.4615,4.4615,4.4615,4.4615,4.4615,4.4615,4.4615,4.4615,4.4615,4.4615,4.4615,4.4615,4.4615,4.4615,4.4615,4.4615,4.4615,4.4615,4.4615,4.4615,4.4615,4.4615,4.4615,4.4615,4.4615,4.4615,4.4615,4.4615,4.4615,4.4615,4.4615,4.4615,4.4615,4.4615,4.4355,4.3873,4.3,4.1885,4.0653,4.9001,4.9001,4.9001,4.9001,4.9001,4.9001,4.9001,4.9001,4.9001,4.9001,4.9001,4.9001,4.9001,4.9001,4.9001,4.9001,4.9001,4.9001,4.9001,4.9001,4.9001,4.9001,4.9001,4.9001,4.9001,4.9001,4.8714,4.8075,4.8075,4.7784,4.7175,4.7175,4.7175,4.7175,4.7175,4.7107,4.6989,4.6989,4.6904,4.6786,4.6786,4.6786,4.6786,4.6786,4.6786,4.6786,4.6786,4.6786,4.6786,4.6786,4.6786,4.6684,4.6075,4.5889,4.5771,4.5173,4.4987,4.4953,4.4835,4.4801,4.4767,4.4632,4.4615,4.4615,4.4615,4.4615,4.4615,4.4615,4.4615,4.4615,4.4615,4.4615,4.4615,4.4615,4.4615,4.4615,4.4615,4.4615,4.4615,4.4615,4.4615,4.4615,4.4615,4.4615,4.4615,4.4615,4.4615,4.4615,4.4615,4.4615,4.4615,4.4615,4.4733,4.4801,4.4801,4.4919,4.4987,4.4987,4.4987,4.4919,4.4801,4.4936,4.4987,4.4987,4.4987,4.4987,4.4987,4.4987,4.4987,4.4959,4.4783,4.4232,4.335,4.2205,4.0938,3.979,4.9001,4.9001,4.9001,4.9001,4.9001,4.9001,4.9001,4.9001,4.9001,4.9001,4.9001,4.9001,4.9001,4.9001,4.9001,4.9001,4.9001,4.9001,4.9001,4.9001,4.9001,4.9001,4.9001,4.9001,4.9001,4.9001,4.8951,4.8849,4.8849,4.8798,4.8697,4.8697,4.8697,4.8697,4.8697,4.8359,4.7736,4.7736,4.7394,4.6786,4.6786,4.6786,4.6786,4.6786,4.6786,4.6786,4.6786,4.6786,4.6786,4.6786,4.6786,4.6769,4.6667,4.665,4.6616,4.6515,4.6481,4.6346,4.572,4.5551,4.5399,4.4767,4.4615,4.4615,4.4615,4.4615,4.4615,4.4615,4.4615,4.4615,4.4615,4.4615,4.4615,4.4615,4.4615,4.4615,4.4615,4.4615,4.4615,4.4615,4.4615,4.4615,4.4615,4.4615,4.4615,4.4615,4.4615,4.4615,4.4615,4.4615,4.4615,4.4615,4.5213,4.5551,4.5551,4.6177,4.6481,4.6481,4.6481,4.616,4.5568,4.621,4.6481,4.6481,4.6481,4.6481,4.6481,4.6481,4.6481,4.6422,4.5618,4.4865,4.3976,4.1716,4.1078,4.1269,4.9001,4.9001,4.9001,4.9001,4.9001,4.9001,4.9001,4.9001,4.9001,4.9001,4.9001,4.9001,4.9001,4.9001,4.9001,4.9001,4.9001,4.9001,4.9001,4.9001,4.9001,4.9001,4.9001,4.9001,4.9001,4.9001,4.9001,4.9001,4.9001,4.9001,4.9001,4.9001,4.9001,4.9001,4.9001,4.8832,4.8528,4.8528,4.8342,4.8037,4.8037,4.8037,4.8037,4.8037,4.8037,4.8037,4.8037,4.8037,4.8037,4.8037,4.8037,4.7953,4.7547,4.7411,4.7344,4.6921,4.6786,4.6718,4.6397,4.6312,4.6244,4.5906,4.5821,4.5703,4.5297,4.5213,4.5094,4.4682,4.4615,4.4615,4.4615,4.4615,4.4615,4.4615,4.4615,4.4615,4.4615,4.4615,4.4615,4.4615,4.4615,4.4615,4.4615,4.4615,4.4615,4.4615,4.4976,4.5213,4.5213,4.5602,4.5821,4.5821,4.6143,4.6312,4.6312,4.6633,4.6786,4.6786,4.7225,4.7039,4.6329,4.665,4.6786,4.6786,4.6786,4.6786,4.6786,4.6786,4.6484,4.5979,4.5573,4.461,4.3262,4.1678,4.1261,4.1462]}]]